     2              OBSERVATION DATA    GPS                 RINEX VERSION / TYPE
ASRINEXO V2.7.2 UX SOPAC 02-MAR- 0 15:32                    PGM / RUN BY / DATE
                                                            COMMENT
Original Marker Name: 0102                                  COMMENT
Campaign Name: HPGN 1991                                    COMMENT
4-Character Station Name: 0102                              COMMENT
6-Character Antenna Code: ASHL12                            COMMENT
Vertical Measurement Point: BAS                             COMMENT
Vertical Offset to Rinex Ref. Point: 0.0000                 COMMENT
Radial Measurement Point: RRP                               COMMENT
Radial Offset to Rinex Ref. Point: 0.0000                   COMMENT
Antenna Height from Field Measurement: 2.2150 m             COMMENT
Additional Antenna Identification Info.:                    COMMENT
Original Ashtech L1/L2                                      COMMENT
Original XYZ: 6378137.0000 0.0000 0.0000                    COMMENT
New XYZ position is based on association with SCEC monument COMMENT
E1O4F8A1+0011. Position of that monument is believed to be  COMMENT
valid to within 1 m horizontally; vertical accuracy         COMMENT
should be no worse than 3-times this value.                 COMMENT
                                                            COMMENT
Revised Rinex header created by UCSD GPS archive for        COMMENT
GSAC on 17-Mar-2000 (2000:077) 23:05:08 GMT                 COMMENT
For assistance contact dagnew@ucsd.edu or hjohnson@ucsd.edu COMMENT
                                                            COMMENT
HPGN CA 01 02                                               MARKER NAME
JHB CALIF DEPT TRANSPORTATION                               OBSERVER / AGENCY
623 ASHTECH L-XII 6A                                        REC # / TYPE / VERS
713 ASHTECH GEODETIC L                                      ANT # / TYPE
 -2698676.1597 -4150242.5566  4008782.5037                  APPROX POSITION XYZ
        2.2150        0.0000        0.0000                  ANTENNA: DELTA H/E/N
     1     2     0                                          WAVELENGTH FACT L1/2
     3    C1    L1    L2                                    # / TYPES OF OBSERV
     0                                                      INTERVAL
  1991     8    13     0    17   15.000000                  TIME OF FIRST OBS
  1991     8    13     5    24   15.000000                  TIME OF LAST OBS
                                                            END OF HEADER
 91  8 13  0 17 15.0000000  0  1 23
  31907528.279           0.384 3         0.066 2
 91  8 13  0 17 30.0000000  0  1 23
  31900191.161      -38572.675 3    -30056.822 2
 91  8 13  0 17 45.0000000  0  2 23 03
  31892876.221      -77007.776 3    -60006.217 2
  30296556.626           0.803 3         0.396 2
 91  8 13  0 18  0.0000000  0  2 23 03
  31885598.756     -115263.207 3    -89815.589 2
  30298431.835        9880.361 3      7698.757 2
 91  8 13  0 18 15.0000000  0  2 23 03
  29180216.159        1625.312 3      1266.144 2
  27602224.981      -18764.251 3    -14621.719 2
 91  8 13  0 18 30.0000000  0  2 23 03
  29172999.551      -36288.330 3    -28276.910 2
  27604176.927       -8489.281 3     -6615.257 2
 91  8 13  0 18 45.0000000  0  2 23 03
  31863951.342         718.539 3       559.422 2
  30304298.773      -18068.952 3    -14080.074 2
 91  8 13  0 19  0.0000000  0  2 23 03
  31856804.292      -36867.162 3    -28728.104 2
  30306326.863       -7412.471 3     -5776.328 2
 91  8 13  0 19 15.0000000  0  2 23 03
  29151541.909        2231.334 3      1738.116 2
  27610262.115      -18059.320 3    -14072.630 2
 91  8 13  0 19 30.0000000  0  2 23 03
  29144449.721      -35050.410 3    -27312.561 2
  27612356.167       -7045.688 3     -5490.560 2
 91  8 13  0 19 45.0000000  0  3 17 23 03
  29998301.509           0.198 3         0.350 3
  31535723.871        1305.555 3      1016.833 2
  30012823.153      -17376.319 3    -13540.153 2
 91  8 13  0 20  0.0000000  0  3 17 23 03
  29998325.189         128.168 3       100.059 3
  31528681.749      -35696.755 3    -27816.099 2
  30014979.564       -6030.184 3     -4699.021 2
 91  8 13  0 20 15.0000000  0  3 17 23 03
  30597952.381         364.169 3       283.952 3
  32121249.725      -72572.720 3    -56550.585 2
  30616754.161        5462.132 3      4256.026 2
 91  8 13  0 20 30.0000000  0  3 17 23 03
  30598022.234         704.234 4       548.944 3
  32114257.964     -109336.020 3    -85197.269 2
  30618967.530       17099.979 3     13324.468 2
 91  8 13  0 20 45.0000000  0  3 17 23 03
  29998523.057        1154.162 4       899.547 3
  31507699.877     -145980.395 3   -113751.296 2
  30021623.865       28889.285 3     22510.932 2
 91  8 13  0 21  0.0000000  0  3 17 23 03
  29998622.288        1706.354 3      1329.819 3
  31500749.482     -182503.609 3   -142210.893 2
  30023895.386       40819.663 3     31807.333 2
 91  8 13  0 21 15.0000000  0  3 17 23 03
  29998749.099        2355.716 3      1835.815 3
  31493820.681     -218915.657 3   -170583.875 2
  30026191.198       52887.375 3     41210.745 2
 91  8 13  0 21 30.0000000  0  3 17 23 03
  29998886.100        3100.191 3      2415.933 3
  31486908.065     -255217.900 3   -198871.313 2
  30028514.589       65091.168 3     50720.192 2
 91  8 13  0 21 45.0000000  0  3 17 23 03
  29999051.293        3941.976 4      3071.870 3
  31480021.834     -291408.323 3   -227071.588 2
  30030863.467       77432.823 3     60337.070 2
 91  8 13  0 22  0.0000000  0  3 17 23 03
  29999226.065        4871.224 3      3795.951 3
  31473155.688     -327496.392 3   -255192.135 2
  30033241.121       89902.771 3     70053.901 2
 91  8 13  0 22 15.0000000  0  4 17 23 16 03
  29999421.534        5889.285 3      4589.257 3
  31466307.830     -363480.488 3   -283231.651 2
  33822180.994           0.299 2         0.250 1
  30035636.163      102502.811 3     79872.109 2
 91  8 13  0 22 30.0000000  0  4 17 23 16 03
  29999631.085        6995.191 3      5451.000 3
  31459481.252     -399361.291 3   -311190.678 2
  33832525.928       54365.465 2     42362.647 1
  30038057.887      115231.960 3     89790.929 2
 91  8 13  0 22 45.0000000  0  4 17 23 16 03
  20406502.971        1154.493 4       899.801 3
  21859299.926        2532.056 3      1973.067 2
  24249535.596     -128145.703 2    -99853.722 1
  20447150.330      -15720.916 3    -12250.330 2
 91  8 13  0 23  0.0000000  0  4 17 23 16 03
  20406743.705        2440.262 3      1901.695 3
  21852507.821      -33137.406 3    -25821.289 2
  24259910.509      -73681.091 2    -57413.838 1
  20449627.816       -2728.586 3     -2126.438 2
 91  8 13  0 23 15.0000000  0  4 17 23 16 03
  20407006.924        3813.124 3      2971.453 3
  21845736.116      -68703.459 3    -53535.063 2
  24270287.525      -19170.020 2    -14937.750 1
  20452121.487       10392.822 3      8098.027 2
 91  8 13  0 23 30.0000000  0  4 17 23 16 03
  20407281.835        5271.264 4      4107.660 3
  21838994.076     -104167.820 3    -81169.600 2
  24280656.750       35385.516 2     27573.031 1
  20454642.145       23641.561 3     18421.724 2
 91  8 13  0 23 45.0000000  0  4 17 23 16 03
  20407572.634        6813.298 3      5309.242 3
  21832266.136     -139531.676 3   -108725.814 2
  24291043.059       89983.665 2     70117.094 1
  20457188.882       37016.337 3     28843.617 2
 91  8 13  0 24  0.0000000  0  4 17 23 16 03
  20407888.317        8436.620 3      6574.165 3
  21825554.381     -174797.567 3   -136205.692 2
  24301452.157      144621.657 2    112692.075 1
  20459756.603       50514.601 3     39361.737 2
 91  8 13  0 24 15.0000000  0  4 17 23 16 03
  20408212.089       10138.105 3      7900.003 3
  21818858.523     -209968.267 3   -163611.403 2
  24311856.754      199296.162 2    155295.553 1
  20462347.410       64133.577 3     49973.924 2
 91  8 13  0 24 30.0000000  0  4 17 23 16 03
  20408549.358       11918.180 3      9287.078 3
  21812187.540     -245043.138 3   -190942.432 2
  24322268.243      254007.294 2    197927.559 1
  20464961.601       77873.700 3     60680.518 2
 91  8 13  0 24 45.0000000  0  4 17 23 16 03
  20408901.913       13776.945 3     10735.465 3
  21805530.648     -280021.962 3   -218198.627 2
  24332680.936      308754.999 2    240588.047 1
  20467599.778       91735.231 3     71481.710 2
 91  8 13  0 25  0.0000000  0  4 17 23 16 03
  20409272.756       15714.039 3     12244.895 3
  21798892.341     -314904.801 3   -245380.007 2
  24343105.321      363538.739 2    283276.658 1
  20470256.538      105718.167 3     82377.490 2
 91  8 13  0 25 15.0000000  0  4 17 23 16 03
  20409655.588       17726.593 3     13813.128 3
  21792274.721     -349694.266 3   -272488.651 2
  24353542.296      418355.139 2    325990.709 1
  20472942.380      119819.777 3     93365.749 2
 91  8 13  0 25 30.0000000  0  4 17 23 16 03
  20410052.816       19812.502 3     15438.494 3
  21785668.793     -384392.201 3   -299525.964 2
  24363977.169      473202.287 2    368728.675 1
  20475647.103      134038.294 3    104445.114 2
 91  8 13  0 25 45.0000000  0  4 17 23 16 03
  20410459.633       21967.717 3     17117.879 3
  21779082.051     -419002.498 3   -326494.997 2
  24374414.746      528075.857 2    411487.273 1
  20478379.414      148369.195 3    115612.046 2
 91  8 13  0 26  0.0000000  0  4 17 23 16 03
  20410884.441       24194.338 3     18852.904 3
  21772513.606     -453522.812 3   -353393.915 2
  24384870.306      582977.548 2    454267.728 1
  20481124.011      162815.431 3    126868.845 2
 91  8 13  0 26 15.0000000  0  4 17 23 16 03
  20411324.230       26491.916 3     20643.223 3
  21765961.939     -487953.382 3   -380222.892 2
  24395334.259      637906.529 2    497069.466 1
  20483897.094      177376.367 3    138215.033 2
 91  8 13  0 26 30.0000000  0  4 17 23 16 03
  20411773.320       28861.412 3     22489.585 3
  21759423.465     -522292.957 3   -406980.975 2
  24405778.136      692863.998 2    539893.518 1
  20486689.356      192053.445 3    149651.717 2
 91  8 13  0 26 45.0000000  0  4 17 23 16 03
  20412239.197       31302.435 3     24391.673 3
  21752911.672     -556541.813 3   -433668.345 2
  24416237.587      747848.899 2    582738.842 1
  20489505.306      206846.025 3    161178.418 2
 91  8 13  0 27  0.0000000  0  4 17 23 16 03
  20412716.470       33814.292 3     26348.968 3
  21746410.070     -590700.540 3   -460285.502 2
  24426703.643      802860.078 2    625604.703 1
  20492341.045      221753.701 3    172794.766 2
 91  8 13  0 27 15.0000000  0  4 17 23 16 03
  20413208.426       36397.203 3     28361.634 3
  21739929.460     -624768.548 3   -486831.960 2
  24437176.897      857897.740 2    668491.133 1
  20495198.667      236776.757 3    184501.036 2
 91  8 13  0 27 30.0000000  0  4 17 23 16 03
  20413709.684       39048.090 3     30427.264 3
  21733461.136     -658748.851 3   -513310.086 2
  24447657.943      912958.603 2    711395.723 1
  20498078.476      251912.356 3    196295.013 2
 91  8 13  0 27 45.0000000  0  4 17 23 16 03
  20414226.228       41765.262 3     32544.541 3
  21727011.099     -692642.359 3   -539720.585 2
  24458140.481      968041.264 2    754317.259 1
  20500981.669      267159.079 3    208175.570 2
 91  8 13  0 28  0.0000000  0  4 17 23 16 03
  20414759.253       44546.334 3     34711.606 3
  21720574.560     -726451.576 3   -566065.390 2
  24468625.723     1023142.814 2    797253.458 1
  20503906.142      282514.820 3    220141.084 2
 91  8 13  0 28 15.0000000  0  4 17 23 16 03
  20415301.283       47392.129 3     36929.117 3
  21714162.294     -760175.745 3   -592343.940 2
  24479113.060     1078263.276 2    840204.419 1
  20506849.505      297980.191 3    232192.019 2
 91  8 13  0 28 30.0000000  0  4 17 23 16 03
  20415851.698       50304.065 3     39198.158 3
  21707755.429     -793813.049 3   -618554.790 2
  24489603.101     1133404.105 2    883171.244 1
  20509808.155      313556.936 3    244329.740 2
 91  8 13  0 28 45.0000000  0  4 17 23 16 03
  20416418.010       53281.065 3     41517.892 3
  21701372.253     -827364.138 3   -644698.451 2
  24500107.827     1188564.430 2    926153.285 1
  20512792.291      329244.301 3    256553.655 2
 91  8 13  0 29  0.0000000  0  4 17 23 16 03
  20416996.903       56324.257 3     43889.206 3
  21695007.661     -860828.032 3   -670774.193 2
  24510610.755     1243744.766 2    969150.898 1
  20515804.905      345043.107 3    268864.409 2
 91  8 13  0 29 15.0000000  0  4 17 23 16 03
  20417588.998       59427.217 4     46307.105 3
  21688653.854     -894211.128 3   -696786.957 2
  24521111.284     1298938.045 2   1012158.586 1
  20518829.507      360947.120 3    281257.123 2
 91  8 13  0 29 30.0000000  0  4 17 23 16 03
  20418191.284       62596.900 3     48776.995 3
  21682321.641     -927506.113 3   -722731.062 2
  24531622.309     1354151.268 2   1055181.859 1
  20521874.501      376963.636 3    293737.518 2
 91  8 13  0 29 45.0000000  0  4 17 23 16 03
  20418809.449       65833.370 3     51298.920 3
  21675999.314     -960712.561 3   -748606.201 2
  24542124.941     1409384.238 2   1098220.542 1
  20524947.676      393092.778 3    306305.672 2
 91  8 13  0 30  0.0000000  0  4 17 23 16 03
  20419436.618       69132.396 3     53869.602 3
  21669696.478     -993834.156 3   -774415.183 2
  24552641.664     1464632.963 2   1141271.413 1
  20528037.036      409330.760 3    318958.643 2
 91  8 13  0 30 15.0000000  0  4 17 23 16 03
  20420075.480       72494.865 3     56489.712 3
  21663412.533    -1026870.163 3   -800157.505 2
  24563156.284     1519898.122 2   1184335.150 1
  20531146.779      425678.605 3    331697.223 2
 91  8 13  0 30 30.0000000  0  4 17 23 16 03
  20420729.924       75922.512 3     59160.605 3
  21657139.973    -1059818.624 3   -825831.598 2
  24573681.391     1575180.743 2   1227412.473 1
  20534278.412      442137.815 3    344522.566 2
 91  8 13  0 30 45.0000000  0  4 17 23 16 03
  20421387.971       79412.225 3     61879.856 3
  21650887.499    -1092682.562 3   -851439.815 2
  24584199.309     1630477.458 2   1270500.821 1
  20537430.131      458705.643 3    357432.553 2
 91  8 13  0 31  0.0000000  0  4 17 23 16 03
  20422068.792       82966.800 3     64649.650 3
  21644650.617    -1125458.846 3   -876979.762 2
  24594737.914     1685791.108 2   1313602.349 1
  20540605.835      475384.945 3    370429.406 2
 91  8 13  0 31 15.0000000  0  4 17 23 16 03
  20422756.522       86587.925 3     67471.311 3
  21638428.131    -1158145.433 3   -902449.782 2
  24605257.935     1741123.236 2   1356718.205 1
  20543799.225      492177.735 3    383514.689 2
 91  8 13  0 31 30.0000000  0  4 17 23 16 03
  20423460.429       90272.503 3     70342.406 3
  21632228.723    -1190745.312 3   -927852.244 2
  24615790.546     1796470.057 2   1399845.499 1
  20547015.998      509080.842 3    396685.932 2
 91  8 13  0 31 45.0000000  0  4 17 23 16 03
  20424171.543       94018.142 3     73261.075 3
  21626037.709    -1223260.734 3   -953188.909 2
  24626323.454     1851829.398 2   1442982.696 1
  20550257.952      526092.206 3    409941.537 2
 91  8 13  0 32  0.0000000  0  4 17 23 16 03
  20424897.036       97825.306 3     76227.701 3
  21619870.078    -1255690.969 3   -978459.189 2
  24636860.559     1907201.375 2   1486129.582 1
  20553512.496      543212.255 3    423281.830 2
 91  8 13  0 32 15.0000000  0  4 17 23 16 03
  20425631.830      101693.551 3     79241.912 3
  21613711.442    -1288036.542 3  -1003663.512 2
  24647398.859     1962584.990 2   1529285.654 1
  20556789.830      560440.583 3    436706.514 2
 91  8 13  0 32 30.0000000  0  4 17 23 16 03
  20426380.112      105622.103 3     82303.122 3
  21607569.594    -1320297.602 3  -1028801.985 2
  24657932.665     2017979.481 2   1572450.138 1
  20560092.345      577776.772 3    450215.221 2
 91  8 13  0 32 45.0000000  0  4 17 23 16 03
  20427140.087      109614.134 3     85413.800 3
  21601449.628    -1352470.802 3  -1053871.968 2
  24668483.268     2073388.023 2   1615625.578 1
  20563412.842      595224.163 3    463810.599 2
 91  8 13  0 33  0.0000000  0  4 17 23 16 03
  20427910.549      113666.572 3     88571.544 3
  21595340.455    -1384559.243 3  -1078875.928 2
  24679036.261     2128807.397 2   1658809.483 1
  20566751.330      612779.859 3    477490.360 2
 91  8 13  0 33 15.0000000  0  4 17 23 16 03
  20428695.713      117781.430 3     91777.922 3
  21589254.674    -1416560.521 3  -1103811.939 2
  24689578.461     2184239.313 2   1702003.064 1
  20570109.311      630445.876 3    491256.080 2
 91  8 13  0 33 30.0000000  0  4 17 23 16 03
  20429489.855      121963.075 3     95036.349 3
  21583184.171    -1448470.326 3  -1128676.678 2
  24700117.965     2239687.296 2   1745209.290 1
  20573493.964      648226.549 3    505111.156 2
 91  8 13  0 33 45.0000000  0  4 17 23 16 03
  20430299.597      126215.842 3     98350.190 3
  21577131.362    -1480284.201 3  -1153466.679 2
  24710676.655     2295155.910 2   1788431.564 1
  20576909.198      666126.347 3    519059.060 2
 91  8 13  0 34  0.0000000  0  4 17 23 16 03
  20431124.922      130555.850 3    101732.010 3
  21571095.044    -1511985.465 3  -1178168.927 2
  24721250.335     2350661.115 2   1831682.395 1
  20580338.227      684161.700 3    533112.576 2
 91  8 13  0 34 15.0000000  0  4 17 23 16 03
  20431965.848      134975.642 3    105176.005 3
  21565081.507    -1543581.397 3  -1202789.120 2
  24731825.813     2406195.146 2   1874955.591 1
  20583792.140      702325.396 3    547266.097 2
 91  8 13  0 34 30.0000000  0  4 17 23 16 03
  20432820.857      139478.955 3    108685.084 3
  21559091.650    -1575068.350 3  -1227324.362 2
  24742388.404     2461761.547 2   1918253.927 1
  20587272.132      720621.191 3    561522.562 2
 91  8 13  0 34 45.0000000  0  4 17 23 16 03
  20433691.448      144049.299 3    112246.403 3
  21553117.088    -1606462.576 3  -1251787.334 2
  24752962.084     2517343.757 2   1961564.898 1
  20590774.007      739032.526 3    575869.045 2
 91  8 13  0 35  0.0000000  0  4 17 23 16 03
  20434577.038      148694.686 3    115866.179 3
  21547161.712    -1637756.017 3  -1276171.816 2
  24763546.854     2572949.315 2   2004893.785 1
  20594301.961      757567.665 3    590312.015 2
 91  8 13  0 35 15.0000000  0  3 17 23 03
  20435473.717      153408.911 3    119539.603 3
  21541225.218    -1668954.521 3  -1300482.287 2
  20597855.401      776220.483 3    604846.678 2
 91  8 13  0 35 30.0000000  0  3 17 23 03
  20436382.089      158190.541 3    123265.547 3
  21535307.919    -1700059.354 3  -1324719.794 2
  20601429.825      794989.697 3    619472.014 2
 91  8 13  0 35 45.0000000  0  3 17 23 03
  20437308.145      163037.294 4    127042.239 3
  21529402.303    -1731072.498 3  -1348885.854 2
  20605017.442      813873.256 3    634186.475 2
 91  8 13  0 36  0.0000000  0  3 17 23 03
  20438239.001      167947.951 3    130868.722 3
  21523520.978    -1761994.842 3  -1372981.156 2
  20608634.139      832870.133 3    648989.240 2
 91  8 13  0 36 15.0000000  0  3 17 23 03
  20439188.441      172922.611 3    134745.076 3
  21517656.439    -1792826.344 3  -1397005.673 2
  20612267.021      851980.380 3    663880.333 2
 91  8 13  0 36 30.0000000  0  3 17 23 03
  20440147.182      177964.748 3    138674.007 3
  21511803.889    -1823563.521 3  -1420956.702 2
  20615928.993      871207.343 3    678862.367 2
 91  8 13  0 36 45.0000000  0  3 17 23 03
  20441119.107      183073.058 3    142654.505 3
  21505974.426    -1854207.169 3  -1444834.823 2
  20619610.143      890550.209 3    693934.723 2
 91  8 13  0 37  0.0000000  0  3 17 23 03
  20442102.427      188246.198 3    146685.534 3
  21500159.952    -1884758.623 3  -1468641.106 2
  20623311.377      910007.660 3    709096.373 2
 91  8 13  0 37 15.0000000  0  3 17 23 03
  20443101.033      193480.209 3    150763.987 3
  21494361.664    -1915221.602 3  -1492378.436 2
  20627034.198      929575.733 3    724344.217 2
 91  8 13  0 37 30.0000000  0  3 17 23 03
  20444106.541      198777.122 3    154891.451 3
  21488581.663    -1945593.688 3  -1516044.950 2
  20630779.207      949256.763 3    739680.075 2
 91  8 13  0 37 45.0000000  0  3 17 23 03
  20445124.936      204137.423 3    159068.313 3
  21482820.552    -1975874.327 3  -1539640.204 2
  20634549.396      969051.450 3    755104.508 2
 91  8 13  0 38  0.0000000  0  3 17 23 03
  20446158.320      209561.671 3    163294.996 3
  21477072.328    -2006062.770 3  -1563163.600 2
  20638338.179      988960.273 3    770617.855 2
 91  8 13  0 38 15.0000000  0  3 17 23 03
  20447204.897      215046.109 3    167568.579 3
  21471351.397    -2036162.641 3  -1586617.990 2
  20642146.436     1008979.460 3    786217.223 2
 91  8 13  0 38 30.0000000  0  3 17 23 03
  20448257.468      220591.391 3    171889.568 3
  21465634.051    -2066173.262 3  -1610002.821 2
  20645976.287     1029109.971 3    801903.329 2
 91  8 13  0 38 45.0000000  0  3 17 23 03
  20449324.723      226199.431 3    176259.472 3
  21459943.386    -2096092.388 3  -1633316.373 2
  20649827.725     1049353.720 3    817677.678 2
 91  8 13  0 39  0.0000000  0  3 17 23 03
  20450404.883      231868.505 3    180676.937 3
  21454268.916    -2125921.589 3  -1656559.854 2
  20653703.741     1069709.157 3    833539.055 1
 91  8 13  0 39 15.0000000  0  3 17 23 03
  20451494.326      237596.099 3    185139.993 3
  21448605.535    -2155663.319 3  -1679735.201 2
  20657598.342     1090173.793 3    849485.519 2
 91  8 13  0 39 30.0000000  0  3 17 23 03
  20452595.766      243385.971 3    189651.589 3
  21442962.545    -2185313.650 3  -1702839.331 2
  20661510.035     1110751.607 3    865520.163 2
 91  8 13  0 39 45.0000000  0  3 17 23 03
  20453707.092      249236.838 3    194210.703 2
  21437341.734    -2214873.702 3  -1725873.106 2
  20665455.599     1131441.219 3    881641.935 2
 91  8 13  0 40  0.0000000  0  3 17 23 03
  20454834.315      255147.394 3    198816.332 3
  21431732.919    -2244344.511 3  -1748837.350 2
  20669407.471     1152241.447 3    897849.908 2
 91  8 13  0 40 15.0000000  0  3 17 23 03
  20455969.024      261119.401 3    203469.838 3
  21426141.791    -2273724.035 3  -1771730.464 2
  20673389.314     1173154.521 3    914145.790 1
 91  8 13  0 40 30.0000000  0  3 17 23 03
  20457119.029      267149.788 3    208168.838 3
  21420567.747    -2303014.985 3  -1794554.537 2
  20677385.842     1194177.390 3    930527.240 2
 91  8 13  0 40 45.0000000  0  3 17 23 03
  20458277.426      273238.048 3    212912.939 3
  21415009.599    -2332217.802 3  -1817309.957 2
  20681409.958     1215309.720 3    946993.986 2
 91  8 13  0 41  0.0000000  0  3 17 23 03
  20459448.415      279385.384 3    217703.068 3
  21409471.528    -2361331.438 3  -1839995.883 2
  20685448.462     1236552.354 3    963546.677 2
 91  8 13  0 41 15.0000000  0  3 17 23 03
  20460625.100      285588.248 3    222536.470 3
  21403946.353    -2390359.122 3  -1862614.848 2
  20689516.046     1257901.993 3    980182.760 2
 91  8 13  0 41 30.0000000  0  3 17 23 03
  20461816.776      291849.437 3    227415.317 3
  21398442.467    -2419298.120 3  -1885164.694 2
  20693599.223     1279361.460 3    996904.421 2
 91  8 13  0 41 45.0000000  0  3 17 23 03
  20463018.345      298170.162 3    232340.552 3
  21392951.172    -2448146.803 3  -1907644.153 2
  20697702.476     1300932.134 3   1013712.729 2
 91  8 13  0 42  0.0000000  0  3 17 23 03
  20464234.006      304545.762 3    237308.560 3
  21387478.155    -2476909.716 3  -1930056.779 2
  20701829.121     1322609.693 3   1030604.336 2
 91  8 13  0 42 15.0000000  0  3 17 23 03
  20465458.959      310976.673 3    242319.665 3
  21382021.332    -2505586.201 3  -1952402.066 2
  20705977.954     1344394.475 3   1047579.487 2
 91  8 13  0 42 30.0000000  0  3 17 23 03
  20466695.298      317465.359 3    247375.775 3
  21376573.802    -2534173.758 3  -1974678.058 2
  20710136.969     1366288.946 3   1064640.111 2
 91  8 13  0 42 45.0000000  0  3 17 23 03
  20467939.141      324013.021 3    252477.852 3
  21371155.658    -2562670.907 3  -1996883.605 2
  20714326.574     1388294.593 3   1081787.367 2
 91  8 13  0 43  0.0000000  0  3 17 23 03
  20469197.668      330623.523 3    257628.885 3
  21365749.196    -2591073.678 3  -2019015.601 2
  20718539.554     1410415.139 3   1099024.145 2
 91  8 13  0 43 15.0000000  0  3 17 23 03
  20470464.292      337293.406 3    262826.195 3
  21360364.626    -2619385.103 3  -2041076.432 2
  20722766.930     1432647.536 3   1116348.094 2
 91  8 13  0 43 30.0000000  0  3 17 23 03
  20471745.906      344024.009 3    268070.815 3
  21354996.547    -2647604.057 3  -2063065.197 2
  20727016.782     1454992.882 3   1133760.040 2
 91  8 13  0 43 45.0000000  0  3 17 23 03
  20473038.906      350812.820 3    273360.801 3
  21349638.955    -2675732.592 3  -2084983.508 2
  20731297.522     1477449.046 3   1151258.357 2
 91  8 13  0 44  0.0000000  0  3 17 23 03
  20474346.006      357664.648 3    278699.892 3
  21344308.646    -2703766.196 3  -2106827.858 2
  20735589.952     1500020.540 3   1168846.530 2
 91  8 13  0 44 15.0000000  0  3 17 23 03
  20475657.896      364576.263 3    284085.579 3
  21338988.528    -2731707.623 3  -2128600.357 2
  20739906.962     1522704.463 3   1186522.331 1
 91  8 13  0 44 30.0000000  0  3 17 23 03
  20476979.680      371548.669 3    289518.623 3
  21333686.995    -2759555.759 3  -2150300.185 2
  20744242.861     1545501.807 3   1204286.488 1
 91  8 13  0 44 45.0000000  0  3 17 23 03
  20478321.549      378584.447 3    295001.038 3
  21328409.753    -2787307.834 3  -2171925.171 2
  20748605.136     1568415.235 3   1222141.109 2
 91  8 13  0 45  0.0000000  0  3 17 23 03
  20479673.915      385680.706 3    300530.594 3
  21323146.296    -2814966.485 3  -2193477.338 2
  20752984.504     1591442.212 3   1240084.199 2
 91  8 13  0 45 15.0000000  0  3 17 23 03
  20481037.676      392836.665 3    306106.658 3
  21317899.626    -2842532.213 3  -2214957.111 2
  20757387.560     1614581.969 3   1258115.182 2
 91  8 13  0 45 30.0000000  0  3 17 23 03
  20482408.320      400050.970 3    311728.198 3
  21312669.447    -2870006.482 3  -2236365.614 2
  20761810.702     1637833.208 3   1276233.024 2
 91  8 13  0 45 45.0000000  0  3 17 23 03
  20483795.168      407326.154 3    317397.173 3
  21307459.353    -2897386.662 3  -2257700.803 2
  20766259.617     1661198.240 3   1294439.543 1
 91  8 13  0 46  0.0000000  0  3 17 23 03
  20485189.501      414664.589 3    323115.428 3
  21302270.845    -2924670.327 3  -2278960.781 2
  20770725.329     1684679.624 3   1312736.722 1
 91  8 13  0 46 15.0000000  0  3 17 23 03
  20486597.027      422065.091 3    328882.060 3
  21297094.028    -2951858.353 3  -2300146.230 2
  20775217.416     1708276.171 3   1331123.633 2
 91  8 13  0 46 30.0000000  0  3 17 23 03
  20488012.344      429521.848 3    334692.527 3
  21291942.698    -2978956.388 3  -2321261.577 2
  20779726.596     1731982.317 3   1349595.944 1
 91  8 13  0 46 45.0000000  0  3 17 23 03
  20489447.450      437039.470 3    340550.407 3
  21286797.353    -3005959.731 3  -2342303.119 2
  20784263.051     1755802.737 3   1368157.308 2
 91  8 13  0 47  0.0000000  0  3 17 23 03
  20490890.653      444615.767 3    346454.013 3
  21281680.199    -3032870.299 3  -2363272.368 2
  20788816.598     1779735.507 3   1386806.208 1
 91  8 13  0 47 15.0000000  0  3 17 23 03
  20492344.047      452251.507 3    352403.931 3
  21276573.837    -3059687.346 3  -2384168.759 2
  20793386.635     1803781.108 3   1405543.043 2
 91  8 13  0 47 30.0000000  0  3 17 23 03
  20493808.836      459943.340 3    358397.575 3
  21271490.554    -3086413.969 3  -2404994.668 2
  20797986.652     1827936.377 3   1424365.337 1
 91  8 13  0 47 45.0000000  0  3 17 23 03
  20495280.814      467695.020 3    364437.836 3
  21266424.058    -3113046.211 3  -2425747.049 2
  20802608.552     1852205.208 3   1443276.125 2
 91  8 13  0 48  0.0000000  0  3 17 23 03
  20496766.281      475504.553 3    370523.183 3
  21261372.857    -3139585.841 3  -2446427.263 2
  20807246.340     1876585.781 3   1462273.970 1
 91  8 13  0 48 15.0000000  0  3 17 23 03
  20498263.449      483375.131 3    376656.105 3
  21256337.247    -3166029.669 3  -2467032.818 2
  20811910.818     1901081.205 3   1481361.311 2
 91  8 13  0 48 30.0000000  0  3 17 23 03
  20499774.105      491307.081 3    382836.845 3
  21251321.112    -3192377.230 3  -2487563.377 2
  20816589.378     1925691.905 3   1500538.468 2
 91  8 13  0 48 45.0000000  0  3 17 23 03
  20501299.150      499299.922 3    389065.032 3
  21246330.769    -3218628.909 3  -2508019.205 2
  20821300.911     1950417.250 3   1519804.963 2
 91  8 13  0 49  0.0000000  0  3 17 23 03
  20502831.087      507355.063 3    395341.768 3
  21241357.213    -3244783.240 3  -2528399.192 2
  20826023.847     1975258.891 3   1539162.091 1
 91  8 13  0 49 15.0000000  0  3 17 23 03
  20504370.222      515466.417 3    401662.299 3
  21236392.652    -3270846.225 3  -2548707.990 2
  20830770.455     2000210.581 3   1558604.966 1
 91  8 13  0 49 30.0000000  0  3 17 23 03
  20505929.443      523640.581 3    408031.775 3
  21231456.264    -3296810.936 3  -2568940.217 2
  20835541.056     2025279.153 3   1578138.922 2
 91  8 13  0 49 45.0000000  0  3 17 23 03
  20507495.259      531876.743 3    414449.567 3
  21226530.382    -3322678.033 3  -2589096.384 2
  20840334.134     2050463.955 3   1597763.442 2
 91  8 13  0 50  0.0000000  0  3 17 23 03
  20509074.862      540175.482 3    420916.111 3
  21221630.570    -3348446.761 3  -2609175.890 2
  20845150.900     2075765.596 3   1617478.996 2
 91  8 13  0 50 15.0000000  0  3 17 23 03
  20510664.359      548536.014 3    427430.811 3
  21216744.553    -3374117.969 3  -2629179.417 2
  20849985.352     2101183.084 3   1637284.808 2
 91  8 13  0 50 30.0000000  0  3 17 23 03
  20512266.454      556953.659 3    433990.015 3
  21211873.525    -3399696.149 3  -2649110.441 2
  20854841.093     2126712.052 3   1657177.520 1
 91  8 13  0 50 45.0000000  0  3 17 23 03
  20513878.741      565426.933 3    440592.574 3
  21207021.684    -3425182.478 3  -2668969.901 2
  20859722.914     2152350.930 3   1677155.868 2
 91  8 13  0 51  0.0000000  0  3 17 23 03
  20515503.313      573963.283 3    447244.282 3
  21202194.727    -3450569.322 3  -2688751.848 2
  20864624.218     2178107.398 3   1697225.815 2
 91  8 13  0 51 15.0000000  0  3 17 23 03
  20517141.679      582560.076 3    453943.075 3
  21197378.860    -3475859.440 3  -2708458.408 2
  20869545.615     2203978.726 3   1717385.301 1
 91  8 13  0 51 30.0000000  0  3 17 23 03
  20518787.243      591216.633 3    460688.451 3
  21192587.580    -3501053.451 3  -2728090.090 2
  20874489.192     2229964.273 3   1737633.757 1
 91  8 13  0 51 45.0000000  0  3 17 23 03
  20520444.796      599935.462 3    467482.344 3
  21187812.179    -3526148.657 3  -2747644.785 2
  20879462.452     2256066.593 3   1757973.218 2
 91  8 13  0 52  0.0000000  0  3 17 23 03
  20522115.532      608718.296 3    474326.112 3
  21183055.677    -3551143.155 3  -2767121.003 2
  20884449.497     2282287.391 3   1778405.006 2
 91  8 13  0 52 15.0000000  0  3 17 23 03
  20523794.976      617544.917 3    481203.991 3
  21178314.462    -3576056.877 3  -2786534.272 2
  20889454.534     2308606.746 3   1798913.586 2
 91  8 13  0 52 30.0000000  0  3 17 23 03
  20525484.000      626422.132 3    488121.298 3
  21173591.229    -3600882.986 3  -2805879.277 2
  20894484.149     2335031.479 3   1819504.281 1
 91  8 13  0 52 45.0000000  0  3 17 23 03
  20527185.623      635359.460 3    495085.453 3
  21168887.785    -3625612.022 3  -2825148.642 2
  20899539.250     2361570.921 3   1840184.352 2
 91  8 13  0 53  0.0000000  0  3 17 23 03
  20528897.437      644358.349 3    502097.580 3
  21164195.735    -3650242.338 3  -2844341.086 2
  20904606.340     2388226.600 3   1860955.002 2
 91  8 13  0 53 15.0000000  0  3 17 23 03
  20530623.342      653415.893 3    509155.407 3
  21159529.765    -3674776.738 3  -2863458.783 2
  20909702.815     2414995.600 3   1881813.974 2
 91  8 13  0 53 30.0000000  0  3 17 23 03
  20532355.546      662533.486 3    516260.026 3
  21154877.284    -3699213.633 3  -2882500.500 2
  20914816.977     2441879.412 3   1902762.387 2
 91  8 13  0 53 45.0000000  0  3 17 23 03
  20534103.936      671712.561 3    523412.555 3
  21150246.685    -3723551.511 3  -2901465.068 2
  20919954.513     2468879.500 3   1923801.407 2
 91  8 13  0 54  0.0000000  0  3 17 23 03
  20535861.618      680954.315 3    530613.917 3
  21145632.883    -3747788.954 3  -2920351.377 2
  20925116.942     2495997.245 3   1944932.109 1
 91  8 13  0 54 15.0000000  0  3 17 23 03
  20537637.291      690255.404 3    537861.514 3
  21141041.259    -3771929.151 3  -2939161.893 2
  20930296.158     2523229.407 3   1966151.979 2
 91  8 13  0 54 30.0000000  0  3 17 23 03
  20539414.159      699615.639 3    545155.204 3
  21136465.228    -3795972.131 3  -2957896.692 2
  20935500.257     2550575.737 3   1987460.797 2
 91  8 13  0 54 45.0000000  0  3 17 23 03
  20541205.721      709035.040 3    552495.007 3
  21131908.688    -3819917.767 3  -2976555.613 2
  20940731.632     2578036.230 3   2008858.582 1
 91  8 13  0 55  0.0000000  0  3 17 23 03
  20543007.473      718516.468 3    559883.135 3
  21127370.122    -3843763.418 3  -2995136.613 2
  20945978.598     2605613.804 3   2030347.581 1
 91  8 13  0 55 15.0000000  0  3 17 23 03
  20544828.116      728073.447 3    567330.139 3
  21122854.049    -3867495.318 3  -3013628.994 2
  20951245.955     2633322.051 3   2051938.437 2
 91  8 13  0 55 30.0000000  0  3 17 23 03
  20546657.143      737681.496 3    574816.926 3
  21118357.765    -3891137.719 3  -3032051.635 2
  20956542.088     2661136.437 3   2073611.976 2
 91  8 13  0 55 45.0000000  0  3 17 23 03
  20548497.268      747348.258 3    582349.470 3
  21113877.064    -3914682.913 3  -3050398.523 2
  20961857.110     2689064.636 3   2095374.192 1
 91  8 13  0 56  0.0000000  0  3 17 23 03
  20550348.187      757079.500 3    589932.248 3
  21109414.659    -3938124.992 3  -3068665.058 2
  20967194.015     2717112.394 3   2117229.592 1
 91  8 13  0 56 15.0000000  0  3 17 23 03
  20552212.603      766873.525 3    597563.956 3
  21104975.629    -3961465.276 3  -3086852.291 2
  20972555.202     2745278.214 3   2139176.971 2
 91  8 13  0 56 30.0000000  0  3 17 23 03
  20554087.803      776729.993 3    605244.315 3
  21100551.894    -3984704.440 3  -3104960.719 2
  20977932.582     2773561.780 3   2161216.110 2
 91  8 13  0 56 45.0000000  0  3 17 23 03
  20555972.898      786647.517 3    612972.259 3
  21096148.838    -4007843.515 3  -3122991.144 2
  20983340.832     2801961.618 3   2183345.840 2
 91  8 13  0 57  0.0000000  0  3 17 23 03
  20557874.178      796624.870 3    620746.827 3
  21091763.773    -4030883.719 3  -3140944.544 2
  20988770.380     2830476.415 3   2205565.155 2
 91  8 13  0 57 15.0000000  0  3 17 23 03
  20559785.657      806663.310 4    628568.978 3
  21087398.801    -4053823.705 3  -3158819.846 2
  20994210.110     2859107.436 3   2227875.036 2
 91  8 13  0 57 30.0000000  0  3 17 23 03
  20561708.523      816758.686 3    636435.513 3
  21083051.804    -4076667.446 3  -3176620.141 2
  20999681.321     2887850.965 3   2250272.577 1
 91  8 13  0 57 45.0000000  0  3 17 23 03
  20563645.785      826930.812 3    644361.840 3
  21078727.300    -4099395.209 3  -3194330.081 2
  21005177.720     2916726.271 3   2272772.807 2
 91  8 13  0 58  0.0000000  0  3 17 23 03
  20565588.736      837161.061 3    652333.466 3
  21074420.778    -4122025.457 3  -3211964.024 2
  21010695.095     2945714.865 3   2295361.314 2
 91  8 13  0 58 15.0000000  0  3 17 23 03
  20567544.286      847444.668 3    660346.652 3
  21070132.247    -4144562.646 3  -3229525.457 2
  21016233.768     2974812.026 3   2318034.425 2
 91  8 13  0 58 30.0000000  0  3 17 23 03
  20569512.121      857784.521 3    668403.676 3
  21065860.207    -4167003.940 3  -3247012.167 2
  21021789.516     3004020.660 3   2340794.385 2
 91  8 13  0 58 45.0000000  0  3 17 23 03
  20571488.654      868178.022 3    676502.507 3
  21061607.955    -4189351.757 3  -3264426.039 2
  21027368.656     3033338.464 3   2363639.426 2
 91  8 13  0 59  0.0000000  0  3 17 23 03
  20573481.077      878627.485 3    684644.949 3
  21057373.084    -4211603.818 3  -3281765.296 2
  21032967.279     3062767.513 3   2386571.126 1
 91  8 13  0 59 15.0000000  0  3 17 23 03
  20575478.289      889130.796 3    692829.350 3
  21053157.103    -4233762.307 3  -3299031.627 2
  21038589.286     3092305.685 3   2409587.894 2
 91  8 13  0 59 30.0000000  0  3 17 23 03
  20577487.202      899687.070 3    701055.018 3
  21048957.612    -4255827.687 3  -3316225.432 2
  21044229.886     3121952.146 3   2432689.016 2
 91  8 13  0 59 45.0000000  0  3 17 23 03
  20579505.703      910299.449 3    709324.411 3
  21044774.908    -4277796.766 3  -3333344.176 2
  21049894.758     3151710.205 3   2455877.099 2
 91  8 13  1  0  0.0000000  0  3 17 23 03
  20581536.498      920964.385 3    717634.749 3
  21040616.181    -4299673.070 3  -3350390.641 2
  21055576.427     3181576.158 3   2479149.271 2
 91  8 13  1  0 15.0000000  0  3 17 23 03
  20583570.295      931680.618 3    725985.055 3
  21036467.959    -4321457.507 3  -3367365.508 2
  21061279.979     3211548.854 3   2502504.605 2
 91  8 13  1  0 30.0000000  0  3 17 23 03
  20585626.864      942449.595 3    734376.461 3
  21032341.916    -4343149.134 3  -3384268.065 2
  21067002.114     3241629.285 3   2525943.901 1
 91  8 13  1  0 45.0000000  0  3 17 23 03
  20587682.247      953270.529 3    742808.356 3
  21028231.456    -4364748.247 3  -3401098.532 2
  21072749.736     3271817.165 3   2549466.911 2
 91  8 13  1  1  0.0000000  0  3 17 23 03
  20589753.509      964141.699 3    751279.400 3
  21024140.794    -4386256.507 3  -3417858.204 2
  21078514.747     3302110.851 3   2573072.373 2
 91  8 13  1  1 15.0000000  0  3 17 23 03
  20591828.977      975062.914 3    759789.442 3
  21020064.815    -4407674.165 3  -3434547.277 2
  21084301.937     3332509.737 3   2596759.799 1
 91  8 13  1  1 30.0000000  0  3 17 23 03
  20593920.325      986038.247 3    768341.640 3
  21016005.319    -4428996.888 3  -3451162.370 2
  21090110.120     3363018.198 3   2620532.639 2
 91  8 13  1  1 45.0000000  0  3 17 23 03
  20596018.277      997066.072 3    776934.757 3
  21011968.316    -4450226.025 3  -3467704.543 2
  21095933.293     3393634.714 3   2644389.652 1
 91  8 13  1  2  0.0000000  0  3 17 23 03
  20598130.914     1008147.873 3    785569.928 3
  21007945.700    -4471360.436 3  -3484172.903 2
  21101775.041     3424360.285 3   2668331.631 1
 91  8 13  1  2 15.0000000  0  3 17 23 03
  20600245.645     1019281.036 3    794245.116 3
  21003938.074    -4492402.568 3  -3500569.352 2
  21107647.380     3455192.567 3   2692356.795 1
 91  8 13  1  2 30.0000000  0  3 17 23 03
  20602372.373     1030464.765 3    802959.702 3
  20999951.433    -4513352.917 3  -3516894.288 2
  21113534.403     3486130.822 3   2716464.509 2
 91  8 13  1  2 45.0000000  0  3 17 23 03
  20604512.293     1041700.391 3    811714.731 3
  20995983.986    -4534210.429 3  -3533146.887 2
  21119443.011     3517176.137 3   2740655.676 2
 91  8 13  1  3  0.0000000  0  3 17 23 03
  20606656.410     1052984.022 3    820507.177 3
  20992030.316    -4554978.363 3  -3549329.676 2
  21125368.416     3548324.734 3   2764927.304 1
 91  8 13  1  3 15.0000000  0  3 17 23 03
  20608815.516     1064319.873 3    829340.296 3
  20988097.046    -4575652.754 3  -3565439.586 2
  21131313.295     3579580.922 3   2789282.769 2
 91  8 13  1  3 30.0000000  0  3 17 23 03
  20610980.914     1075708.322 3    838214.410 3
  20984180.851    -4596233.092 3  -3581476.193 3
  21137287.857     3610944.969 3   2813722.263 1
 91  8 13  1  3 45.0000000  0  3 17 23 03
  20613157.410     1087146.849 3    847127.541 3
  20980280.553    -4616721.776 3  -3597441.395 3
  21143273.814     3642414.331 3   2838243.848 1
 91  8 13  1  4  0.0000000  0  3 17 23 03
  20615346.191     1098637.465 3    856081.275 3
  20976403.934    -4637116.817 3  -3613333.626 2
  21149281.060     3673990.965 3   2862849.011 1
 91  8 13  1  4 15.0000000  0  3 17 23 03
  20617543.374     1110180.030 3    865075.484 3
  20972540.212    -4657418.477 3  -3629153.085 2
  21155309.587     3705674.686 3   2887537.609 1
 91  8 13  1  4 30.0000000  0  3 17 23 03
  20619750.748     1121775.081 3    874110.582 3
  20968692.980    -4677625.925 3  -3644899.133 2
  21161362.396     3737466.009 3   2912310.085 2
 91  8 13  1  4 45.0000000  0  3 17 23 03
  20621960.818     1133422.257 3    883186.302 3
  20964864.629    -4697739.308 3  -3660571.886 2
  21167434.993     3769364.693 3   2937166.212 1
 91  8 13  1  5  0.0000000  0  3 17 23 03
  20624191.270     1145121.821 3    892302.843 3
  20961057.558    -4717758.547 3  -3676171.293 2
  21173522.571     3801370.996 3   2962106.157 1
 91  8 13  1  5 15.0000000  0  3 17 23 03
  20626425.622     1156871.609 3    901458.522 3
  20957263.986    -4737685.507 3  -3691698.779 3
  21179632.346     3833482.743 3   2987128.303 1
 91  8 13  1  5 30.0000000  0  3 17 23 03
  20628671.369     1168671.993 3    910653.630 3
  20953490.202    -4757520.015 3  -3707154.227 3
  21185764.902     3865699.992 3   3012232.658 2
 91  8 13  1  5 45.0000000  0  3 17 23 03
  20630927.307     1180524.415 3    919889.268 3
  20949731.704    -4777260.212 3  -3722536.192 2
  21191914.246     3898024.403 3   3037420.484 2
 91  8 13  1  6  0.0000000  0  3 17 23 03
  20633191.935     1192427.836 3    929164.660 3
  20945995.691    -4796907.183 3  -3737845.501 3
  21198078.875     3930454.998 3   3062691.093 1
 91  8 13  1  6 15.0000000  0  3 17 23 03
  20635464.363     1204381.931 3    938479.547 3
  20942271.963    -4816461.464 3  -3753082.588 3
  21204277.987     3962990.984 3   3088043.799 1
 91  8 13  1  6 30.0000000  0  3 17 23 03
  20637751.485     1216387.647 3    947834.647 3
  20938568.634    -4835921.829 3  -3768246.497 2
  21210492.079     3995633.750 3   3113479.709 1
 91  8 13  1  6 45.0000000  0  4 21 17 23 03
  24464395.651           0.585 2         0.036 1
  20640048.789     1228445.398 3    957230.293 3
  20934885.382    -4855288.036 3  -3783337.038 3
  21216720.271     4028383.405 3   3138998.924 1
 91  8 13  1  7  0.0000000  0  4 21 17 23 03
  24455186.028      -48409.546 2    -37722.003 1
  20642348.204     1240554.014 3    966665.574 3
  20931216.220    -4874560.777 3  -3798354.755 2
  21222969.142     4061238.982 3   3164600.655 1
 91  8 13  1  7 15.0000000  0  4 21 17 23 03
  24445974.006      -96799.600 2    -75428.496 1
  20644664.694     1252713.885 3    976140.800 3
  20927565.949    -4893739.546 3  -3813299.225 2
  21229242.600     4094200.646 3   3190285.066 1
 91  8 13  1  7 30.0000000  0  4 21 17 23 03
  24436774.574     -145169.483 2   -113119.210 1
  20646989.587     1264925.104 3    985656.032 3
  20923937.560    -4912824.369 3  -3828170.512 2
  21235536.143     4127268.463 3   3216052.198 1
 91  8 13  1  7 45.0000000  0  4 21 17 23 03
  24427557.752     -193518.764 2   -150793.810 1
  20649326.467     1277187.826 3    995211.394 3
  20920321.465    -4931815.230 3  -3842968.576 3
  21241851.569     4160442.552 3   3241902.106 1
 91  8 13  1  8  0.0000000  0  4 21 17 23 03
  24418373.912     -241844.844 2   -188450.476 1
  20651667.850     1289504.196 3   1004808.574 3
  20916726.955    -4950709.688 3  -3857691.509 3
  21248184.392     4193725.243 3   3267836.673 1
 91  8 13  1  8 15.0000000  0  4 21 17 23 03
  24409189.173     -290147.281 2   -226088.611 1
  20654020.620     1301874.564 3   1014447.815 3
  20913150.429    -4969507.454 3  -3872339.112 2
  21254535.792     4227116.598 3   3293855.910 1
 91  8 13  1  8 30.0000000  0  4 21 17 23 03
  24399999.932     -338429.035 2   -263710.704 1
  20656383.885     1314295.661 3   1024126.597 3
  20909591.893    -4988211.685 3  -3886913.815 3
  21260914.771     4260613.425 3   3319957.335 1
 91  8 13  1  8 45.0000000  0  4 21 17 23 03
  24390805.299     -386690.094 2   -301316.619 1
  20658756.740     1326767.389 3   1033844.822 3
  20906049.839    -5006822.381 3  -3901415.656 2
  21267301.551     4294215.622 3   3346140.849 1
 91  8 13  1  9  0.0000000  0  4 21 17 23 03
  24381626.851     -434929.137 2   -338905.447 1
  20661143.388     1339291.014 3   1043603.490 3
  20902528.184    -5025338.320 3  -3915843.648 3
  21273725.805     4327924.345 3   3372407.394 1
 91  8 13  1  9 15.0000000  0  4 21 17 23 03
  24372449.607     -483143.196 2   -376474.744
  20663535.735     1351869.157 3   1053404.647 3
  20899020.909    -5043756.819 3  -3930195.721 3
  21280159.953     4361742.078 3   3398758.854 1
 91  8 13  1  9 30.0000000  0  4 21 17 23 03
  24363283.453     -531334.275 2   -414026.215 1
  20665939.171     1364499.577 3   1063246.531 3
  20895535.821    -5062079.988 3  -3944473.501 2
  21286608.786     4395666.700 3   3425193.616 1
 91  8 13  1  9 45.0000000  0  4 21 17 23 03
  24354111.295     -579501.446 2   -451558.977 1
  20668353.094     1377183.184 3   1073129.854 3
  20892066.020    -5080306.968 3  -3958676.316 3
  21293089.099     4429699.108 3   3451712.375 1
 91  8 13  1 10  0.0000000  0  4 21 17 23 03
  24344943.047     -627644.397 2   -489072.899 1
  20670774.225     1389920.193 3   1083054.796 3
  20888614.210    -5098437.513 3  -3972804.016 2
  21299582.010     4463839.259 3   3478315.083 1
 91  8 13  1 10 15.0000000  0  4 21 17 23 03
  24335785.888     -675762.171 2   -526567.129 1
  20673210.633     1402711.394 3   1093021.961 3
  20885183.986    -5116470.835 3  -3986855.940 3
  21306099.492     4498087.988 3   3505002.400 1
 91  8 13  1 10 30.0000000  0  4 21 17 23 03
  24326645.813     -723853.956 2   -564041.156 1
  20675653.044     1415557.382 3   1103031.826 3
  20881771.752    -5134406.170 3  -4000831.524 3
  21312637.967     4532445.719 3   3531774.666 1
 91  8 13  1 10 45.0000000  0  4 21 17 23 03
  24317502.440     -771921.003 2   -601495.945 1
  20678107.740     1428456.615 3   1113083.180 3
  20878378.104    -5152244.910 3  -4014731.824 2
  21319198.629     4566911.058 3   3558630.771 1
 91  8 13  1 11  0.0000000  0  4 21 17 23 03
  24308349.783     -819962.561 2   -638930.789 1
  20680573.534     1441409.544 3   1123176.363 3
  20875001.234    -5169986.637 3  -4028556.530 3
  21325774.569     4601484.370 3   3585571.008 1
 91  8 13  1 11 15.0000000  0  4 21 17 23 03
  24299231.591     -867978.327 2   -676345.622 1
  20683049.223     1454416.295 3   1133311.507 3
  20871642.364    -5187631.044 3  -4042305.412 2
  21332376.004     4636165.721 3   3612595.416 1
 91  8 13  1 11 30.0000000  0  4 21 17 23 03
  24290096.620     -915968.589 2   -713740.581 1
  20685537.501     1467476.482 3   1143488.278 3
  20868303.570    -5205178.534 3  -4055978.768 2
  21338998.719     4670954.617 3   3639703.647 1
 91  8 13  1 11 45.0000000  0  4 21 17 23 03
  24280962.539     -963932.866 2   -751115.316 1
  20688029.375     1480590.431 3   1153706.935 3
  20864983.369    -5222628.727 3  -4069576.334 2
  21345638.824     4705851.231 3   3666895.815 1
 91  8 13  1 12  0.0000000  0  4 21 17 23 03
  24271842.549    -1011870.762 2   -788469.463 1
  20690538.638     1493758.228 3   1163967.551 3
  20861678.464    -5239981.630 3  -4083098.059 3
  21352298.412     4740855.767 3   3694172.064 1
 91  8 13  1 12 15.0000000  0  4 21 17 23 03
  24262726.765    -1059781.856 2   -825802.681 1
  20693047.901     1506980.227 3   1174270.416 3
  20858394.830    -5257237.020 3  -4096543.797 2
  21358982.883     4775968.320 3   3721532.485 2
 91  8 13  1 12 30.0000000  0  4 21 17 23 03
  24253618.772    -1107666.701 2   -863115.485 1
  20695579.351     1520255.651 3   1184614.905 3
  20855132.189    -5274395.549 3  -4109914.074 2
  21365683.549     4811188.138 3   3748976.499 1
 91  8 13  1 12 45.0000000  0  4 21 17 23 03
  24244504.480    -1155520.109 2   -900403.838 1
  20698116.491     1533589.310 3   1195004.761 3
  20851883.639    -5291452.058 3  -4123204.844 3
  21372403.689     4846520.103 3   3776507.893 1
 91  8 13  1 13  0.0000000  0  4 21 17 23 03
  24235404.575    -1203345.585 2   -937670.302 1
  20700658.429     1546977.658 3   1205437.236 3
  20848658.176    -5308410.225 3  -4136418.995 2
  21379152.621     4881960.664 3   3804123.907 2
 91  8 13  1 13 15.0000000  0  4 21 17 23 03
  24226302.882    -1251141.942 2   -974914.133 1
  20703220.461     1560421.916 3   1215913.287 3
  20845453.696    -5325268.768 3  -4149555.517 2
  21385914.441     4917510.660 3   3831825.186 1
 91  8 13  1 13 30.0000000  0  4 21 17 23 03
  24217216.170    -1298907.010 2  -1012133.651 1
  20705790.879     1573923.671 3   1226434.144 3
  20842260.001    -5342026.050 3  -4162613.120 2
  21392700.238     4953171.845 3   3859613.128 1
 91  8 13  1 13 45.0000000  0  4 21 17 23 03
  24208137.851    -1346643.440 2  -1049330.773 1
  20708368.197     1587480.172 3   1236997.649 3
  20839090.902    -5358684.647 3  -4175593.839 3
  21399513.029     4988941.368 3   3887485.453 1
 91  8 13  1 14  0.0000000  0  4 21 17 23 03
  24199053.843    -1394351.400 2  -1086505.745 1
  20710958.699     1601091.281 3   1247603.707 3
  20835938.581    -5375244.876 3  -4188497.899 3
  21406334.206     5024818.976 3   3915442.033 1
 91  8 13  1 14 15.0000000  0  4 21 17 23 03
  24189982.426    -1442032.094 2  -1123659.572 1
  20713561.495     1614755.683 3   1258251.299 3
  20832807.244    -5391708.142 3  -4201326.407 2
  21413184.158     5060803.174 3   3943481.670 1
 91  8 13  1 14 30.0000000  0  4 21 17 23 03
  24180911.602    -1489692.037 2  -1160797.049 1
  20716169.998     1628466.489 3   1268935.043 3
  20829689.702    -5408081.131 3  -4214084.574 2
  21420046.413     5096887.090 3   3971598.992 1
 91  8 13  1 14 45.0000000  0  4 21 17 23 03
  24171841.686    -1537317.036 2  -1197907.367 1
  20718787.783     1642237.781 3   1279665.921 3
  20826597.645    -5424349.812 3  -4226761.447 2
  21426935.340     5133084.693 3   3999804.924 1
 91  8 13  1 15  0.0000000  0  4 21 17 23 03
  24162788.548    -1584927.927 2  -1235006.733 1
  20721414.861     1656048.184 3   1290427.272 3
  20823516.382    -5440535.152 3  -4239373.402 3
  21433850.957     5169374.726 3   4028082.850 1
 91  8 13  1 15 15.0000000  0  4 21 17 23 03
  24153738.411    -1632510.270 2  -1272083.790 1
  20724054.835     1669912.344 3   1301230.519 3
  20820456.399    -5456622.853 3  -4251909.258 3
  21440768.668     5205771.577 3   4056444.016 1
 91  8 13  1 15 30.0000000  0  4 21 17 23 03
  24144696.371    -1680034.086 2  -1309115.253 1
  20726710.697     1683859.793 3   1312098.663 3
  20817415.899    -5472583.201 3  -4264345.882 2
  21447714.256     5242304.850 3   4084911.508 1
 91  8 13  1 15 45.0000000  0  4 21 17 23 03
  24135654.934    -1727518.096 2  -1346115.773 1
  20729375.555     1697871.936 3   1323017.218 3
  20814403.285    -5488435.018 3  -4276697.946 3
  21454706.018     5278955.613 3   4113470.524 2
 91  8 13  1 16  0.0000000  0  4 21 17 23 03
  24126621.890    -1774967.368 2  -1383089.190 1
  20732053.299     1711943.313 3   1333981.917 3
  20811401.463    -5504183.598 3  -4288969.552 2
  21461697.177     5315718.638 3   4142117.040 1
 91  8 13  1 16 15.0000000  0  4 21 17 23 03
  24117602.928    -1822382.167 2  -1420035.729 1
  20734744.236     1726073.531 3   1344992.488 3
  20808428.121    -5519829.207 3  -4301160.929 3
  21468706.327     5352593.212 3   4170850.478 1
 91  8 13  1 16 30.0000000  0  4 21 17 23 03
  24108587.569    -1869762.913 2  -1456955.662 1
  20737442.668     1740261.821 3   1356048.290 3
  20805467.674    -5535372.446 3  -4313272.531 2
  21475745.152     5389578.822 3   4199670.407 1
 91  8 13  1 16 45.0000000  0  4 21 17 23 03
  24099574.008    -1917107.365 2  -1493847.414 1
  20740154.886     1754510.348 3   1367151.037 3
  20802532.102    -5550811.206 3  -4325302.729 2
  21482808.258     5426677.474 3   4228578.449 1
 91  8 13  1 17  0.0000000  0  4 21 17 23 03
  24090578.142    -1964415.782 2  -1530711.036 1
  20742875.505     1768818.632 3   1378300.358 3
  20799613.623    -5566145.844 3  -4337251.793 3
  21489891.756     5463888.539 3   4257574.073 1
 91  8 13  1 17 15.0000000  0  4 21 17 23 03
  24081574.475    -2011685.452 2  -1567544.449 1
  20745612.607     1783189.414 3   1389498.371 3
  20796713.737    -5581374.052 3  -4349117.906 2
  21496996.839     5501214.340 3   4286659.100 1
 91  8 13  1 17 30.0000000  0  4 21 17 23 03
  24072587.892    -2058917.993 2  -1604348.994 1
  20748355.415     1797620.692 3   1400743.526 3
  20793836.327    -5596497.660 3  -4360902.528 2
  21504117.208     5538653.072 3   4315832.141 1
 91  8 13  1 17 45.0000000  0  4 21 17 23 03
  24063604.913    -2106112.288 2  -1641123.707 1
  20751112.602     1812113.407 3   1412036.552 3
  20790978.706    -5611515.456 3  -4372604.697 2
  21511260.664     5576205.580 3   4345093.851 1
 91  8 13  1 18  0.0000000  0  4 21 17 23 03
  24054627.029    -2153268.815 2  -1677868.959 1
  20753886.287     1826667.138 3   1423377.123 3
  20788140.873    -5626428.148 3  -4384224.975 3
  21518432.895     5613871.130 3   4374443.597 1
 91  8 13  1 18 15.0000000  0  4 21 17 23 03
  24045668.331    -2200385.471 2  -1714583.233 1
  20756668.062     1841283.488 3   1434766.486 3
  20785324.024    -5641233.976 3  -4395761.976 2
  21525622.219     5651651.667 3   4403882.974 1
 91  8 13  1 18 30.0000000  0  4 21 17 23 03
  24036713.229    -2247460.757 2  -1751265.208 1
  20759458.823     1855964.111 3   1446205.933 3
  20782528.752    -5655931.312 3  -4407214.429 2
  21532831.934     5689548.329 3   4433412.819 1
 91  8 13  1 18 45.0000000  0  4 21 17 23 03
  24027762.323    -2294495.697 2  -1787915.834 1
  20762266.083     1870707.887 3   1457694.585 3
  20779751.480    -5670521.337 3  -4418583.276 2
  21540061.123     5727560.147 3   4463032.426 1
 91  8 13  1 19  0.0000000  0  4 21 17 23 03
  24018809.925    -2341490.087 2  -1824534.746 1
  20765082.330     1885514.735 3   1469232.398 3
  20776994.887    -5685003.872 3  -4429868.347 2
  21547319.698     5765686.637 3   4492741.368 1
 91  8 13  1 19 15.0000000  0  4 21 17 23 03
  24009886.599    -2388443.252 2  -1861121.543 1
  20767913.575     1900384.946 3   1480819.570 3
  20774258.980    -5699378.625 3  -4441069.452 2
  21554595.968     5803928.572 3   4522540.283 1
 91  8 13  1 19 30.0000000  0  4 21 17 23 03
  24000963.282    -2435354.803 2  -1897675.975 1
  20770755.003     1915318.744 3   1492456.294 3
  20771541.659    -5713645.537 3  -4452186.515 2
  21561897.112     5842285.605 3   4552428.867 1
 91  8 13  1 19 45.0000000  0  4 21 17 23 03
  23992042.355    -2482224.748 2  -1934197.918 1
  20773610.225     1930315.728 3   1504142.251 3
  20768847.424    -5727804.735 3  -4463219.647 2
  21569214.146     5880757.524 3   4582406.972 1
 91  8 13  1 20  0.0000000  0  4 21 17 23 03
  23983128.025    -2529054.660 2  -1970688.712 1
  20776471.747     1945374.460 3   1515876.324 3
  20766172.977    -5741857.704 3  -4474170.009 2
  21576559.658     5919342.637 3   4612473.292 1
 91  8 13  1 20 15.0000000  0  4 21 17 23 03
  23974231.084    -2575842.565 2  -2007146.861 1
  20779351.251     1960497.002 3   1527660.131 2
  20763518.014    -5755802.577 3  -4485036.133 2
  21583919.863     5958042.800 3   4642629.229 1
 91  8 13  1 20 30.0000000  0  4 21 17 23 03
  23965323.655    -2622588.530 2  -2043572.156 1
  20782241.853     1975682.988 3   1539493.366 2
  20760890.037    -5769639.738 3  -4495818.320 2
  21591306.750     5996857.618 3   4672874.533 1
 91  8 13  1 20 45.0000000  0  4 21 17 23 03
  23956442.000    -2669292.247 2  -2079964.553 1
  20785140.544     1990932.191 3   1551375.855 3
  20758277.643    -5783369.267 3  -4506516.654 2
  21598716.121     6035786.840 3   4703209.011 1
 91  8 13  1 21  0.0000000  0  4 21 17 23 03
  23947564.848    -2715955.678 2  -2116325.600 1
  20788056.030     2006242.514 3   1563305.979 3
  20755684.140    -5796993.118 3  -4517132.633 2
  21606148.273     6074828.535 3   4733631.079 1
 91  8 13  1 21 15.0000000  0  4 21 17 23 03
  23938684.694    -2762576.791 2  -2152653.669 1
  20790981.105     2021616.123 3   1575285.410 2
  20753112.222    -5810509.492 3  -4527664.865 2
  21613599.019     6113984.106 3   4764141.930 1
 91  8 13  1 21 30.0000000  0  4 21 17 23 03
  23929822.531    -2809153.816 2  -2188947.394 1
  20793919.966     2037054.191 3   1587315.076 3
  20750560.686    -5823916.714 3  -4538112.034 2
  21621066.543     6153255.283 3   4794742.824 1
 91  8 13  1 21 45.0000000  0  4 21 17 23 03
  23920968.159    -2855689.159 2  -2225208.764 1
  20796866.933     2052554.461 3   1599393.199 3
  20748030.134    -5837217.352 3  -4548476.167 2
  21628563.759     6192639.361 3   4825431.703 1
 91  8 13  1 22  0.0000000  0  4 21 17 23 03
  23912115.891    -2902181.171 2  -2261436.208 1
  20799831.280     2068118.320 3   1611520.888 2
  20745517.878    -5850409.982 3  -4558756.129 2
  21636080.152     6232137.649 3   4856209.595 1
 91  8 13  1 22 15.0000000  0  4 21 17 23 03
  23903293.593    -2948628.470 2  -2297628.852 1
  20802806.420     2083747.072 3   1623699.128 2
  20743031.999    -5863493.311 3  -4568950.926 2
  21643623.532     6271751.470 3   4887077.504 1
 91  8 13  1 22 30.0000000  0  4 21 17 23 03
  23894451.219    -2995031.997 2  -2333787.374 1
  20805794.447     2099439.610 3   1635927.082 3
  20740559.609    -5876468.400 3  -4579061.379 2
  21651176.501     6311479.388 3   4918034.324 1
 91  8 13  1 22 45.0000000  0  4 21 17 23 03
  23885635.220    -3041393.008 2  -2369912.774 1
  20808792.071     2115194.516 3   1648203.624 3
  20738112.407    -5889336.836 3  -4589088.713 2
  21658762.451     6351319.919 3   4949078.880 1
 91  8 13  1 23  0.0000000  0  4 21 17 23 03
  23876812.329    -3087711.151 2  -2406004.747 1
  20811799.590     2131011.868 3   1660528.839 2
  20735682.883    -5902098.447 3  -4599032.822 2
  21666363.085     6391273.021 3   4980211.122 1
 91  8 13  1 23 15.0000000  0  4 21 17 23 03
  23868008.921    -3133986.071 2  -2442063.114 1
  20814824.795     2146891.664 3   1672902.706 2
  20733272.258    -5914752.936 3  -4608893.451 2
  21673986.213     6431338.772 3   5011431.226 1
 91  8 13  1 23 30.0000000  0  4 21 17 23 03
  23859202.520    -3180216.114 2  -2478086.464 1
  20817856.901     2162835.596 3   1685326.551 3
  20730890.103    -5927298.809 3  -4618669.446 3
  21681630.316     6471518.649 3   5042740.210 1
 91  8 13  1 23 45.0000000  0  4 21 17 23 03
  23850424.895    -3226401.062 2  -2514074.630 1
  20820902.793     2178843.827 3   1697800.489 3
  20728520.241    -5939736.006 3  -4628360.776 2
  21689300.812     6511812.672 3   5074138.132 1
 91  8 13  1 24  0.0000000  0  4 21 17 23 03
  23841646.668    -3272540.440 2  -2550027.322 1
  20823960.970     2194916.621 3   1710324.730 3
  20726170.473    -5952064.377 3  -4637967.281 2
  21696996.480     6552220.901 3   5105625.044 1
 91  8 13  1 24 15.0000000  0  4 21 17 23 03
  23832871.145    -3318634.809 2  -2585945.039 1
  20827031.746     2211053.031 3   1722898.561 3
  20723849.777    -5964284.711 3  -4647489.620 2
  21704697.252     6592742.405 3   5137200.239 1
 91  8 13  1 24 30.0000000  0  4 21 17 23 03
  23824119.006    -3364685.335 2  -2621828.462 1
  20830113.009     2227251.857 3   1735521.015 3
  20721544.673    -5976398.163 3  -4656928.657 3
  21712436.991     6633375.833 3   5168862.642 1
 91  8 13  1 24 45.0000000  0  4 21 17 23 03
  23815353.072    -3410688.653 2  -2657675.153 1
  20833207.168     2243516.478 3   1748194.743 3
  20719258.154    -5988401.364 3  -4666281.798 2
  21720181.834     6674124.244 3   5200614.662 1
 91  8 13  1 25  0.0000000  0  4 21 17 23 03
  23806609.327    -3456646.354 2  -2693486.309 1
  20836315.715     2259844.802 3   1760918.106 3
  20716997.417    -6000296.425 3  -4675550.673 3
  21727963.244     6714985.729 3   5232454.759 1
 91  8 13  1 25 15.0000000  0  4 21 17 23 03
  23797872.779    -3502558.620 2  -2729262.018 1
  20839433.258     2276236.683 3   1773691.011 3
  20714755.876    -6012083.616 3  -4684735.481 2
  21735759.347     6755959.891 3   5264382.664 1
 91  8 13  1 25 30.0000000  0  4 21 17 23 03
  23789149.119    -3548422.363 2  -2764999.962 1
  20842565.197     2292695.007 3   1786515.672 3
  20712532.316    -6023759.990 3  -4693833.955 2
  21743579.130     6797049.461 3   5296400.527 1
 91  8 13  1 25 45.0000000  0  4 21 17 23 03
  23780426.357    -3594238.110 2  -2800700.489 1
  20845714.211     2309219.196 3   1799391.652 2
  20710329.436    -6035326.263 3  -4702846.620 3
  21751421.702     6838253.707 3   5328507.699 1
 91  8 13  1 26  0.0000000  0  4 21 17 23 03
  23771718.585    -3640005.228 2  -2836363.110 1
  20848870.126     2325809.564 3   1812319.209 3
  20708148.150    -6046781.932 3  -4711773.121 2
  21759279.867     6879572.956 3   5360704.526 1
 91  8 13  1 26 15.0000000  0  4 21 17 23 03
  23763020.707    -3685725.438 2  -2871989.187 1
  20852038.335     2342464.245 3   1825296.877 2
  20705989.043    -6058129.013 3  -4720614.992 2
  21767170.105     6921005.117 3   5392989.314 1
 91  8 13  1 26 30.0000000  0  4 21 17 23 03
  23754326.424    -3731398.417 2  -2907578.496 1
  20855221.831     2359183.398 3   1838324.788 3
  20703848.826    -6069367.378 3  -4729372.150 2
  21775075.028     6962550.169 3   5425362.044 1
 91  8 13  1 26 45.0000000  0  4 21 17 23 03
  23745636.338    -3777021.179 2  -2943128.665 1
  20858416.119     2375969.868 3   1851405.150 2
  20701735.588    -6080493.995 3  -4738042.236 2
  21783006.335     7004210.908 3   5457824.984 1
 91  8 13  1 27  0.0000000  0  4 21 17 23 03
  23736969.635    -3822596.285 2  -2978641.674 1
  20861620.599     2392820.889 3   1864535.813 3
  20699636.736    -6091511.704 3  -4746627.444 2
  21790955.939     7045984.443 3   5490375.781 1
 91  8 13  1 27 15.0000000  0  4 21 17 23 03
  23728308.638    -3868121.340 2  -3014115.650 1
  20864839.771     2409738.886 3   1877718.665 2
  20697559.175    -6102418.393 3  -4755126.160 2
  21798916.623     7087872.836 2   5523016.079 1
 91  8 13  1 27 30.0000000  0  4 21 17 23 03
  23719653.626    -3913595.269 2  -3049549.768 1
  20868072.730     2426724.352 3   1890954.094 2
  20695511.296    -6113213.048 3  -4763537.574 3
  21806910.289     7129876.910 2   5555746.509 1
 91  8 13  1 27 45.0000000  0  4 21 17 23 03
  23711010.010    -3959019.479 2  -3084945.251 1
  20871315.887     2443776.030 3   1904241.109 2
  20693477.804    -6123897.294 3  -4771862.950 2
  21814927.940     7171995.007 2   5588565.810 1
 91  8 13  1 28  0.0000000  0  4 21 17 23 03
  23702372.685    -4004392.888 2  -3120301.046 1
  20874574.332     2460894.688 3   1917580.325 2
  20691469.197    -6134470.274 3  -4780101.641 2
  21822966.574     7214227.752 3   5621474.442 1
 91  8 13  1 28 15.0000000  0  4 21 17 23 03
  23693750.061    -4049714.031 2  -3155616.246 1
  20877847.766     2478082.004 3   1930973.039 3
  20689474.977    -6144930.500 3  -4788252.444 2
  21831027.694     7256576.380 3   5654473.349 1
 91  8 13  1 28 30.0000000  0  4 21 17 23 03
  23685138.518    -4094986.378 2  -3190893.318 1
  20881128.092     2495333.967 3   1944416.123 3
  20687505.336    -6155281.854 3  -4796318.433 2
  21839104.701     7299037.229 3   5687559.721 1
 91  8 13  1 28 45.0000000  0  4 21 17 23 03
  23676526.984    -4140208.234 2  -3226131.091 1
  20884426.410     2512652.335 3   1957910.956 3
  20685554.289    -6165522.623 3  -4804298.241 3
  21847208.391     7341611.691 2   5720734.628 1
 91  8 13  1 29  0.0000000  0  4 21 17 23 03
  23667933.729    -4185377.550 2  -3261327.883 1
  20887733.419     2530038.961 3   1971458.971 3
  20683629.320    -6175650.999 3  -4812190.476 2
  21855330.071     7384301.558 2   5753999.423 1
 91  8 13  1 29 15.0000000  0  4 21 17 23 03
  23659342.882    -4230494.422 2  -3296483.877 1
  20891051.822     2547493.426 3   1985059.846 2
  20681724.742    -6185667.361 3  -4819995.439 2
  21863471.837     7427106.117 2   5787353.633 1
 91  8 13  1 29 30.0000000  0  4 21 17 23 03
  23650771.213    -4275558.826 2  -3331598.927 1
  20894387.920     2565015.505 3   1998713.411 2
  20679837.850    -6195571.845 3  -4827713.203 2
  21871646.574     7470025.418 2   5820797.227 1
 91  8 13  1 29 45.0000000  0  4 21 17 23 03
  23642206.140    -4320573.160 2  -3366674.907 1
  20897734.496     2582602.587 3   2012417.626 2
  20677973.137    -6205367.090 3  -4835345.860 2
  21879832.410     7513056.553 2   5854327.962 1
 91  8 13  1 30  0.0000000  0  4 21 17 23 03
  23633652.462    -4365534.986 2  -3401710.106 1
  20901095.173     2600257.233 3   2026174.485 3
  20676128.213    -6215050.854 3  -4842891.637 3
  21888041.926     7556201.592 2   5887947.477 1
 91  8 13  1 30 15.0000000  0  4 21 17 23 03
  23625109.280    -4410443.925 2  -3436704.033 1
  20904466.337     2617979.632 3   2039984.137 2
  20674304.273    -6224622.837 3  -4850350.320 2
  21896274.224     7599460.760 2   5921655.913 1
 91  8 13  1 30 30.0000000  0  4 21 17 23 03
  23616570.889    -4455300.938 2  -3471657.451 1
  20907853.694     2635768.633 3   2053845.707 2
  20672505.522    -6234084.227 3  -4857722.828 3
  21904528.107     7642832.747 2   5955452.253 1
 91  8 13  1 30 45.0000000  0  4 21 17 23 03
  23608042.392    -4500105.544 2  -3506570.155 1
  20911248.241     2653624.559 3   2067759.419 3
  20670728.653    -6243434.544 3  -4865008.768 2
  21912798.184     7686317.802 2   5989336.677 1
 91  8 13  1 31  0.0000000  0  4 21 17 23 03
  23599528.587    -4544857.769 2  -3541441.940 1
  20914658.686     2671547.278 3   2081725.164 3
  20668970.369    -6252674.086 3  -4872208.410 2
  21921097.342     7729915.683 2   6023309.086 1
 91  8 13  1 31 15.0000000  0  4 21 17 23 03
  23591022.871    -4589555.072 2  -3576271.022 1
  20918085.909     2689538.903 3   2095744.618 2
  20667231.874    -6261800.801 3  -4879320.128 3
  21929418.975     7773628.428 2   6057370.924 1
 91  8 13  1 31 30.0000000  0  4 21 17 23 03
  23582531.857    -4634198.206 2  -3611057.744 1
  20921520.635     2707599.041 3   2109817.449 2
  20665518.263    -6270815.327 3  -4886344.434 2
  21937755.311     7817455.120 2   6091521.616 1
 91  8 13  1 31 45.0000000  0  4 21 17 23 03
  23574045.624    -4678788.100 2  -3645803.111 1
  20924967.350     2725726.245 3   2123942.545 2
  20663825.932    -6279718.918 3  -4893282.292 2
  21946112.325     7861394.396 2   6125759.988 1
 91  8 13  1 32  0.0000000  0  4 21 17 23 03
  23565567.200    -4723325.868 2  -3680507.796 1
  20928432.047     2743919.337 3   2138118.970 3
  20662152.491    -6288512.745 3  -4900134.608 2
  21954497.215     7905444.979 2   6160085.105 1
 91  8 13  1 32 15.0000000  0  4 21 17 23 03
  23557112.151    -4767810.024 2  -3715170.700 1
  20931909.343     2762179.590 3   2152347.736 2
  20660494.040    -6297195.523 3  -4906900.410 2
  21962911.789     7949607.998 2   6194497.843 1
 91  8 13  1 32 30.0000000  0  4 21 17 23 03
  23548655.906    -4812240.855 2  -3749792.111 1
  20935395.024     2780506.758 3   2166628.644 2
  20658866.763    -6305767.898 3  -4913580.176 3
  21971329.067     7993882.623 2   6228997.543 1
 91  8 13  1 32 45.0000000  0  4 21 17 23 03
  23540217.051    -4856618.048 2  -3784371.648 1
  20938897.806     2798901.063 3   2180961.867 3
  20657255.977    -6314229.479 3  -4920173.610 2
  21979779.012     8038269.109 2   6263584.405 1
 91  8 13  1 33  0.0000000  0  4 21 17 23 03
  23531775.194    -4900940.460 2  -3818908.560 1
  20942411.067     2817363.306 3   2195348.029 3
  20655666.184    -6322579.532 3  -4926680.136 2
  21988242.455     8082768.243 2   6298259.060 1
 91  8 13  1 33 15.0000000  0  4 21 17 23 03
  23523348.327    -4945208.001 2  -3853402.732 1
  20945931.230     2835893.312 3   2209786.998 2
  20654099.765    -6330818.096 3  -4933099.782 2
  21996734.979     8127379.631 2   6333021.142 1
 91  8 13  1 33 30.0000000  0  4 21 17 23 03
  23514926.555    -4989419.294 2  -3887853.064 1
  20949474.784     2854492.521 3   2224279.891 2
  20652557.332    -6338943.903 3  -4939431.588 2
  22005244.883     8172104.506 2   6367871.672 1
 91  8 13  1 33 45.0000000  0  4 21 17 23 03
  23506535.662    -5033575.234 2  -3922260.198 1
  20953026.122     2873159.542 3   2238825.625 2
  20651028.692    -6346958.277 3  -4945676.548 3
  22013771.583     8216941.627 2   6402809.687 1
 91  8 13  1 34  0.0000000  0  4 21 17 23 03
  23498129.787    -5077676.064 2  -3956624.412 1
  20956590.957     2891894.387 3   2253424.203 2
  20649526.429    -6354861.471 3  -4951834.873 2
  22022326.761     8261890.596 2   6437834.833 1
 91  8 13  1 34 15.0000000  0  4 21 17 23 03
  23489749.983    -5121722.493 2  -3990946.259 1
  20960173.478     2910695.965 3   2268074.783 2
  20648042.454    -6362654.457 3  -4957907.323 3
  22030898.431     8306949.988 2   6472946.071 1
 91  8 13  1 34 30.0000000  0  4 21 17 23 03
  23481390.273    -5165713.138 2  -4025224.615 1
  20963756.889     2929565.664 3   2282778.439 2
  20646579.175    -6370335.850 3  -4963892.814 3
  22039496.772     8352121.206 2   6508144.399 1
 91  8 13  1 34 45.0000000  0  4 21 17 23 03
  23473028.164    -5209650.210 2  -4059461.279 1
  20967364.896     2948500.937 3   2297533.199 3
  20645141.068    -6377908.035 3  -4969793.217 2
  22048116.107     8397401.640 2   6543427.833 1
 91  8 13  1 35  0.0000000  0  4 21 17 23 03
  23464675.041    -5253534.135 2  -4093656.480 1
  20970977.091     2967501.421 3   2312338.767 2
  20643721.545    -6385371.815 3  -4975609.144 3
  22056755.823     8442790.488 2   6578795.762 1
 91  8 13  1 35 15.0000000  0  4 21 17 23 03
  23456330.321    -5297363.144 2  -4127808.866 1
  20974608.778     2986568.257 3   2327196.043 2
  20642319.420    -6392725.795 3  -4981339.511 3
  22065417.134     8488289.254 2   6614249.366 1
 91  8 13  1 35 30.0000000  0  4 21 17 23 03
  23448011.976    -5341136.332 2  -4161917.834 1
  20978249.461     3005702.335 3   2342105.698 2
  20640941.873    -6399969.142 3  -4986983.675 3
  22074091.925     8533898.444 2   6649788.961 1
 91  8 13  1 35 45.0000000  0  4 21 17 23 03
  23439687.045    -5384854.146 2  -4195983.616 1
  20981904.234     3024903.417 3   2357067.591 2
  20639581.114    -6407102.397 3  -4992542.043 3
  22082798.798     8579617.435 2   6685414.155 1
 91  8 13  1 36  0.0000000  0  4 21 17 23 03
  23431380.994    -5428515.470 2  -4230005.359 1
  20985567.698     3044172.276 3   2372082.287 2
  20638244.340    -6414124.681 3  -4998013.955 2
  22091515.566     8625446.842 2   6721125.342 1
 91  8 13  1 36 15.0000000  0  4 21 17 23 03
  23423075.240    -5472120.931 2  -4263983.554 1
  20989244.947     3063508.250 3   2387149.273 2
  20636930.347    -6421036.765 3  -5003399.980 3
  22100255.412     8671385.962 2   6756922.054 1
 91  8 13  1 36 30.0000000  0  4 21 17 23 03
  23414793.480    -5515667.892 2  -4297916.242
  20992942.884     3082913.958 3   2402270.604 2
  20635636.143    -6427836.191 3  -5008698.235 2
  22109015.351     8717437.015 2   6792805.993 1
 91  8 13  1 36 45.0000000  0  4 21 17 23 03
  23406517.706    -5559160.093 2  -4331806.203 1
  20996649.223     3102385.235 3   2417443.027 3
  20634365.026    -6434526.942 3  -5013911.804 3
  22117802.260     8763595.902 2   6828773.958 1
 91  8 13  1 37  0.0000000  0  4 21 17 23 03
  23398250.630    -5602594.824 2  -4365651.377 1
  21000367.847     3121924.849 3   2432668.693 2
  20633110.992    -6441106.546 3  -5019038.763 3
  22126606.270     8809864.852 2   6864827.660 1
 91  8 13  1 37 15.0000000  0  4 21 17 23 03
  23389991.346    -5645974.383 2  -4399453.608 1
  21004094.568     3141530.101 3   2447945.511 2
  20631882.444    -6447577.304 3  -5024080.914 3
  22135434.257     8856241.380 2   6900965.189 1
 91  8 13  1 37 30.0000000  0  4 21 17 23 03
  23381753.648    -5689296.382 2  -4433210.979 1
  21007840.179     3161203.237 3   2463275.228 2
  20630672.481    -6453937.249 3  -5029036.702 2
  22144278.132     8902727.627 2   6937188.240 1
 91  8 13  1 37 45.0000000  0  4 21 17 23 03
  23373513.254    -5732561.616 2  -4466924.062 1
  21011594.174     3180943.325 3   2478657.119 2
  20629480.806    -6460187.444 3  -5033906.981 2
  22153143.601     8949322.348 2   6973495.781 1
 91  8 13  1 38  0.0000000  0  4 21 17 23 03
  23365295.344    -5775770.002 2  -4500592.869 1
  21015360.167     3200750.372 3   2494091.183 2
  20628313.718    -6466327.898 3  -5038691.748 2
  22162034.243     8996025.327 2   7009887.710 1
 91  8 13  1 38 15.0000000  0  4 21 17 23 03
  23357085.226    -5818922.170 2  -4534217.895 1
  21019146.550     3220623.813 3   2509576.986 2
  20627164.612    -6472359.342 3  -5043391.572 3
  22170947.675     9042835.645 2   7046363.262 1
 91  8 13  1 38 30.0000000  0  4 21 17 23 03
  23348885.604    -5862018.507 2  -4567799.438 1
  21022941.920     3240562.933 3   2525113.966 2
  20626037.093    -6478282.629 3  -5048007.117 2
  22179868.898     9089752.584 2   7082921.935 1
 91  8 13  1 38 45.0000000  0  4 21 17 23 03
  23340690.773    -5905057.249 2  -4601336.064 1
  21026747.490     3260569.385 3   2540703.407 2
  20624932.660    -6484095.933 3  -5052536.950 2
  22188814.403     9136777.638 2   7119564.804 1
 91  8 13  1 39  0.0000000  0  4 21 17 23 03
  23332512.737    -5948038.283 2  -4634827.719 1
  21030565.946     3280643.069 3   2556345.236 2
  20623844.708    -6489799.294 3  -5056981.127 2
  22197791.091     9183910.475 2   7156291.637 1
 91  8 13  1 39 15.0000000  0  4 21 17 23 03
  23324343.095    -5990961.628 2  -4668274.426 1
  21034402.089     3300783.979 3   2572039.450 2
  20622783.447    -6495392.927 3  -5061339.798 3
  22206771.968     9231150.931 2   7193102.407 1
 91  8 13  1 39 30.0000000  0  4 21 17 23 03
  23316191.435    -6033826.938 2  -4701675.893 1
  21038244.531     3320992.365 3   2587786.252 2
  20621738.668    -6500876.872 3  -5065613.000 2
  22215782.536     9278498.803 2   7229996.864 1
 91  8 13  1 39 45.0000000  0  4 21 17 23 03
  23308040.979    -6076635.110 2  -4735032.851 1
  21042104.955     3341267.096 3   2603584.739 2
  20620713.677    -6506251.980 3  -5069801.391 3
  22224813.478     9325953.087 2   7266974.185 1
 91  8 13  1 40  0.0000000  0  4 21 17 23 03
  23299903.716    -6119385.719 2  -4768344.959 1
  21045975.876     3361608.184 3   2619434.931 2
  20619715.664    -6511518.174 3  -5073904.910 2
  22233862.419     9373513.916 2   7304034.623 1
 91  8 13  1 40 15.0000000  0  4 21 17 23 03
  23291784.129    -6162076.986 2  -4801610.838 1
  21049857.886     3382017.488 3   2635338.287 2
  20618736.244    -6516673.829 3  -5077922.302 2
  22242937.431     9421182.632 2   7341179.044 1
 91  8 13  1 40 30.0000000  0  4 21 17 23 03
  23283666.053    -6204708.686 2  -4834830.280 1
  21053753.988     3402495.292 3   2651295.016 2
  20617773.010    -6521719.067 3  -5081853.649 3
  22252027.145     9468959.069 2   7378407.436 1
 91  8 13  1 40 45.0000000  0  4 21 17 23 03
  23275565.958    -6247282.526 2  -4868004.678 1
  21057666.579     3423039.431 3   2667303.435 2
  20616832.565    -6526655.746 3  -5085700.404 3
  22261137.537     9516841.066 2   7415718.051 1
 91  8 13  1 41  0.0000000  0  4 21 17 23 03
  23267479.056    -6289798.438 2  -4901133.905 1
  21061586.963     3443649.943 3   2683363.578 2
  20615917.598    -6531483.823 3  -5089462.546 3
  22270272.211     9564828.473 2   7453110.831 1
 91  8 13  1 41 15.0000000  0  4 21 17 23 03
  23259399.954    -6332257.425 2  -4934218.781 1
  21065519.343     3464325.768 3   2699474.615 2
  20615019.418    -6536204.572 3  -5093141.034 3
  22279422.180     9612920.157 2   7490584.822 1
 91  8 13  1 41 30.0000000  0  4 21 17 23 03
  23251327.143    -6374659.018 2  -4967258.937 1
  21069467.612     3485067.290 3   2715636.845 2
  20614138.330    -6540817.867 3  -5096735.811 3
  22288600.323     9661115.928 2   7528140.005 1
 91  8 13  1 41 45.0000000  0  4 21 17 23 03
  23243269.619    -6417002.076 2  -5000253.484 1
  21073429.972     3505875.308 3   2731850.871 2
  20613281.821    -6545322.711 3  -5100246.075 3
  22297782.069     9709416.821 2   7565777.031 1
 91  8 13  1 42  0.0000000  0  4 21 17 23 03
  23235223.192    -6459286.560 2  -5033202.383 1
  21077400.123     3526749.726 3   2748116.663 2
  20612445.397    -6549719.413 3  -5103672.069 2
  22306991.090     9757822.524 2   7603495.771 1
 91  8 13  1 42 15.0000000  0  4 21 17 23 03
  23227181.556    -6501510.594 2  -5066104.172 1
  21081386.163     3547692.132 3   2764435.423 2
  20611629.067    -6554006.378 3  -5107012.562 3
  22316223.198     9806334.273 2   7641297.154 1
 91  8 13  1 42 30.0000000  0  4 21 17 23 03
  23219161.811    -6543676.699 2  -5098960.819 1
  21085383.589     3568699.965 3   2780805.160 2
  20610830.423    -6558186.114 3  -5110269.487 3
  22325478.095     9854949.228 2   7679178.903 1
 91  8 13  1 42 45.0000000  0  4 21 17 23 03
  23211152.851    -6585783.464 2  -5131771.199 1
  21089394.513     3589774.629 3   2797226.977 2
  20610061.148    -6562257.319 3  -5113441.855 3
  22334744.379     9903668.748 2   7717142.141 1
 91  8 13  1 43  0.0000000  0  4 21 17 23 03
  23203152.589    -6627830.861 2  -5164535.357 1
  21093416.535     3610916.142 3   2813700.870 2
  20609303.276    -6566220.154 3  -5116529.774 3
  22344039.447     9952492.493 2   7755186.577 1
 91  8 13  1 43 15.0000000  0  4 21 17 23 03
  23195157.728    -6669820.127 2  -5197254.195 1
  21097454.140     3632123.033 3   2830225.720 2
  20608569.983    -6570076.184 3  -5119534.467 3
  22353347.698    10001418.840 2   7793311.023 1
 91  8 13  1 43 30.0000000  0  4 21 17 23 03
  23187183.249    -6711750.395 2  -5229927.100 1
  21101501.936     3653396.206 3   2846802.216 2
  20607856.182    -6573824.722 3  -5122455.396 3
  22362683.539    10050448.530 2   7831515.939 1
 91  8 13  1 43 45.0000000  0  4 21 17 23 03
  23179209.363    -6753620.694 2  -5262553.260 1
  21105558.126     3674736.227 3   2863430.803 2
  20607165.755    -6577464.847 3  -5125291.853 3
  22372035.861    10099581.998 2   7869801.782 1
 91  8 13  1 44  0.0000000  0  4 21 17 23 03
  23171260.972    -6795430.861 2  -5295132.559 1
  21109632.307     3696143.068 3   2880111.458 2
  20606493.625    -6580996.745 3  -5128043.975 3
  22381397.178    10148819.227 2   7908168.403 1
 91  8 13  1 44 15.0000000  0  4 21 17 23 03
  23163310.775    -6837180.639 2  -5327664.805 1
  21113721.478     3717617.039 3   2896844.426 2
  20605843.369    -6584420.484 3  -5130711.817 3
  22390794.173    10198159.875 2   7946615.672 1
 91  8 13  1 44 30.0000000  0  4 21 17 23 03
  23155381.859    -6878869.838 2  -5360149.847 1
  21117819.635     3739158.198 3   2913629.746 2
  20605208.713    -6587735.916 3  -5133295.264 3
  22400200.163    10247603.951 2   7985143.529 1
 91  8 13  1 44 45.0000000  0  4 21 17 23 03
  23147460.446    -6920500.720 2  -5392589.452 1
  21121931.290     3760764.533 3   2930465.845 2
  20604598.636    -6590945.396 3  -5135796.153 3
  22409627.739    10297148.852 2   8023749.907 1
 91  8 13  1 45  0.0000000  0  4 21 17 23 03
  23139548.622    -6962072.526 2  -5424983.006 1
  21126055.536     3782436.304 3   2947352.944 2
  20604006.245    -6594048.526 3  -5138214.170 3
  22419073.594    10346795.195 2   8062435.369 1
 91  8 13  1 45 15.0000000  0  4 21 17 23 03
  23131648.489    -7003584.280 2  -5457329.812 1
  21130191.770     3804174.295 3   2964291.644 2
  20603438.136    -6597044.641 3  -5140548.804 3
  22428540.146    10396543.284 2   8101200.094 1
 91  8 13  1 45 30.0000000  0  4 21 17 23 03
  23123761.253    -7045036.553 2  -5489630.262 1
  21134343.299     3825977.595 3   2981281.215 2
  20602889.815    -6599934.447 3  -5142800.588 3
  22438024.077    10446392.296 2   8140043.455 1
 91  8 13  1 45 45.0000000  0  4 21 17 23 03
  23115885.708    -7086429.375 2  -5521884.362
  21138502.017     3847846.350 3   2998321.806 2
  20602359.486    -6602718.057 3  -5144969.631 2
  22447535.598    10496341.796 2   8178965.147 1
 91  8 13  1 46  0.0000000  0  4 21 17 23 03
  23108014.656    -7127762.132 2  -5554091.676 1
  21142675.132     3869780.981 3   3015413.732 2
  20601849.232    -6605395.124 3  -5147055.661 3
  22457059.700    10546392.248 2   8217965.488 1
 91  8 13  1 46 15.0000000  0  4 21 17 23 03
  23100164.292    -7169033.484 2  -5586251.074 1
  21146861.430     3891782.761 3   3032557.968 2
  20601358.480    -6607964.630 3  -5149057.874 3
  22466600.597    10596544.464 2   8257045.157 1
 91  8 13  1 46 30.0000000  0  4 21 17 23 03
  23092317.226    -7210244.099 2  -5618363.209 1
  21151063.923     3913850.416 3   3049753.540 2
  20600890.797    -6610427.514 3  -5150976.998 3
  22476162.479    10646797.338 2   8296203.136 1
 91  8 13  1 46 45.0000000  0  4 21 17 23 03
  23084489.040    -7251394.090 2  -5650428.096 1
  21155275.105     3935983.872 3   3067000.386 2
  20600443.207    -6612783.903 3  -5152813.130 3
  22485742.343    10697150.530 2   8335439.442 1
 91  8 13  1 47  0.0000000  0  4 21 17 23 03
  23076673.751    -7292482.555 2  -5682445.065 1
  21159496.784     3958184.243 3   3084299.373 2
  20600015.703    -6615033.109 3  -5154565.760 3
  22495348.296    10747604.837 2   8374754.453 1
 91  8 13  1 47 15.0000000  0  4 21 17 23 03
  23068874.350    -7333508.364 2  -5714413.153 2
  21163734.351     3980452.534 3   3101651.291 2
  20599609.488    -6617174.042 3  -5156234.024 3
  22504974.630    10798160.974 2   8414148.832 1
 91  8 13  1 47 30.0000000  0  4 21 17 23 03
  23061071.049    -7374472.437 2  -5746333.211 1
  21167987.205     4002787.647 3   3119055.262 2
  20599218.560    -6619208.084 3  -5157818.986 3
  22514603.363    10848817.495 2   8453621.410 1
 91  8 13  1 47 45.0000000  0  4 21 17 23 03
  23053286.044    -7415373.865 2  -5778204.364 1
  21172252.056     4025189.986 3   3136511.633 2
  20598854.007    -6621134.685 3  -5159320.233 3
  22524270.173    10899574.841 2   8493172.608 1
 91  8 13  1 48  0.0000000  0  4 21 17 23 03
  23045509.425    -7456212.427 2  -5810026.583 1
  21176527.394     4047659.902 3   3154020.646 2
  20598508.048    -6622953.715 3  -5160737.645 3
  22533942.680    10950433.152 2   8532802.451 1
 91  8 13  1 48 15.0000000  0  4 21 17 23 03
  23037754.391    -7496988.701 2  -5841800.245 1
  21180813.525     4070196.669 3   3171581.762 2
  20598182.776    -6624666.078 3  -5162071.949 3
  22543646.659    11001391.325 2   8572510.067 1
 91  8 13  1 48 30.0000000  0  4 21 17 23 03
  23030005.063    -7537703.651 2  -5873526.170 1
  21185115.553     4092799.236 3   3189194.147 2
  20597875.783    -6626272.567 3  -5163323.765 3
  22553356.632    11052448.038 2   8612294.522 1
 91  8 13  1 48 45.0000000  0  4 21 17 23 03
  23022275.507    -7578354.307 2  -5905201.951 1
  21189434.657     4115470.493 3   3206860.044 2
  20597593.979    -6627770.575 3  -5164491.037 3
  22563093.592    11103606.184 2   8652158.002 1
 91  8 13  1 49  0.0000000  0  4 21 17 23 03
  23014545.959    -7618940.600 2  -5936827.516 1
  21193759.466     4138210.361 3   3224579.424 2
  20597329.268    -6629160.429 3  -5165574.045 3
  22572849.738    11154865.290 2   8692100.127 1
 91  8 13  1 49 15.0000000  0  4 21 17 23 03
  23006841.295    -7659463.824 2  -5968404.006 1
  21198098.358     4161017.470 3   3242351.197 2
  20597086.134    -6630443.533 3  -5166573.858 3
  22582613.981    11206223.748 2   8732119.712 1
 91  8 13  1 49 30.0000000  0  4 21 17 23 03
  22999138.132    -7699923.117 2  -5999930.692 1
  21202450.451     4183892.540 3   3260175.919 2
  20596858.889    -6631619.391 3  -5167490.103 3
  22592408.204    11257682.073 2   8772217.082 1
 91  8 13  1 49 45.0000000  0  4 21 17 23 03
  22991457.148    -7740319.769 2  -6031408.581 1
  21206815.728     4206834.271 3   3278052.587 2
  20596655.036    -6632689.390 3  -5168323.866 3
  22602220.409    11309238.590 2   8812390.989 1
 91  8 13  1 50  0.0000000  0  4 21 17 23 03
  22983782.455    -7780650.409 2  -6062835.025 1
  21211198.996     4229845.682 3   3295983.565 2
  20596470.962    -6633650.199 3  -5169072.545 3
  22612050.003    11360896.315 2   8852643.714 1
 91  8 13  1 50 15.0000000  0  4 21 17 23 03
  22976112.264    -7820915.554 2  -6094210.421 1
  21215587.054     4252926.079 3   3313968.284 2
  20596310.272    -6634502.565 3  -5169736.729 3
  22621909.280    11412654.563 2   8892974.817 1
 91  8 13  1 50 30.0000000  0  4 21 17 23 03
  22968464.864    -7861115.067 2  -6125534.640 1
  21219995.502     4276075.482 3   3332006.769 2
  20596171.769    -6635246.662 3  -5170316.535 3
  22631764.055    11464512.902 2   8933383.843 1
 91  8 13  1 50 45.0000000  0  4 21 17 23 03
  22960825.847    -7901248.806 2  -6156807.622 1
  21224412.641     4299293.982 3   3350099.107 2
  20596046.450    -6635882.519 3  -5170812.015 3
  22641662.901    11516471.178 2   8973870.802 1
 91  8 13  1 51  0.0000000  0  4 21 17 23 03
  22953199.727    -7941317.913 2  -6188030.273 1
  21228839.377     4322580.295 3   3368244.272 2
  20595946.923    -6636411.521 3  -5171224.216 3
  22651564.451    11568527.836 2   9014434.380 1
 91  8 13  1 51 15.0000000  0  4 21 17 23 03
  22945590.403    -7981320.745 2  -6219201.265 1
  21233291.600     4345936.105 3   3386443.609 2
  20595865.675    -6636832.183 3  -5171552.002 3
  22661487.578    11620684.266 2   9055075.737 1
 91  8 13  1 51 30.0000000  0  4 21 17 23 03
  22937989.158    -8021259.557 2  -6250322.406 1
  21237743.220     4369359.040 3   3404695.234 2
  20595811.117    -6637147.143 3  -5171797.432 3
  22671428.697    11672937.799 2   9095792.619 1
 91  8 13  1 51 45.0000000  0  4 21 17 23 03
  22930398.112    -8061132.498 2  -6281392.136 1
  21242215.816     4392850.548 3   3423000.303 2
  20595769.446    -6637354.670 3  -5171959.134 3
  22681392.902    11725289.982 2   9136586.484 1
 91  8 13  1 52  0.0000000  0  4 21 17 23 03
  22922834.350    -8100938.553 2  -6312409.770 1
  21246697.119     4416411.626 3   3441359.581 2
  20595747.258    -6637454.071 3  -5172036.588 3
  22691369.689    11777741.405 2   9177457.719 1
 91  8 13  1 52 15.0000000  0  4 21 17 23 03
  22915268.791    -8140679.877 2  -6343377.012 1
  21251196.701     4440040.193 3   3459771.458 2
  20595749.963    -6637447.533 3  -5172031.490 3
  22701374.064    11830289.700 2   9218404.363 1
 91  8 13  1 52 30.0000000  0  4 21 17 23 03
  22907714.618    -8180355.541 2  -6374293.021 1
  21255704.982     4463736.969 3   3478236.467 2
  20595772.744    -6637334.411 3  -5171943.346 3
  22711388.029    11882935.271 2   9259426.854 1
 91  8 13  1 52 45.0000000  0  4 21 17 23 03
  22900180.835    -8219968.569 2  -6405160.260 1
  21260223.454     4487498.725 3   3496752.117 2
  20595815.314    -6637117.968 3  -5171774.687 3
  22721426.886    11935674.950 2   9300522.614 1
 91  8 13  1 53  0.0000000  0  4 21 17 23 03
  22892655.446    -8259515.800 2  -6435976.227 1
  21264762.614     4511328.489 3   3515320.762 2
  20595870.177    -6636795.249 3  -5171523.220 3
  22731482.225    11988511.414 2   9341693.850 1
 91  8 13  1 53 15.0000000  0  4 21 17 23 03
  22885141.444    -8298996.425 2  -6466740.261 1
  21269307.165     4535227.045 3   3533943.007 2
  20595955.317    -6636365.611 3  -5171188.435 3
  22741561.846    12041445.090 2   9382940.775 1
 91  8 13  1 53 30.0000000  0  4 21 17 23 03
  22877640.939    -8338413.391 2  -6497454.705 2
  21273868.207     4559191.259 3   3552616.420 2
  20596057.549    -6635832.353 3  -5170772.904 3
  22751649.259    12094472.633 2   9424260.936 1
 91  8 13  1 53 45.0000000  0  4 21 17 23 03
  22870148.827    -8377766.691 2  -6528119.576 1
  21278437.041     4583221.163 3   3571341.012 2
  20596179.561    -6635195.528 3  -5170276.674 3
  22761755.866    12147593.822 2   9465653.958 1
 91  8 13  1 54  0.0000000  0  4 21 17 23 03
  22862670.502    -8417054.752 2  -6558733.576 1
  21283024.773     4607317.844 3   3590117.645 2
  20596318.665    -6634453.884 3  -5169698.771 3
  22771887.053    12200809.795 2   9507120.876 1
 91  8 13  1 54 15.0000000  0  4 21 17 23 03
  22855209.870    -8456277.459 2  -6589296.656 1
  21287625.086     4631481.437 3   3608946.405 2
  20596479.050    -6633607.584 3  -5169039.321 3
  22782026.632    12254120.327 2   9548661.559 1
 91  8 13  1 54 30.0000000  0  4 21 17 23 03
  22847756.429    -8495437.408 2  -6619810.860 1
  21292234.090     4655709.439 3   3627825.365 2
  20596660.724    -6632659.195 3  -5168300.313 2
  22792191.393    12307522.688 2   9590273.767 1
 91  8 13  1 54 45.0000000  0  4 21 17 23 03
  22840316.781    -8534530.286 2  -6650272.759 1
  21296856.592     4680006.150 3   3646757.857 2
  20596862.492    -6631604.661 3  -5167478.595 3
  22802368.151    12361020.767 2   9631960.547 1
 91  8 13  1 55  0.0000000  0  4 21 17 23 03
  22832884.027    -8573557.722 2  -6680683.726 1
  21301494.982     4704369.863 3   3665742.564 2
  20597081.938    -6630445.663 3  -5166575.477 3
  22812573.082    12414612.431 2   9673720.243 1
 91  8 13  1 55 15.0000000  0  4 21 17 23 03
  22825469.560    -8612519.678 2  -6711043.648 1
  21306140.867     4728800.366 3   3684779.335 2
  20597324.173    -6629182.613 3  -5165591.284 3
  22822786.118    12468297.447 2   9715552.708 1
 91  8 13  1 55 30.0000000  0  4 21 17 23 03
  22818078.774    -8651415.498 2  -6741352.006 1
  21310802.640     4753298.045 3   3703868.426 2
  20597585.891    -6627814.942 3  -5164525.563 3
  22833018.027    12522076.060 2   9757458.130 1
 91  8 13  1 55 45.0000000  0  4 21 17 23 03
  22810684.689    -8690248.189 2  -6771611.204 1
  21315476.105     4777859.692 3   3723007.366 2
  20597862.896    -6626346.261 3  -5163381.131 3
  22843268.538    12575944.953 2   9799433.869 1
 91  8 13  1 56  0.0000000  0  4 21 17 23 03
  22803309.494    -8729015.763 2  -6801819.657 1
  21320163.958     4802487.287 3   3742197.701 2
  20598162.691    -6624774.494 3  -5162156.381 3
  22853538.523    12629905.633 2   9841481.076 1
 91  8 13  1 56 15.0000000  0  4 21 17 23 03
  22795941.497    -8767718.289 2  -6831977.383 1
  21324862.001     4827180.682 3   3761439.295 2
  20598478.671    -6623100.047 3  -5160851.614 3
  22863819.904    12683957.761 2   9883599.584 1
 91  8 13  1 56 30.0000000  0  4 21 17 23 03
  22788589.991    -8806354.616 2  -6862083.545 2
  21329578.036     4851940.705 3   3780732.821 2
  20598821.628    -6621322.073 3  -5159466.185 3
  22874124.973    12738101.985 2   9925789.884 1
 91  8 13  1 56 45.0000000  0  4 21 17 23 03
  22781248.370    -8844926.197 2  -6892139.293 1
  21334297.369     4876766.168 3   3800077.331 2
  20599178.084    -6619442.007 3  -5158001.200 3
  22884455.223    12792336.492 2   9968050.550 1
 91  8 13  1 57  0.0000000  0  4 21 17 23 03
  22773915.448    -8883432.756 2  -6922144.331 1
  21339037.389     4901656.873 3   3819472.687 2
  20599553.124    -6617459.900 3  -5156456.690 3
  22894783.675    12846661.321 2  10010381.498 1
 91  8 13  1 57 15.0000000  0  4 21 17 23 03
  22766606.503    -8921873.743 2  -6952098.290 1
  21343782.810     4926613.424 3   3838919.348 2
  20599949.148    -6615375.488 3  -5154832.470 3
  22905143.599    12901076.809 2  10052783.178 1
 91  8 13  1 57 30.0000000  0  4 21 17 23 03
  22759306.562    -8960247.450 2  -6981999.834 1
  21348547.112     4951637.420 3   3858418.572 2
  20600366.767    -6613187.101 3  -5153127.236 3
  22915514.019    12955584.100 2  10095256.317 1
 91  8 13  1 57 45.0000000  0  4 21 17 23 03
  22752016.210    -8998556.211 2  -7011850.801 1
  21353321.003     4976726.393 3   3877968.408 2
  20600802.664    -6610897.263 3  -5151342.945 3
  22925905.126    13010180.621 2  10137799.054 1
 91  8 13  1 58  0.0000000  0  4 21 17 23 03
  22744734.845    -9036799.436 2  -7041650.678 2
  21358111.088     5001880.789 3   3897569.233 2
  20601256.545    -6608505.826 3  -5149479.491 2
  22936307.925    13064866.590 2  10180411.404 1
 91  8 13  1 58 15.0000000  0  4 21 17 23 03
  22737469.081    -9074976.794 2  -7071399.218 1
  21362905.369     5027101.058 3   3917221.388 2
  20601730.519    -6606012.419 3  -5147536.571 3
  22946738.601    13119642.014 2  10223093.540 1
 91  8 13  1 58 30.0000000  0  4 21 17 23 03
  22730220.400    -9113088.359 2  -7101096.516 1
  21367720.338     5052386.778 3   3936924.540 2
  20602223.374    -6603417.508 3  -5145514.572 3
  22957171.379    13174506.375 2  10265844.998 1
 91  8 13  1 58 45.0000000  0  4 21 17 23 03
  22722984.606    -9151133.800 2  -7130742.257 1
  21372545.498     5077738.220 3   3956678.910 2
  20602738.120    -6600720.986 3  -5143413.386 3
  22967621.843    13229459.545 2  10308665.585 1
 91  8 13  1 59  0.0000000  0  4 21 17 23 03
  22715755.112    -9189110.996 2  -7160334.824 1
  21377375.753     5103157.637 3   3976486.252 2
  20603275.046    -6597920.895 3  -5141231.507 3
  22978102.287    13284503.449 2  10351556.923 1
 91  8 13  1 59 15.0000000  0  4 21 17 23 03
  22708540.904    -9227019.098 2  -7189873.550 1
  21382232.087     5128645.715 3   3996347.095 2
  20603823.969    -6595016.601 3  -5138968.405 3
  22988598.925    13339638.554 2  10394519.307 1
 91  8 13  1 59 30.0000000  0  4 21 17 23 03
  22701341.991    -9264860.660 2  -7219360.447 1
  21387095.018     5154199.516 3   4016259.146 2
  20604398.971    -6592010.725 3  -5136626.164 3
  22999109.348    13394861.918 2  10437550.427 1
 91  8 13  1 59 45.0000000  0  4 21 17 23 03
  22694149.064    -9302633.446 2  -7248793.741 1
  21391972.947     5179821.299 3   4036224.174 2
  20604989.260    -6588901.498 3  -5134203.384 2
  23009629.665    13450175.379 2  10480651.804 1
 91  8 13  2  0  0.0000000  0  4 21 17 23 03
  22686976.230    -9340338.064 2  -7278173.921 1
  21396857.464     5205510.369 3   4056241.630 2
  20605599.337    -6585689.556 3  -5131700.567 3
  23020176.961    13505578.126 2  10523822.769 1
 91  8 13  2  0 15.0000000  0  4 21 17 23 03
  22679815.088    -9377974.187 2  -7307500.758 1
  21401763.863     5231266.865 3   4076311.621 2
  20606229.804    -6582374.948 3  -5129117.759 3
  23030737.449    13561069.930 2  10567063.146 1
 91  8 13  2  0 30.0000000  0  4 21 17 23 03
  22672665.943    -9415540.713 2  -7336773.322 1
  21406670.271     5257091.664 3   4096434.834 2
  20606878.856    -6578956.907 3  -5126454.354 3
  23041309.934    13616651.563 2  10610373.376 1
 91  8 13  2  0 45.0000000  0  4 21 17 23 03
  22665532.382    -9453038.830 2  -7365992.585 2
  21411594.958     5282983.641 3   4116610.408 2
  20607550.088    -6575436.657 3  -5123711.307 3
  23051897.705    13672321.425 2  10653752.558 1
 91  8 13  2  1  0.0000000  0  4 21 17 23 03
  22658405.713    -9490466.302 2  -7395156.826 1
  21416540.036     5308945.017 3   4136840.043 2
  20608240.514    -6571812.111 3  -5120886.986 3
  23062507.961    13728081.600 2  10697201.977 1
 91  8 13  2  1 15.0000000  0  4 21 17 23 03
  22651300.926    -9527823.957 2  -7424266.632 1
  21421495.610     5334974.656 3   4157122.882 2
  20608947.423    -6568084.509 3  -5117982.356 3
  23073139.794    13783930.570 2  10740720.572 1
 91  8 13  2  1 30.0000000  0  4 21 17 23 03
  22644208.137    -9565113.687 2  -7453323.518 1
  21426462.570     5361070.670 3   4177457.429 2
  20609679.512    -6564255.899 3  -5114999.014 3
  23083786.023    13839866.206 2  10784306.731 1
 91  8 13  2  1 45.0000000  0  4 21 17 23 03
  22637118.052    -9602334.516 2  -7482326.697 1
  21431438.822     5387233.984 3   4197844.430 2
  20610426.599    -6560325.466 3  -5111936.348 3
  23094447.548    13895889.191 2  10827960.982 1
 91  8 13  2  2  0.0000000  0  4 21 17 23 03
  22630055.836    -9639483.573 2  -7511273.980 1
  21436438.161     5413467.558 3   4218286.172 2
  20611194.670    -6556290.651 3  -5108792.324 2
  23105120.756    13952002.076 2  10871685.294 1
 91  8 13  2  2 15.0000000  0  4 21 17 23 03
  22622993.628    -9676561.478 2  -7540165.829 1
  21441437.500     5439770.601 3   4238782.036 2
  20611984.319    -6552152.027 3  -5105567.430 2
  23115814.354    14008204.019 2  10915479.003 1
 91  8 13  2  2 30.0000000  0  4 21 17 23 03
  22615953.303    -9713568.572 2  -7569002.490 1
  21446455.729     5466142.463 3   4259331.532 2
  20612789.559    -6547910.143 3  -5102262.062 3
  23126542.128    14064494.225 2  10959341.421 1
 91  8 13  2  2 45.0000000  0  4 21 17 23 03
  22608930.367    -9750503.655 2  -7597783.026 1
  21451484.446     5492584.154 3   4279935.443 2
  20613614.291    -6543564.244 3  -5098875.648 3
  23137256.710    14120873.333 2  11003273.176 1
 91  8 13  2  3  0.0000000  0  4 21 17 23 03
  22601908.626    -9787367.308 2  -7626507.940 1
  21456532.951     5519094.955 3   4300593.217 2
  20614461.203    -6539115.038 3  -5095408.742 2
  23148000.373    14177340.502 2  11047273.491 1
 91  8 13  2  3 15.0000000  0  4 21 17 23 03
  22594908.768    -9824160.594 2  -7655178.004 1
  21461591.053     5545673.951 3   4321304.115 2
  20615331.201    -6534563.951 3  -5091862.436 3
  23158764.723    14233894.341 2  11091341.349 1
 91  8 13  2  3 30.0000000  0  4 21 17 23 03
  22587918.507    -9860881.891 2  -7683791.963 1
  21466659.042     5572322.417 3   4342069.145 2
  20616216.189    -6529909.542 3  -5088235.618 3
  23169550.650    14290535.924 2  11135477.693 1
 91  8 13  2  3 45.0000000  0  4 21 17 23 03
  22580947.137    -9897530.496 2  -7712349.245 1
  21471742.325     5599041.019 3   4362888.834 2
  20617119.168    -6525151.593 3  -5084528.135 2
  23180347.981    14347265.592 2  11179682.551 1
 91  8 13  2  4  0.0000000  0  4 21 17 23 03
  22573984.753    -9934106.532 2  -7740850.040 2
  21476838.190     5625829.519 3   4383762.988 2
  20618044.622    -6520289.985 3  -5080739.859 3
  23191152.798    14404083.022 2  11223955.827 1
 91  8 13  2  4 15.0000000  0  4 21 17 23 03
  22567040.360    -9970612.451 2  -7769296.154 1
  21481955.955     5652685.536 3   4404689.741 2
  20618990.468    -6515327.455 3  -5076872.951 3
  23201984.000    14460985.496 2  11268295.368 1
 91  8 13  2  4 30.0000000  0  4 21 17 23 03
  22560110.660   -10007045.656 2  -7797685.642 1
  21487076.407     5679611.517 3   4425671.016 2
  20619953.999    -6510261.697 3  -5072925.606 3
  23212825.995    14517975.060 2  11312702.735 1
 91  8 13  2  4 45.0000000  0  4 21 17 23 03
  22553183.657   -10043407.017 2  -7826019.135 1
  21492213.647     5706606.405 3   4446705.989 2
  20620934.919    -6505093.948 3  -5068898.796 3
  23223685.073    14575050.463 2  11357177.115 1
 91  8 13  2  5  0.0000000  0  4 21 17 23 03
  22546283.631   -10079695.870 2  -7854296.134 1
  21497367.682     5733670.774 3   4467795.114 2
  20621939.232    -6499823.492 3  -5064791.955 3
  23234567.841    14632212.205 2  11401718.625 1
 91  8 13  2  5 15.0000000  0  4 21 17 23 03
  22539387.209   -10115913.137 2  -7882517.345 1
  21502527.109     5760803.590 3   4488937.554 2
  20622960.925    -6494451.697 3  -5060606.138 3
  23245461.401    14689458.711 2  11446326.345 1
 91  8 13  2  5 30.0000000  0  4 21 17 23 03
  22532507.871   -10152056.782 2  -7910681.187 1
  21507702.730     5788006.927 3   4510134.948 2
  20624002.999    -6488976.691 3  -5056339.901 2
  23256370.849    14746791.887 2  11491001.492 1
 91  8 13  2  5 45.0000000  0  4 21 17 23 03
  22525649.813   -10188129.727 2  -7938789.932 1
  21512888.237     5815277.486 3   4531384.713 2
  20625063.964    -6483401.692 3  -5051995.746 2
  23267299.188    14804208.124 2  11535741.349 1
 91  8 13  2  6  0.0000000  0  4 21 17 23 03
  22518796.258   -10224127.419 2  -7966840.038 1
  21518097.432     5842619.802 3   4552690.410 2
  20626146.514    -6477722.277 3  -5047570.233 3
  23278233.215    14861711.922 2  11580549.450
 91  8 13  2  6 15.0000000  0  4 21 17 23 03
  22511961.889   -10260050.455 2  -7994831.993 1
  21523316.217     5870033.361 3   4574051.617 2
  20627242.257    -6471939.182 3  -5043063.914 3
  23289197.222    14919302.306 2  11625425.000 1
 91  8 13  2  6 30.0000000  0  4 21 17 23 03
  22505137.117   -10295898.466 2  -8022765.471 1
  21528545.201     5897518.441 3   4595468.550 2
  20628366.479    -6466052.339 3  -5038476.757 2
  23300164.832    14976979.155 2  11670367.991 1
 91  8 13  2  6 45.0000000  0  4 21 17 23 03
  22498330.328   -10331673.434 2  -8050642.065 1
  21533781.077     5925072.734 3   4616939.420 2
  20629505.987    -6460063.986 3  -5033810.515 3
  23311162.718    15034740.188 2  11715376.457 1
 91  8 13  2  7  0.0000000  0  4 21 17 23 03
  22491538.529   -10367374.567 3  -8078461.087 1
  21539038.235     5952697.141 3   4638464.943 2
  20630664.384    -6453973.366 3  -5029064.581 3
  23322182.793    15092586.000 2  11760451.112 1
 91  8 13  2  7 15.0000000  0  4 21 17 23 03
  22484760.821   -10403002.347 2  -8106222.955 2
  21544316.079     5980390.982 3   4660044.551 2
  20631845.267    -6447781.406 3  -5024239.680 3
  23333198.365    15150515.333 2  11805590.794 1
 91  8 13  2  7 30.0000000  0  4 21 17 23 03
  22477996.305   -10438554.409 3  -8133925.838 1
  21549596.026     6008156.496 3   4681680.014 2
  20633039.342    -6441485.895 3  -5019334.085 2
  23344240.016    15208530.405 2  11850797.337 1
 91  8 13  2  7 45.0000000  0  4 21 17 23 03
  22471238.682   -10474033.428 2  -8161571.809 1
  21554894.253     6035990.987 3   4703369.215 2
  20634258.597    -6435089.535 3  -5014349.902 3
  23355286.772    15266628.224 2  11896068.317 1
 91  8 13  2  8  0.0000000  0  4 21 17 23 03
  22464504.146   -10509437.936 2  -8189159.673 1
  21560199.084     6063895.900 3   4725113.297 2
  20635497.039    -6428591.244 3  -5009286.293 2
  23366365.601    15324809.799 2  11941404.663 1
 91  8 13  2  8 15.0000000  0  4 21 17 23 03
  22457779.800   -10544769.777 2  -8216690.981 1
  21565532.089     6091869.106 3   4746910.593 2
  20636750.776    -6421993.036 3  -5004144.837 2
  23377445.931    15383072.781 2  11986804.227 1
 91  8 13  2  8 30.0000000  0  4 21 17 23 03
  22451069.851   -10580026.993 3  -8244164.083 1
  21570864.204     6119912.585 3   4768762.640 2
  20638023.394    -6415293.239 3  -4998924.213 3
  23388558.334    15441419.120 2  12032268.886 1
 91  8 13  2  8 45.0000000  0  4 21 17 23 03
  22444376.384   -10615209.547 2  -8271579.039 1
  21576211.901     6148026.089 3   4790669.275 2
  20639322.694    -6408492.231 3  -4993624.729 2
  23399671.043    15499848.227 2  12077798.076 1
 91  8 13  2  9  0.0000000  0  4 21 17 23 03
  22437693.404   -10650315.984 2  -8298934.688 1
  21581576.988     6176211.203 3   4812631.699 2
  20640636.686    -6401588.580 3  -4988245.258 3
  23410806.533    15558361.161 2  12123392.479 1
 91  8 13  2  9 15.0000000  0  4 21 17 23 03
  22431028.721   -10685347.930 3  -8326232.302 1
  21586947.764     6204466.064 3   4834648.470 2
  20641968.958    -6394584.168 3  -4982787.278 3
  23421953.715    15616956.003 2  12169050.797 1
 91  8 13  2  9 30.0000000  0  4 21 17 23 03
  22424377.230   -10720302.400 3  -8353469.512 1
  21592347.332     6232793.539 3   4856721.818 2
  20643316.525    -6387476.207 3  -4977248.611 2
  23433126.382    15675635.274 2  12214774.769 1
 91  8 13  2  9 45.0000000  0  4 21 17 23 03
  22417739.525   -10755182.332 3  -8380648.655 1
  21597745.993     6261190.846 3   4878849.585 2
  20644688.383    -6380267.758 3  -4971631.637 3
  23444308.342    15734395.857 2  12260562.231 1
 91  8 13  2 10  0.0000000  0  4 21 17 23 03
  22411117.403   -10789990.030 3  -8407771.535 1
  21603161.145     6289655.536 3   4901029.858 2
  20646081.818    -6372961.364 3  -4965938.333 2
  23455501.697    15793234.945 2  12306410.934 1
 91  8 13  2 10 15.0000000  0  4 21 17 23 03
  22404506.380   -10824721.726 3  -8434835.153 1
  21608593.084     6318191.132 3   4923265.372 2
  20647493.235    -6365553.625 3  -4960166.070 3
  23466709.736    15852156.067 2  12352323.415 1
 91  8 13  2 10 30.0000000  0  4 21 17 23 03
  22397913.050   -10859376.526 3  -8461838.890 1
  21614040.309     6346798.361 3   4945556.713 2
  20648922.949    -6358043.671 3  -4954314.163 3
  23477951.053    15911159.632 2  12398300.185 1
 91  8 13  2 10 45.0000000  0  4 21 17 23 03
  22391332.599   -10893954.653 3  -8488782.859 1
  21619495.334     6375477.189 3   4967903.849 2
  20650368.551    -6350432.006 3  -4948382.998 2
  23489183.680    15970245.207 2  12444340.870 1
 91  8 13  2 11  0.0000000  0  4 21 17 23 03
  22384765.350   -10928455.567 2  -8515666.691 1
  21624964.450     6404227.822 3   4990306.943 2
  20651838.732    -6342718.293 3  -4942372.314 3
  23500441.487    16029412.762 2  12490445.366 1
 91  8 13  2 11 15.0000000  0  4 21 17 23 03
  22378216.981   -10962880.225 3  -8542491.079 1
  21630453.347     6433049.045 3   5012765.027 2
  20653323.003    -6334903.810 3  -4936283.108 2
  23511722.669    16088660.921 2  12536612.713 1
 91  8 13  2 11 30.0000000  0  4 21 17 23 03
  22371680.609   -10997229.616 2  -8569256.834 1
  21635950.942     6461940.130 3   5035277.557 2
  20654828.556    -6326989.672 3  -4930116.251 2
  23523014.958    16147988.558 2  12582842.000 1
 91  8 13  2 11 45.0000000  0  4 21 17 23 03
  22365155.920   -11031501.632 2  -8595962.254 2
  21641460.831     6490903.052 3   5057846.067 2
  20656352.405    -6318974.078 3  -4923870.338 3
  23534306.636    16207397.235 2  12629134.474 1
 91  8 13  2 12  0.0000000  0  4 21 17 23 03
  22358650.732   -11065694.617 3  -8622606.124 1
  21646990.796     6519939.310 3   5080471.723 2
  20657899.332    -6310855.515 3  -4917544.183 2
  23545636.993    16266888.116 2  12675490.939 1
 91  8 13  2 12 15.0000000  0  4 21 17 23 03
  22352157.820   -11099809.336 2  -8649188.996 1
  21652530.961     6549047.933 3   5103153.759 2
  20659464.852    -6302635.054 3  -4911138.628 2
  23556968.850    16326460.359 2  12721910.860 1
 91  8 13  2 12 30.0000000  0  4 21 17 23 03
  22345683.502   -11133848.744 3  -8675713.203 2
  21658081.919     6578226.057 3   5125889.950 2
  20661047.150    -6294315.921 3  -4904656.188 2
  23568324.693    16386110.655 2  12768391.499 1
 91  8 13  2 12 45.0000000  0  4 21 17 23 03
  22339219.679   -11167810.062 3  -8702176.556 1
  21663642.474     6607476.303 3   5148682.352 2
  20662651.044    -6285895.427 3  -4898094.760 3
  23579687.419    16445841.112 2  12814934.677 1
 91  8 13  2 13  0.0000000  0  4 21 17 23 03
  22332768.447   -11201695.823 2  -8728581.014 1
  21669223.412     6636795.799 3   5171528.720 2
  20664270.520    -6277376.341 3  -4891456.516 2
  23591070.842    16505649.143 2  12861538.315 1
 91  8 13  2 13 15.0000000  0  4 21 17 23 03
  22326334.604   -11235505.054 3  -8754925.864 1
  21674812.437     6666185.664 3   5194429.898 2
  20665911.591    -6268757.818 3  -4884740.781 2
  23602459.657    16565535.023 2  12908202.533 1
 91  8 13  2 13 30.0000000  0  4 21 17 23 03
  22319919.939   -11269238.523 3  -8781211.648 2
  21680419.157     6695645.216 3   5217385.379 2
  20667568.244    -6260040.746 3  -4877948.269 2
  23613877.849    16625498.003 2  12954926.860 1
 91  8 13  2 13 45.0000000  0  4 21 17 23 03
  22313512.778   -11302894.015 3  -8807436.690 1
  21686041.766     6725176.470 3   5240396.745 2
  20669245.577    -6251223.464 3  -4871077.659 2
  23625302.341    16685539.692 2  13001712.695 1
 91  8 13  2 14  0.0000000  0  4 21 17 23 03
  22307119.402   -11336472.192 2  -8833601.487 1
  21691675.464     6754778.614 3   5263463.342 2
  20670943.605    -6242306.699 3  -4864129.532 2
  23636734.929    16745659.068 2  13048558.919 1
 91  8 13  2 14 15.0000000  0  4 21 17 23 03
  22300748.510   -11369974.314 3  -8859707.011 1
  21697318.759     6784450.321 3   5286584.135 2
  20672659.014    -6233292.170 3  -4857105.224 3
  23648196.896    16805854.510 2  13095464.368 1
 91  8 13  2 14 30.0000000  0  4 21 17 23 03
  22294385.716   -11403401.634 3  -8885754.277 1
  21702978.842     6814190.034 3   5309757.943 2
  20674390.616    -6224181.183 3  -4850005.754 2
  23659668.154    16866124.241 2  13142427.745 1
 91  8 13  2 14 45.0000000  0  4 21 17 23 03
  22288044.508   -11436751.928 3  -8911741.491 1
  21708656.611     6844000.154 3   5332986.613 2
  20676144.102    -6214971.498 3  -4842829.371 2
  23671140.913    16926470.412 2  13189450.706 1
 91  8 13  2 15  0.0000000  0  4 21 17 23 03
  22281708.691   -11470024.984 3  -8937668.531 1
  21714338.280     6873880.727 3   5356270.178 2
  20677913.475    -6205663.355 3  -4835576.272 2
  23682649.340    16986892.649 2  13236532.937 1
 91  8 13  2 15 15.0000000  0  4 21 17 23 03
  22275393.265   -11503223.234 3  -8963537.285 2
  21720040.330     6903829.331 3   5379606.742 2
  20679706.834    -6196259.299 3  -4828248.444 3
  23694163.169    17047388.433 2  13283672.384 1
 91  8 13  2 15 30.0000000  0  4 21 17 23 03
  22269090.133   -11536344.688 3  -8989346.194 1
  21725754.369     6933847.711 3   5402997.670 2
  20681513.987    -6186757.473 3  -4820844.421 3
  23705685.399    17107959.003 2  13330870.275 1
 91  8 13  2 15 45.0000000  0  4 21 17 23 03
  22262798.684   -11569388.062 3  -9015094.264 1
  21731471.418     6963937.318 3   5426444.116 2
  20683342.718    -6177157.023 3  -4813363.564 3
  23717223.204    17168605.543 2  13378127.254 1
 91  8 13  2 16  0.0010000  0  4 21 17 23 03
  22256527.629   -11602355.634 3  -9040783.275 2
  21737219.933     6994099.748 3   5449947.310 2
  20685191.240    -6167457.509 3  -4805805.502 2
  23728783.208    17229331.461 2  13425446.078 1
 91  8 13  2 16 15.0010000  0  4 21 17 23 03
  22250267.058   -11635243.889 3  -9066410.457 2
  21742969.954     7024330.184 3   5473503.487 2
  20687052.349    -6157661.188 3  -4798172.010 2
  23740355.495    17290127.525 2  13472819.650 1
 91  8 13  2 16 30.0010000  0  4 21 17 23 03
  22244023.885   -11668055.354 3  -9091977.814 2
  21748737.662     7054630.139 3   5497113.841 2
  20688934.451    -6147768.235 3  -4790463.210 2
  23751933.182    17350997.084 2  13520250.395 1
 91  8 13  2 16 45.0010000  0  5 21 17 23 11 03
  22237791.801   -11700789.738 3  -9117485.118 2
  21754510.167     7084999.714 3   5520778.432 2
  20690832.738    -6137778.438 3  -4782678.945 2
  25029639.338           0.660 2         0.103 1
  23763541.145    17411940.012 2  13567738.358 1
 91  8 13  2 17  0.0010000  0  5 21 17 23 11 03
  22231583.694   -11733447.881 3  -9142932.998 2
  21760300.359     7115437.864 3   5544496.472 2
  20692755.604    -6127692.802 3  -4774820.024 3
  25019625.975      -52597.766 2    -40985.630 1
  23775136.213    17472955.120 2  13615282.615 1
 91  8 13  2 17 15.0010000  0  5 21 17 23 11 03
  22225379.793   -11766029.692 3  -9168321.426 1
  21766107.940     7145944.696 3   5568268.025 2
  20694689.263    -6117511.597 3  -4766886.617 3
  25009626.093     -105181.054 2    -81959.592 1
  23786767.560    17534042.084 2  13662882.786 1
 91  8 13  2 17 30.0010000  0  5 21 17 23 11 03
  22219197.469   -11798534.000 3  -9193649.436 2
  21771931.104     7176521.581 3   5592094.161 2
  20696644.211    -6107233.794 3  -4758877.942 3
  24999628.916     -157747.910 2   -122920.755 1
  23798404.011    17595201.709 2  13710539.581 1
 91  8 13  2 17 45.0010000  0  5 21 17 23 11 03
  22213024.445   -11830961.839 3  -9218917.874 2
  21777756.676     7207167.076 3   5615973.760 2
  20698621.643    -6096860.556 3  -4750794.910 3
  24989627.245     -210299.226 2   -163869.680 1
  23810061.733    17656432.536 2  13758251.840 1
 91  8 13  2 18  0.0010000  0  5 21 17 23 11 03
  22206870.905   -11863311.770 3  -9244125.597 2
  21783601.722     7237882.587 3   5639907.931 2
  20700615.863    -6086390.683 3  -4742636.564 2
  24979625.862     -262833.192 2   -204805.270 1
  23821720.965    17717735.938 2  13806020.667 1
 91  8 13  2 18 15.0010000  0  5 21 17 23 11 03
  22200728.752   -11895583.581 3  -9269272.459 2
  21789465.667     7268668.338 3   5663896.819 2
  20702626.267    -6075824.363 3  -4734403.069 3
  24969630.482     -315349.286 2   -245726.940 1
  23833392.788    17779111.375 2  13853845.682 1
 91  8 13  2 18 30.0010000  0  5 21 17 23 11 03
  22194600.401   -11927778.262 3  -9294359.197 2
  21795333.800     7299523.225 3   5687939.585 2
  20704655.867    -6065162.631 3  -4726095.231 3
  24959641.401     -367848.293 2   -286635.224 1
  23845093.089    17840557.618 2  13901725.790 1
 91  8 13  2 18 45.0010000  0  5 21 17 23 11 03
  22188489.431   -11959896.790 3  -9319386.612 1
  21801220.230     7330446.242 3   5712035.438 2
  20706698.651    -6054406.775 3  -4717714.045 2
  24949657.713     -420330.939 2   -327530.654 1
  23856797.282    17902073.306 2  13949660.231 1
 91  8 13  2 19  0.0010000  0  5 21 17 23 11 03
  22182390.754   -11991937.866 3  -9344353.680 1
  21807118.944     7361438.596 3   5736185.328 2
  20708766.022    -6043555.669 3  -4709258.642 2
  24939669.523     -472795.596 2   -368412.317 1
  23868516.167    17963659.363 2  13997649.166 1
 91  8 13  2 19 15.0010000  0  5 21 17 23 11 03
  22176307.364   -12023901.483 3  -9369260.373 2
  21813028.155     7392499.957 3   5760388.983 2
  20710848.679    -6032609.416 3  -4700729.089 3
  24929686.733     -525242.272 2   -409279.757 1
  23880250.043    18025315.471 2  14045692.762 1
 91  8 13  2 19 30.0010000  0  5 21 17 23 11 03
  22170245.560   -12055786.767 3  -9394106.062 1
  21818953.254     7423631.354 3   5784647.220 2
  20712948.123    -6021567.496 3  -4692125.000 3
  24919715.042     -577669.732 2   -450132.273 1
  23892002.215    18087042.189 2  14093791.398 1
 91  8 13  2 19 45.0010000  0  5 21 17 23 11 03
  22164191.852   -12087593.423 3  -9418890.444 1
  21824893.640     7454833.045 3   5808960.227 2
  20715066.458    -6010429.660 3  -4683446.169 3
  24909739.145     -630077.290 2   -490969.336
  23903753.174    18148839.435 2  14141945.182 1
 91  8 13  2 20  0.0010000  0  5 21 17 23 11 03
  22158151.634   -12119323.778 3  -9443615.385 1
  21830843.623     7486102.686 3   5833326.170 2
  20717207.573    -5999198.559 3  -4674694.665 2
  24899765.054     -682467.090 2   -531792.525 1
  23915539.513    18210704.219 2  14190151.455 1
 91  8 13  2 20 15.0010000  0  5 21 17 23 11 03
  22152125.803   -12150976.930 3  -9468280.168 1
  21836805.892     7517440.897 3   5857745.556 2
  20719360.983    -5987873.599 3  -4665870.028 3
  24889795.457     -734838.044 2   -572601.007 1
  23927313.864    18272637.427 2  14238410.992 1
 91  8 13  2 20 30.0010000  0  5 21 17 23 11 03
  22146118.260   -12182552.437 3  -9492884.440 2
  21842780.453     7548848.225 3   5882218.792 2
  20721532.078    -5976454.459 3  -4656971.998 3
  24879845.639     -787189.268 2   -613394.202 1
  23939114.592    18334639.141 2  14286723.975 1
 91  8 13  2 20 45.0010000  0  5 21 17 23 11 03
  22140124.512   -12214050.184 3  -9517428.119 2
  21848772.108     7580324.486 3   5906745.746 2
  20723725.064    -5964941.278 3  -4648000.693 3
  24869887.131     -839520.618 2   -654171.779 1
  23950921.618    18396708.825 2  14335089.942 1
 91  8 13  2 21  0.0010000  0  5 21 17 23 11 03
  22134145.448   -12245469.198 3  -9541910.468 2
  21854767.357     7611870.529 3   5931327.067 2
  20725932.132    -5953333.309 3  -4638955.523 3
  24859925.631     -891830.782 2   -694933.046 1
  23962758.930    18458847.192 2  14383509.349
 91  8 13  2 21 15.0010000  0  5 21 17 23 11 03
  22128182.577   -12276810.444 3  -9566332.203 1
  21860794.383     7643485.604 3   5955962.176 2
  20728159.295    -5941631.866 3  -4629837.516 3
  24849970.125     -944120.583 2   -735678.244 1
  23974592.935    18521052.717 2  14431981.217 1
 91  8 13  2 21 30.0010000  0  5 21 17 23 11 03
  22122234.095   -12308073.204 3  -9590692.786 1
  21866819.612     7675170.106 3   5980651.410 2
  20730405.339    -5929836.326 3  -4620646.196 3
  24840021.215     -996388.938 2   -776406.771 1
  23986435.333    18583326.128 2  14480505.855 1
 91  8 13  2 21 45.0010000  0  5 21 17 23 11 03
  22116300.000   -12339257.867 3  -9614992.522 1
  21872862.229     7706923.635 3   6005394.397 2
  20732666.076    -5917947.118 3  -4611381.879 3
  24830092.686    -1048635.978 2   -817118.741 1
  23998302.022    18645666.468 2  14529082.603 1
 91  8 13  2 22  0.0010000  0  5 21 17 23 11 03
  22110381.506   -12370362.718 3  -9639230.056 1
  21878916.844     7738747.748 3   6030192.413 2
  20734947.796    -5905962.957 3  -4602043.576 3
  24820155.765    -1100859.750 2   -857812.502 1
  24010177.698    18708075.074 2  14577712.783 1
 91  8 13  2 22 15.0010000  0  5 21 17 23 11 03
  22104474.694   -12401388.477 3  -9663405.956 2
  21884991.832     7770641.919 3   6055045.014 2
  20737248.398    -5893884.667 3  -4592631.923 3
  24810219.139    -1153060.452 2   -898488.288 1
  24022072.866    18770550.965 2  14626395.534 1
 91  8 13  2 22 30.0010000  0  5 21 17 23 11 03
  22098591.266   -12432334.692 3  -9687519.897 2
  21891068.033     7802606.205 3   6079952.254 2
  20739561.904    -5881712.084 3  -4583146.797 3
  24800293.613    -1205237.642 2   -939145.877 1
  24033974.630    18833094.127 2  14675130.522 1
 91  8 13  2 22 45.0010000  0  5 21 17 23 11 03
  22092715.629   -12463200.863 3  -9711571.435 2
  21897167.303     7834640.956 3   6104914.382 2
  20741893.986    -5869444.916 3  -4573587.962 3
  24790365.084    -1257390.521 2   -979784.431 1
  24045879.386    18895704.587 2  14723917.901 1
 91  8 13  2 23  0.0010000  0  5 21 17 23 11 03
  22086856.789   -12493986.542 3  -9735560.275 2
  21903277.078     7866746.754 3   6129931.878 2
  20744250.350    -5857082.962 3  -4563955.275 3
  24780443.458    -1309518.398 2  -1020403.499 1
  24057813.224    18958382.537 2  14772757.752 1
 91  8 13  2 23 15.0010000  0  5 21 17 23 11 03
  22081013.234   -12524693.753 3  -9759487.959 1
  21909399.138     7898921.584 3   6155003.186 2
  20746617.813    -5844628.498 3  -4554250.507 3
  24770530.521    -1361623.059 2  -1061004.468 1
  24069749.155    19021125.552 2  14821648.407 1
 91  8 13  2 23 30.0010000  0  5 21 17 23 11 03
  22075184.670   -12555322.443 3  -9783354.455 1
  21915535.594     7931165.464 3   6180128.287 2
  20749005.665    -5832081.539 3  -4544473.660 3
  24760620.281    -1413704.040 2  -1101587.101 1
  24081689.894    19083933.440 2  14870589.530 1
 91  8 13  2 23 45.0010000  0  5 21 17 23 11 03
  22069367.194   -12585870.525 3  -9807158.151 1
  21921679.833     7963480.181 3   6205308.586 2
  20751412.094    -5819440.187 3  -4534623.251 2
  24750716.637    -1465759.072 2  -1142149.425 1
  24093671.999    19146807.776 2  14919582.478 1
 91  8 13  2 24  0.0010000  0  5 21 17 23 11 03
  22063574.909   -12616340.116 3  -9830900.673 2
  21927839.673     7995863.559 3   6230542.387 2
  20753836.514    -5806706.772 3  -4524701.111 3
  24740809.398    -1517789.925 2  -1182692.911 1
  24105653.205    19209746.217 2  14968625.415 1
 91  8 13  2 24 15.0010000  0  5 21 17 23 11 03
  22057789.507   -12646730.678 3  -9854581.627 1
  21934024.091     8028316.184 3   6255830.150 2
  20756277.128    -5793880.987 3  -4514707.007 3
  24730917.140    -1569795.731 2  -1223216.834 1
  24117641.007    19272748.834 2  15017718.382 1
 91  8 13  2 24 30.0010000  0  5 21 17 23 11 03
  22052025.700   -12677042.084 3  -9878200.893 1
  21940212.104     8060838.020 3   6281171.831 2
  20758734.825    -5780962.940 3  -4504640.996 3
  24721029.384    -1621776.308 2  -1263721.166 1
  24129634.202    19335815.255 2  15066860.886 1
 91  8 13  2 24 45.0010000  0  5 21 17 23 11 03
  22046270.584   -12707273.523 3  -9901757.845 1
  21946415.115     8093429.808 3   6306568.016 2
  20761211.412    -5767952.080 3  -4494502.656 3
  24711140.136    -1673730.406 2  -1304204.828 1
  24141648.685    19398946.064 2  15116053.706 1
 91  8 13  2 25  0.0010000  0  5 21 17 23 11 03
  22040532.254   -12737425.893 3  -9925253.205 1
  21952626.817     8126090.642 3   6332018.010 2
  20763702.989    -5754849.442 3  -4484292.821 3
  24701255.975    -1725658.625 2  -1344668.369 1
  24153672.461    19462140.176 2  15165295.765 1
 91  8 13  2 25 15.0010000  0  5 21 17 23 11 03
  22034808.321   -12767498.137 3  -9948686.116 2
  21958847.802     8158821.420 3   6357522.507 2
  20766214.948    -5741654.235 3  -4474010.851 3
  24691383.514    -1777559.699 2  -1385110.679 1
  24165713.923    19525397.873 2  15214587.635 1
 91  8 13  2 25 30.0010000  0  5 21 17 23 11 03
  22029100.869   -12797490.736 3  -9972056.963 2
  21965094.282     8191621.463 3   6383080.971 2
  20768740.701    -5728367.163 3  -4463657.284 3
  24681511.647    -1829433.892 2  -1425532.153 1
  24177763.778    19588718.627 2  15263928.656 1
 91  8 13  2 25 45.0010000  0  5 21 17 23 11 03
  22023410.510   -12827403.117 3  -9995365.296 2
  21971351.250     8224491.359 3   6408693.873 2
  20771286.836    -5714987.914 3  -4453231.899 3
  24671646.376    -1881280.270 2  -1465931.925 1
  24189822.036    19652102.431 2  15313318.659 1
 91  8 13  2 26  0.0010000  0  5 21 17 23 11 03
  22017730.639   -12857238.083 3 -10018613.313 2
  21977616.916     8257428.250 3   6434358.970 2
  20773855.456    -5701519.557 3  -4442737.083 3
  24661782.902    -1933101.376 2  -1506311.971 1
  24201896.173    19715546.221 2  15362755.377 1
 91  8 13  2 26 15.0010000  0  5 21 17 23 11 03
  22012067.267   -12886995.371 3 -10041800.803 1
  21983901.464     8290432.434 3   6460076.525 2
  20776432.173    -5687961.817 3  -4432172.607 3
  24651926.626    -1984896.653 2  -1546671.903 1
  24213982.010    19779049.923 2  15412238.696 1
 91  8 13  2 26 30.0010000  0  5 21 17 23 11 03
  22006422.470   -12916672.502 3 -10064925.828 2
  21990192.904     8323506.353 3   6485848.394 2
  20779031.374    -5674312.546 3  -4421536.826 3
  24642070.953    -2036663.362 2  -1587009.491 1
  24226076.538    19842615.564 2  15461770.354 1
 91  8 13  2 26 45.0010000  0  5 21 17 23 11 03
  22000789.671   -12946268.524 3 -10087987.656 1
  21996501.742     8356650.733 3   6511675.178 2
  20781645.565    -5660570.840 3  -4410828.997 2
  24632234.160    -2088400.216 2  -1627323.902 1
  24238183.351    19906243.724 2  15511350.732 1
 91  8 13  2 27  0.0010000  0  5 21 17 23 11 03
  21995172.760   -12975786.996 3 -10110989.051 2
  22002817.770     8389861.823 3   6537553.950 2
  20784276.848    -5646740.734 3  -4400052.293 2
  24622388.372    -2140110.650 2  -1667617.746 1
  24250307.265    19969930.336 2  15560976.594 1
 91  8 13  2 27 15.0010000  0  5 21 17 23 11 03
  21989569.041   -13005225.465 3 -10133928.142 2
  22009147.584     8423142.084 3   6563486.628 2
  20786926.707    -5632819.998 3  -4389204.968 3
  24612547.392    -2191791.874 2  -1707888.779 1
  24262432.671    20033677.590 2  15610649.655 1
 91  8 13  2 27 30.0010000  0  5 21 17 23 11 03
  21983983.009   -13034584.349 3 -10156805.158 2
  22015498.686     8456491.374 3   6589473.086 2
  20789589.768    -5618808.896 3  -4378287.229 3
  24602722.291    -2243443.841 2  -1748137.104 1
  24274582.952    20097484.988 2  15660369.691 1
 91  8 13  2 27 45.0010000  0  5 21 17 23 11 03
  21978411.363   -13063862.866 3 -10179619.576 2
  22021854.885     8489909.896 3   6615513.489 2
  20792275.906    -5604707.220 3  -4367298.903 3
  24592902.286    -2295065.718 2  -1788361.845 1
  24286721.254    20161352.444 2  15710136.472 1
 91  8 13  2 28  0.0010000  0  5 21 17 23 11 03
  21972854.106   -13093061.084 3 -10202371.428 2
  22028230.269     8523397.537 3   6641607.753 2
  20794977.933    -5590515.110 3  -4356240.120 3
  24583086.180    -2346657.172 2  -1828562.891 1
  24298893.130    20225279.864 2  15759950.254 1
 91  8 13  2 28 15.0010000  0  5 21 17 23 11 03
  21967314.246   -13122179.405 3 -10225061.011 2
  22034608.961     8556954.197 3   6667755.789 2
  20797694.059    -5576233.401 3  -4345111.524 3
  24573270.983    -2398218.346 2  -1868740.453 1
  24311077.291    20289266.264 2  15809809.945 1
 91  8 13  2 28 30.0010000  0  5 21 17 23 11 03
  21961790.267   -13151218.601 3 -10247688.957 1
  22041013.121     8590578.800 3   6693956.771 1
  20800426.362    -5561862.836 3  -4333913.682 2
  24563466.569    -2449749.688 2  -1908894.638 1
  24323256.958    20353310.631 2  15859714.695 1
 91  8 13  2 28 45.0010000  0  5 21 17 23 11 03
  21956276.783   -13180178.223 3 -10270254.884 1
  22047425.387     8624271.665 3   6720210.938 2
  20803180.861    -5547403.160 3  -4322646.402 2
  24553668.446    -2501250.419 2  -1949025.186 1
  24335445.324    20417413.136 2  15909664.505 1
 91  8 13  2 29  0.0010000  0  5 21 17 23 11 03
  21950778.595   -13209058.509 3 -10292758.990 2
  22053847.241     8658032.734 3   6746518.262 2
  20805947.942    -5532854.745 3  -4311309.977 3
  24543870.332    -2552720.507 2  -1989131.643 1
  24347665.162    20481573.185 2  15959659.387 1
 91  8 13  2 29 15.0010000  0  5 21 17 23 11 03
  21945301.983   -13237858.514 3 -10315200.559 1
  22060290.682     8691862.623 3   6772879.218 2
  20808738.110    -5518216.779 3  -4299903.774 3
  24534086.903    -2604158.794 2  -2029213.466 1
  24359884.703    20545790.978 2  16009699.204 1
 91  8 13  2 29 30.0010000  0  5 21 17 23 11 03
  21939837.666   -13266578.846 3 -10337580.011 2
  22066744.008     8725760.830 3   6799293.397 2
  20811536.374    -5503490.359 3  -4288428.644 2
  24524298.683    -2655565.394 2  -2069270.495 1
  24372109.942    20610066.029 1  16059783.503 1
 91  8 13  2 29 45.0010000  0  5 21 17 23 11 03
  21934381.140   -13295217.369 3 -10359895.738 2
  22073208.432     8759729.531 3   6825762.525 2
  20814353.223    -5488673.416 3  -4276882.961 2
  24514531.447    -2706937.957 2  -2109301.009 1
  24384351.968    20674400.069 2  16109913.877 1
 91  8 13  2 30  0.0010000  0  5 21 17 23 11 03
  21928954.000   -13323775.275 3 -10382148.636 2
  22079679.758     8793767.128 3   6852285.322 2
  20817191.658    -5473767.528 3  -4265267.991 3
  24504756.708    -2758277.459 2  -2149305.799 1
  24396614.672    20738791.311 2  16160088.831 1
 91  8 13  2 30 15.0010000  0  5 21 17 23 11 03
  21923534.050   -13352255.220 3 -10404340.784 2
  22086169.660     8827871.055 3   6878859.805 2
  20820042.980    -5458775.411 3  -4253585.833 3
  24494991.269    -2809586.087 2  -2189286.525 1
  24408871.687    20803236.954 2  16210306.285 1
 91  8 13  2 30 30.0010000  0  5 21 17 23 11 03
  21918128.199   -13380656.769 3 -10426471.862 2
  22092682.352     8862041.650 3   6905486.236 2
  20822911.997    -5443696.690 3  -4241836.176 2
  24485237.522    -2860863.263 2  -2229242.773 1
  24421150.289    20867736.794 2  16260565.741 1
 91  8 13  2 30 45.0010000  0  5 21 17 23 11 03
  21912736.727   -13408976.039 3 -10448538.821 2
  22099185.751     8896282.739 3   6932167.604 2
  20825799.301    -5428527.906 3  -4230016.353 3
  24475481.978    -2912104.820 2  -2269171.227 1
  24433438.479    20932294.384 2  16310870.394
 91  8 13  2 31  0.0010000  0  5 21 17 23 11 03
  21907365.350   -13437215.342 3 -10470543.462 1
  22105714.035     8930591.740 3   6958901.889 2
  20828705.487    -5413271.704 3  -4218128.406 2
  24465733.021    -2963312.821 2  -2309073.531 1
  24445728.772    20996907.032 2  16361217.717 1
 91  8 13  2 31 15.0010000  0  5 21 17 23 11 03
  21902006.257   -13465374.336 3 -10492485.530 2
  22112258.198     8964969.222 3   6985689.530 2
  20831623.669    -5397927.703 3  -4206172.039 3
  24455994.264    -3014486.627 2  -2348949.171 1
  24458040.354    21061574.545 2  16411608.020 1
 91  8 13  2 31 30.0010000  0  5 21 17 23 11 03
  21896667.249   -13493453.499 3 -10514365.383 2
  22118815.266     8999414.412 3   7012529.924 2
  20834559.537    -5382496.437 3  -4194147.680 3
  24446268.097    -3065626.098 2  -2388798.066 1
  24470351.326    21126296.511 2  16462040.642 1
 91  8 13  2 31 45.0010000  0  5 21 17 23 11 03
  21891336.347   -13521453.359 3 -10536183.440 2
  22125379.819     9033926.892 3   7039422.767 2
  20837515.491    -5366979.007 3  -4182056.177 3
  24436543.135    -3116731.778 2  -2428620.656 1
  24482680.891    21191071.809 2  16512514.903 1
 91  8 13  2 32  0.0010000  0  5 21 17 23 11 03
  21886024.318   -13549373.720 3 -10557939.556 2
  22131961.466     9068506.803 3   7066368.149 2
  20840482.830    -5351375.214 3  -4169897.377 2
  24426826.260    -3167803.045 2  -2468416.407 1
  24495007.157    21255900.376 2  16563030.567 1
 91  8 13  2 32 15.0010000  0  5 21 17 23 11 03
  21880723.692   -13577215.668 3 -10579634.571 2
  22138556.296     9103152.889 3   7093365.094 2
  20843467.271    -5335686.480 3  -4157672.392 3
  24417114.184    -3218840.681 2  -2508185.999 1
  24507366.702    21320780.692 2  16613586.623 1
 91  8 13  2 32 30.0010000  0  5 21 17 23 11 03
  21875440.150   -13604975.833 3 -10601265.864 2
  22145165.522     9137868.489 3   7120416.208 2
  20846468.491    -5319909.516 3  -4145378.657 3
  24407416.793    -3269840.914 2  -2547926.388 1
  24519713.054    21385715.609 2  16664185.346 1
 91  8 13  2 32 45.0010000  0  5 21 17 23 11 03
  21870170.699   -13632654.469 3 -10622833.621 2
  22151781.938     9172653.236 3   7147521.187 2
  20849489.795    -5304044.711 3  -4133016.479 2
  24397709.813    -3320803.800 2  -2587637.649 1
  24532084.595    21450704.891 2  16714826.280 1
 91  8 13  2 33  0.0010000  0  5 21 17 23 11 03
  21864922.529   -13660254.290 3 -10644339.961 2
  22158410.054     9207504.366 3   7174677.910 2
  20852523.699    -5288095.108 3  -4120588.218 2
  24388019.026    -3371731.881 2  -2627321.834 1
  24544465.123    21515744.988 2  16765506.788 1
 91  8 13  2 33 15.0010000  0  5 21 17 23 11 03
  21859689.348   -13687773.881 3 -10665783.791 2
  22165060.349     9242422.916 3   7201887.168 2
  20855576.483    -5272059.572 3  -4108092.996 2
  24378335.726    -3422623.339 2  -2666977.414 1
  24556848.051    21580837.182 2  16816227.847 1
 91  8 13  2 33 30.0010000  0  5 21 17 23 11 03
  21854464.866   -13715212.023 3 -10687164.150 2
  22171721.438     9277410.282 3   7229150.048 2
  20858642.461    -5255936.860 3  -4095529.846 2
  24368664.423    -3473476.569 2  -2706603.291 1
  24569248.367    21645982.289 2  16866990.299 1
 91  8 13  2 33 45.0010000  0  5 21 17 23 11 03
  21849255.976   -13742569.477 3 -10708481.645 1
  22178389.724     9312465.686 3   7256465.942 2
  20861727.031    -5239728.207 3  -4082899.724 2
  24358991.619    -3524292.180 2  -2746199.889 1
  24581636.983    21711179.215 2  16917793.049 1
 91  8 13  2 34  0.0010000  0  5 21 17 23 11 03
  21844067.163   -13769846.688 3 -10729736.597 2
  22185074.789     9347588.615 3   7283834.462 2
  20864825.683    -5223434.154 3  -4070203.066 3
  24349312.820    -3575070.220 2  -2785767.197 1
  24594074.478    21776427.201 2  16968635.462
 91  8 13  2 34 15.0010000  0  5 21 17 23 11 03
  21838886.751   -13797042.597 3 -10750928.204 2
  22191768.859     9382780.161 3   7311256.449 2
  20867946.821    -5207053.791 3  -4057439.150 3
  24339668.800    -3625809.228 2  -2825303.948 1
  24606496.075    21841726.700 2  17019518.196 1
 91  8 13  2 34 30.0010000  0  5 21 17 23 11 03
  21833730.919   -13824158.012 3 -10772057.095 2
  22198476.112     9418039.424 3   7338731.196 2
  20871078.454    -5190588.149 3  -4044608.780 3
  24330023.271    -3676509.741 2  -2864810.848 1
  24618942.862    21907076.727 2  17070440.227 1
 91  8 13  2 34 45.0010000  0  5 21 17 23 11 03
  21828585.888   -13851193.681 3 -10793123.838 2
  22205194.760     9453365.507 3   7366258.017 2
  20874227.172    -5174038.119 3  -4031712.659 2
  24320379.548    -3727172.121 2  -2904287.972 1
  24631369.860    21972476.209 2  17121400.929 1
 91  8 13  2 35  0.0010000  0  5 21 17 23 11 03
  21823457.932   -13878147.928 3 -10814127.145 2
  22211938.894     9488759.946 3   7393838.093 2
  20877394.482    -5157402.454 3  -4018749.803 2
  24310749.619    -3777794.528 2  -2943734.019 1
  24643822.937    22037926.497 2  17172401.047 1
 91  8 13  2 35 15.0010000  0  5 21 17 23 11 03
  21818343.177   -13905019.921 3 -10835066.351 2
  22218680.026     9524223.647 3   7421472.145 2
  20880578.580    -5140680.169 3  -4005719.456 2
  24301126.278    -3828375.697 2  -2983147.987 1
  24656296.702    22103428.025 2  17223441.150 1
 91  8 13  2 35 30.0010000  0  5 21 17 23 11 03
  21813243.709   -13931809.039 3 -10855940.965 2
  22225443.347     9559757.322 3   7449160.713 2
  20883781.262    -5123870.914 3  -3992621.331 2
  24291510.737    -3878914.647 2  -3022528.898 1
  24668757.571    22168980.741 1  17274521.175
 91  8 13  2 35 45.0010000  0  5 21 17 23 11 03
  21808165.818   -13958516.450 3 -10876751.928 2
  22232219.554     9595359.324 3   7476902.516 2
  20886991.439    -5106976.242 3  -3979456.650 2
  24281899.392    -3929412.191 2  -3061877.617 1
  24681243.629    22234583.499 2  17325640.118 1
 91  8 13  2 36  0.0010000  0  5 21 17 23 11 03
  21803097.533   -13985141.090 3 -10897498.388 1
  22239003.859     9631030.407 3   7504698.181 2
  20890223.795    -5089995.409 3  -3966224.837 3
  24272295.839    -3979866.977 2  -3101193.004 1
  24693753.969    22300236.844 2  17376798.472 1
 91  8 13  2 36 15.0010000  0  5 21 17 23 11 03
  21798047.222   -14011686.424 3 -10918183.073 2
  22245805.849     9666767.477 3   7532545.253 1
  20893470.547    -5072931.984 3  -3952928.664 2
  24262701.884    -4030282.263 2  -3140477.569 1
  24706255.916    22365937.030 2  17427993.401 1
 91  8 13  2 36 30.0010000  0  5 21 17 23 11 03
  21793011.010   -14038150.323 3 -10938804.285 2
  22252618.335     9702572.854 3   7560445.534 2
  20896730.196    -5055783.986 3  -3939566.586 2
  24253113.914    -4080655.678 2  -3179729.542 1
  24718753.064    22431685.577 2  17479225.908 1
 91  8 13  2 36 45.0010000  0  5 21 17 23 11 03
  21787989.789   -14064530.911 3 -10959360.567 2
  22259444.311     9738447.868 3   7588400.081 1
  20900010.226    -5038549.601 3  -3926137.202 2
  24243539.146    -4130984.992 2  -3218947.266 1
  24731280.793    22497484.030 2  17530497.504 1
 91  8 13  2 37  0.0010000  0  5 21 17 23 11 03
  21782983.251   -14090832.205 3 -10979855.080 2
  22266284.368     9774388.668 3   7616405.933 1
  20903307.043    -5021232.894 3  -3912643.665 2
  24233968.574    -4181273.734 2  -3258133.240 1
  24743814.517    22563328.193 2  17581804.772 1
 91  8 13  2 37 15.0010000  0  5 21 17 23 11 03
  21777998.605   -14117052.778 3 -11000286.682 2
  22273141.222     9810396.684 3   7644464.115 2
  20906617.646    -5003832.862 3  -3899085.197 2
  24224396.798    -4231520.226 2  -3297286.364 1
  24756349.436    22629219.138 2  17633148.174 1
 91  8 13  2 37 30.0010000  0  5 21 17 23 11 03
  21773021.149   -14143191.569 3 -11020654.579 2
  22280003.477     9846472.861 3   7672575.426 2
  20909944.443    -4986348.683 3  -3885461.164 2
  24214852.611    -4281723.053 2  -3336405.385 1
  24768893.054    22695157.557 2  17684528.779 1
 91  8 13  2 37 45.0010000  0  5 21 17 23 11 03
  21768064.685   -14169248.274 3 -11040958.481 2
  22286884.307     9882617.438 3   7700740.017 2
  20913286.229    -4968780.227 3  -3871771.460 2
  24205310.814    -4331881.430 2  -3375489.749 1
  24781452.255    22761143.465 2  17735946.295 1
 91  8 13  2 38  0.0010000  0  5 21 17 23 11 03
  21763123.202   -14195225.916 3 -11061200.793 2
  22293775.040     9918827.155 3   7728955.387 1
  20916645.710    -4951130.682 3  -3858018.557 3
  24195775.614    -4381998.276 2  -3414541.873 1
  24794021.359    22827173.429 2  17787398.204 1
 91  8 13  2 38 15.0010000  0  5 21 17 23 11 03
  21758194.912   -14221122.349 3 -11081379.831 2
  22300680.161     9955104.049 3   7757223.102 2
  20920016.578    -4933398.323 3  -3844201.146 3
  24186244.610    -4432071.050 2  -3453559.611 1
  24806594.947    22893248.961 2  17838885.435 1
 91  8 13  2 38 30.0010000  0  5 21 17 23 11 03
  21753281.018   -14246936.377 3 -11101494.644 2
  22307590.980     9991449.477 3   7785544.226 2
  20923412.626    -4915582.094 3  -3830318.377 3
  24176718.702    -4482098.414 2  -3492541.889 1
  24819172.148    22959371.056 2  17890409.241 1
 91  8 13  2 38 45.0010000  0  5 21 17 23 11 03
  21748383.605   -14272670.464 3 -11121547.183 2
  22314526.377    10027860.840 3   7813916.709 2
  20926820.662    -4897684.613 3  -3816372.283 3
  24167209.590    -4532082.392 2  -3531490.425 1
  24831769.425    23025537.035 2  17941967.133 1
 91  8 13  2 39  0.0010000  0  5 21 17 23 11 03
  21743503.285   -14298321.629 3 -11141535.083 2
  22321463.571    10064340.957 3   7842342.780 2
  20930239.797    -4879703.041 3  -3802360.675 2
  24157709.770    -4582019.585 2  -3570402.469 1
  24844373.901    23091749.401 1  17993561.101 1
 91  8 13  2 39 15.0010000  0  4 21 17 23 11
  21738636.751   -14323889.738 3 -11161458.270 2
  22328411.864    10100889.970 3   7870822.527 2
  20933676.914    -4861637.336 3  -3788283.503 2
  24148212.637    -4631909.562 2  -3609277.810 1
 91  8 13  2 39 30.0010000  0  4 21 17 23 11
  21733787.310   -14349376.027 3 -11181317.720 2
  22335383.235    10137506.678 3   7899355.011 1
  20937129.631    -4843488.938 3  -3774141.894 3
  24138732.902    -4681753.224 2  -3648117.016 1
 91  8 13  2 39 45.0010000  0  4 21 17 23 11
  21728952.256   -14374780.270 3 -11201113.233 2
  22342365.102    10174191.183 3   7927940.341 2
  20940602.425    -4825257.741 3  -3759935.769 2
  24129262.163    -4731549.939 2  -3686919.536 1
 91  8 13  2 40  0.0010000  0  4 21 17 23 11
  21724132.497   -14400103.540 3 -11220845.644 2
  22349358.058    10210942.123 3   7956577.439 2
  20944084.215    -4806945.201 3  -3745666.259 3
  24119780.326    -4781300.529 2  -3725686.191 1
 91  8 13  2 40 15.0010000  0  4 21 17 23 11
  21719333.722   -14425345.664 3 -11240514.819 2
  22356373.805    10247759.723 3   7985266.472 1
  20947585.487    -4788551.290 3  -3731333.338 3
  24110335.962    -4831004.423 2  -3764416.495 1
 91  8 13  2 40 30.0010000  0  4 21 17 23 11
  21714541.238   -14450506.314 3 -11260120.504 2
  22363382.057    10284644.219 3   8014007.650 2
  20951096.960    -4770075.847 3  -3716936.897 3
  24100878.712    -4880661.015 2  -3803109.918 1
 91  8 13  2 40 45.0010000  0  4 21 17 23 11
  21709769.135   -14475584.823 3 -11279662.188 2
  22370417.583    10321596.456 3   8042801.593 1
  20954630.612    -4751518.565 3  -3702476.686 3
  24091444.540    -4930269.194 2  -3841765.642 1
 91  8 13  2 41  0.0010000  0  4 21 17 23 11
  21705008.131   -14500580.746 3 -11299139.529 2
  22377460.308    10358616.584 3   8071648.447 1
  20958182.254    -4732879.070 3  -3687952.389 3
  24082008.876    -4979828.309 2  -3880383.053 1
 91  8 13  2 41 15.0010000  0  4 21 17 23 11
  21700271.715   -14525496.793 3 -11318554.627 2
  22384515.623    10395701.805 3   8100546.045 1
  20961742.587    -4714160.308 3  -3673366.351 3
  24072588.794    -5029340.632 2  -3918964.063 1
 91  8 13  2 41 30.0010000  0  4 21 17 23 11
  21695547.888   -14550331.617 3 -11337906.422 2
  22391589.226    10432853.435 3   8129495.366 1
  20965317.317    -4695361.191 3  -3658717.686 3
  24063177.412    -5078804.539 2  -3957507.379 1
 91  8 13  2 41 45.0010000  0  4 21 17 23 11
  21690836.050   -14575084.396 3 -11357194.309 2
  22398668.822    10470072.382 3   8158497.130 2
  20968910.029    -4676480.868 3  -3644005.747 3
  24053765.428    -5128218.789 2  -3996011.875 1
 91  8 13  2 42  0.0010000  0  4 21 17 23 11
  21686142.195   -14599755.163 3 -11376418.249 2
  22405762.816    10507358.651 3   8187551.384 1
  20972518.027    -4657519.559 3  -3629230.708 3
  24044374.724    -5177583.135 2  -4034477.619 1
 91  8 13  2 42 15.0010000  0  4 21 17 23 11
  21681463.032   -14624344.868 3 -11395579.069 2
  22412874.190    10544710.993 3   8216657.095 1
  20976144.017    -4638478.409 3  -3614393.464 3
  24034989.726    -5226898.174 2  -4072904.871 1
 91  8 13  2 42 30.0010000  0  4 21 17 23 11
  21676796.469   -14648852.225 3 -11414675.711 2
  22419992.762    10582130.600 3   8245815.224 1
  20979784.996    -4619356.520 3  -3599493.291 2
  24025618.514    -5276162.500 2  -4111292.711 1
 91  8 13  2 42 45.0010000  0  4 21 17 23 11
  21672149.083   -14673277.385 3 -11433708.289 2
  22427130.520    10619617.224 2   8275025.593 1
  20983438.871    -4600154.118 3  -3584530.372 3
  24016256.595    -5325375.787 2  -4149640.702 1
 91  8 13  2 43  0.0010000  0  4 21 17 23 11
  21667516.687   -14697619.637 3 -11452676.280 2
  22434273.374    10657171.572 3   8304288.701 1
  20987107.125    -4580870.762 3  -3569504.395 3
  24006898.566    -5374536.853 2  -4187947.971 1
 91  8 13  2 43 15.0010000  0  4 21 17 23 11
  21662903.487   -14721878.643 3 -11471579.382 2
  22441436.915    10694793.941 3   8333604.833 1
  20990787.681    -4561506.410 3  -3554415.280 2
  23997555.537    -5423645.110 2  -4226214.123 1
 91  8 13  2 43 30.0010000  0  4 21 17 23 11
  21658298.671   -14746056.107 3 -11490418.966 1
  22448608.850    10732482.594 2   8362972.613 1
  20994488.322    -4542062.736 3  -3539264.361 3
  23988222.698    -5472701.872 2  -4264440.134 1
 91  8 13  2 43 45.0010000  0  4 21 17 23 11
  21653714.848   -14770151.770 3 -11509194.795 2
  22455789.179    10770237.709 3   8392392.184 1
  20998205.742    -4522539.690 3  -3524051.609 2
  23978890.461    -5521706.558 2  -4302625.569 1
 91  8 13  2 44  0.0010000  0  4 21 17 23 11
  21649146.904   -14794167.230 3 -11527908.148 2
  22462994.094    10808057.610 3   8421862.221 1
  21001937.559    -4502939.081 3  -3508778.408 3
  23969572.010    -5570660.381 2  -4340771.401 1
 91  8 13  2 44 15.0010000  0  4 21 17 23 11
  21644590.958   -14818101.446 3 -11546558.176 2
  22470197.509    10845943.212 3   8451383.468 2
  21005679.269    -4483260.188 3  -3493444.199 3
  23960266.454    -5619562.070 2  -4378876.560 1
 91  8 13  2 44 30.0010000  0  4 21 17 23 11
  21640052.401   -14841953.781 3 -11565144.399 2
  22477419.805    10883895.199 3   8480956.430 1
  21009441.065    -4463502.539 3  -3478048.642 3
  23950970.191    -5668410.595 2  -4416940.341 1
 91  8 13  2 44 45.0010000  0  4 21 17 23 11
  21635530.334   -14865723.833 3 -11583666.521 2
  22484654.395    10921913.951 3   8510581.437 1
  21013213.959    -4443665.842 3  -3462591.477 2
  23941691.614    -5717205.192 2  -4454962.146 1
 91  8 13  2 45  0.0010000  0  4 21 17 23 11
  21631021.459   -14889412.888 3 -11602125.507 2
  22491907.578    10959998.085 3   8540257.383 2
  21017005.726    -4423751.565 3  -3447073.861 3
  23932416.334    -5765946.681 2  -4492942.425 1
 91  8 13  2 45 15.0010000  0  4 21 17 23 11
  21626524.268   -14913020.514 3 -11620521.058 2
  22499160.753    10998148.004 3   8569984.592 1
  21020808.294    -4403759.336 3  -3431495.503 3
  23923146.150    -5814634.304 2  -4530880.814 1
 91  8 13  2 45 30.0010000  0  4 21 17 23 11
  21622051.969   -14936551.075 3 -11638856.548 2
  22506437.921    11036358.982 3   8599759.370 1
  21024622.859    -4383693.922 3  -3415860.118 3
  23913893.652    -5863272.071 2  -4568780.361 1
 91  8 13  2 45 45.0010000  0  4 21 17 23 11
  21617593.752   -14959999.855 3 -11657128.324 2
  22513722.872    11074635.793 3   8629585.470 1
  21028456.602    -4363550.699 3  -3400164.103 2
  23904646.258    -5911854.968 2  -4606637.096 1
 91  8 13  2 46  0.0010000  0  4 21 17 23 11
  21613140.937   -14983367.950 3 -11675337.224 2
  22521020.422    11112977.382 3   8659462.015 1
  21032307.438    -4343331.141 3  -3384408.599 3
  23895412.947    -5960383.736 2  -4644451.718 1
 91  8 13  2 46 15.0010000  0  4 21 17 23 11
  21608712.699   -15006654.657 3 -11693482.694 2
  22528319.473    11151384.356 3   8689389.519 2
  21036171.160    -4323034.639 3  -3368593.144 3
  23886196.431    -6008857.283 2  -4682223.271 1
 91  8 13  2 46 30.0010000  0  4 21 17 23 11
  21604294.662   -15029850.284 3 -11711557.215 2
  22535647.596    11189866.184 3   8719375.350 1
  21040048.380    -4302651.633 3  -3352710.292 3
  23876980.814    -6057265.694 2  -4719944.071 1
 91  8 13  2 46 45.0010000  0  4 21 17 23 11
  21599895.802   -15052957.027 3 -11729562.454 2
  22542979.017    11228420.781 3   8749417.897 1
  21043942.379    -4282184.383 3  -3336761.787 3
  23867778.983    -6105610.667 2  -4757615.443 1
 91  8 13  2 47  0.0010000  0  4 21 17 23 11
  21595519.436   -15075980.456 3 -11747502.778 2
  22550326.632    11267042.607 2   8779512.826 1
  21047852.275    -4261638.641 3  -3320752.115 2
  23858594.541    -6153897.234 2  -4795241.353 1
 91  8 13  2 47 15.0010000  0  4 21 17 23 11
  21591154.456   -15098923.853 3 -11765380.754 2
  22557688.338    11305728.112 2   8809657.369 1
  21051777.754    -4241017.957 3  -3304684.061 3
  23849407.996    -6202128.579 2  -4832824.136 1
 91  8 13  2 47 30.0010000  0  4 21 17 23 11
  21586803.567   -15121786.303 3 -11783195.632 2
  22565067.127    11344478.192 2   8839852.228 1
  21055714.933    -4220321.718 3  -3288557.127 3
  23840247.844    -6250303.233 2  -4870362.788 1
 91  8 13  2 47 45.0010000  0  4 21 17 23 11
  21582467.066   -15144565.881 3 -11800945.953 2
  22572449.215    11383294.876 2   8870098.980 1
  21059668.297    -4199548.021 3  -3272369.833 3
  23831092.177    -6298418.745 2  -4907855.433 1
 91  8 13  2 48  0.0010000  0  4 21 17 23 11
  21578147.963   -15167263.098 3 -11818632.092 2
  22579854.992    11422177.451 2   8900397.080 1
  21063635.752    -4178697.600 3  -3256122.752 3
  23821945.811    -6346475.546 2  -4945302.243 1
 91  8 13  2 48 15.0010000  0  4 21 17 23 11
  21573843.238   -15189879.925 3 -11836255.595 2
  22587259.564    11461123.808 2   8930744.899 1
  21067620.894    -4157772.720 3  -3239817.654 2
  23812811.730    -6394475.260 2  -4982704.548 1
 91  8 13  2 48 30.0010000  0  4 21 17 23 11
  21569554.707   -15212412.953 3 -11853813.785 2
  22594682.730    11500137.424 2   8961145.130 1
  21071615.920    -4136770.079 3  -3223451.970 3
  23803685.450    -6442414.003 2  -5020059.403 1
 91  8 13  2 48 45.0010000  0  4 21 17 23 11
  21565282.667   -15234863.891 3 -11871308.021 2
  22602124.174    11539216.624 3   8991596.438 1
  21075627.446    -4115691.562 3  -3207027.156 3
  23794570.564    -6490293.211 2  -5057367.842 1
 91  8 13  2 49  0.0010000  0  4 21 17 23 11
  21561026.812   -15257232.588 3 -11888738.166 2
  22609566.823    11578361.359 3   9022098.836 2
  21079651.562    -4094537.090 3  -3190543.158 2
  23785473.661    -6538112.425 2  -5094629.596 1
 91  8 13  2 49 15.0010000  0  4 21 17 23 11
  21556785.650   -15279520.067 3 -11906105.030 2
  22617026.861    11617570.500 3   9052651.405 1
  21083692.160    -4073307.987 3  -3174001.000 3
  23776388.449    -6585872.316 2  -5131845.048 1
 91  8 13  2 49 30.0010000  0  4 21 17 23 11
  21552560.071   -15301724.646 3 -11923407.293 2
  22624508.781    11656845.837 3   9083255.552 1
  21087742.661    -4052002.494 3  -3157399.320 3
  23767310.436    -6633570.604 2  -5169012.500 1
 91  8 13  2 49 45.0010000  0  4 21 17 23 11
  21548351.890   -15323847.309 3 -11940645.717 2
  22631991.295    11696186.100 3   9113910.317 1
  21091810.839    -4030622.023 3  -3140739.216 3
  23758245.013    -6681208.053 2  -5206132.546 1
 91  8 13  2 50  0.0010000  0  4 21 17 23 11
  21544157.189   -15345888.152 3 -11957820.402 2
  22639491.503    11735591.396 3   9144615.731 1
  21095896.415    -4009166.797 3  -3124020.870 2
  23749192.477    -6728784.321 2  -5243204.986 1
 91  8 13  2 50 15.0010000  0  4 21 17 23 11
  21539977.182   -15367848.665 3 -11974932.491 2
  22647006.108    11775060.039 3   9175370.525 1
  21099991.283    -3987638.481 3  -3107245.559 2
  23740149.233    -6776300.560 2  -5280230.619 1
 91  8 13  2 50 30.0010000  0  4 21 17 23 11
  21535812.766   -15389728.263 3 -11991981.518 2
  22654526.995    11814592.543 3   9206175.058 1
  21104102.336    -3966036.795 3  -3090413.084 2
  23731112.289    -6823755.851 2  -5317208.681 1
 91  8 13  2 50 45.0010000  0  4 21 17 23 11
  21531665.442   -15411524.810 3 -12008965.844 2
  22662061.379    11854190.820 2   9237030.853 2
  21108229.574    -3944359.870 3  -3073521.984 3
  23722102.628    -6871147.620 2  -5354137.329 1
 91  8 13  2 51  0.0010000  0  4 21 17 23 11
  21527534.295   -15433239.936 3 -12025886.709 2
  22669606.260    11893853.417 2   9267936.755 1
  21112367.309    -3922609.320 3  -3056573.511 2
  23713095.969    -6918477.142 2  -5391017.485 1
 91  8 13  2 51 15.0010000  0  4 21 17 23 11
  21523416.349   -15454871.488 3 -12042742.465 2
  22677167.623    11933582.064 2   9298894.132 1
  21116519.440    -3900783.421 3  -3039566.310 2
  23704100.992    -6965741.997 2  -5427847.192 1
 91  8 13  2 51 30.0010000  0  4 21 17 23 11
  21519315.487   -15476421.490 3 -12059534.659 2
  22684746.680    11973375.010 2   9329901.624 1
  21120685.357    -3878883.907 3  -3022501.769 2
  23695115.011    -7012943.748 2  -5464627.718 1
 91  8 13  2 51 45.0010000  0  4 21 17 23 11
  21515233.811   -15497888.530 3 -12076262.228 2
  22692322.736    12013233.430 2   9360960.106 1
  21124868.357    -3856909.976 3  -3005379.231 2
  23686149.421    -7060080.750 2  -5501357.852 1
 91  8 13  2 52  0.0010000  0  4 21 17 23 11
  21511163.531   -15519273.999 3 -12092926.228 2
  22699914.680    12053156.183 2   9392068.764 1
  21129063.058    -3834862.929 3  -2988199.713 2
  23677189.519    -7107153.809 2  -5538038.142 1
 91  8 13  2 52 15.0010000  0  4 21 17 23 11
  21507107.341   -15540575.461 3 -12109524.757 2
  22707528.803    12093145.649 2   9423229.352 1
  21133275.139    -3812740.468 3  -2970961.438 2
  23668249.415    -7154160.151 2  -5574666.411 1
 91  8 13  2 52 30.0010000  0  4 21 17 23 11
  21503070.931   -15561793.760 3 -12126058.497 2
  22715145.334    12133200.660 2   9454441.041 2
  21137498.013    -3790543.653 3  -2953665.219 2
  23659312.295    -7201100.182 2  -5611243.065 1
 91  8 13  2 52 45.0010000  0  4 21 17 23 11
  21499046.221   -15582930.145 3 -12142528.387 2
  22722796.033    12173319.882 3   9485702.785 1
  21141738.879    -3768274.013 3  -2936312.265 2
  23650387.774    -7247974.858 2  -5647768.762 1
 91  8 13  2 53  0.0010000  0  4 21 17 23 11
  21495042.496   -15603984.063 3 -12158934.046 2
  22730431.446    12213503.811 2   9517014.911 1
  21145985.738    -3745931.153 3  -2918902.250 2
  23641486.636    -7294783.317 2  -5684242.852 1
 91  8 13  2 53 15.0010000  0  4 21 17 23 11
  21491052.556   -15624955.813 3 -12175275.659 2
  22738097.440    12253752.345 3   9548377.428 1
  21150254.183    -3723515.280 3  -2901435.342 2
  23632594.493    -7341525.471 2  -5720665.300 1
 91  8 13  2 53 30.0010000  0  4 21 17 23 11
  21487076.707   -15645844.156 3 -12191552.287 2
  22745765.537    12294066.501 3   9579791.068 1
  21154533.719    -3701025.591 3  -2883910.911 2
  23623709.244    -7388199.621 2  -5757034.727 1
 91  8 13  2 53 45.0010000  0  4 21 17 23 11
  21483117.951   -15666649.126 3 -12207763.951 2
  22753451.014    12334446.034 3   9611255.628 1
  21158832.143    -3678462.437 3  -2866329.232 2
  23614837.187    -7434805.450 2  -5793350.941 1
 91  8 13  2 54  0.0010000  0  4 21 17 23 11
  21479174.481   -15687372.962 3 -12223912.388 2
  22761153.881    12374888.713 3   9642769.420 1
  21163129.373    -3655828.067 3  -2848692.064 2
  23605979.823    -7481344.821 2  -5829615.396 1
 91  8 13  2 54 15.0010000  0  4 21 17 23 11
  21475247.196   -15708015.493 3 -12239997.469 2
  22768861.546    12415394.678 3   9674332.495 1
  21167456.277    -3633122.496 3  -2830999.407 2
  23597140.136    -7527817.238 2  -5865827.648 1
 91  8 13  2 54 30.0010000  0  4 21 17 23 11
  21471334.002   -15728577.172 3 -12256019.546 2
  22776575.502    12455963.421 3   9705944.490 1
  21171790.378    -3610346.527 3  -2813251.907 2
  23588303.755    -7574222.803 2  -5901987.777 1
 91  8 13  2 54 45.0010000  0  4 21 17 23 11
  21467436.400   -15749056.261 3 -12271977.285 2
  22784307.449    12496596.498 3   9737606.623 1
  21176136.765    -3587498.274 3  -2795448.083 2
  23579494.353    -7620559.207 2  -5938094.074 1
 91  8 13  2 55  0.0010000  0  4 21 17 23 11
  21463553.491   -15769454.594 3 -12287872.086 2
  22792056.192    12537292.258 3   9769317.603 1
  21180496.650    -3564579.916 3  -2777589.636 2
  23570688.249    -7666827.962 2  -5974147.623 1
 91  8 13  2 55 15.0010000  0  4 21 17 23 11
  21459690.667   -15789769.318 3 -12303701.740 2
  22799804.324    12578053.363 2   9801079.495 1
  21184876.018    -3541588.720 3  -2759674.419 2
  23561899.238    -7713025.958 2  -6010146.021 1
 91  8 13  2 55 30.0010000  0  4 21 17 23 11
  21455842.527   -15810001.659 3 -12319467.200 2
  22807577.646    12618878.392 2   9832891.209 2
  21189264.677    -3518526.318 3  -2741703.706 2
  23553119.815    -7759154.021 2  -6046089.958 1
 91  8 13  2 55 45.0010000  0  4 21 17 23 11
  21452007.886   -15830151.365 3 -12335168.264 2
  22815355.156    12659767.828 2   9864753.100 1
  21193664.130    -3495392.326 3  -2723677.232 2
  23544361.080    -7805211.474 2  -6081978.875 1
 91  8 13  2 56  0.0010000  0  4 21 17 23 11
  21448186.131   -15850217.604 3 -12350804.290 2
  22823144.366    12700722.334 2   9896665.685 1
  21198081.278    -3472186.018 3  -2705594.386 2
  23535601.140    -7851197.145 2  -6117811.821 1
 91  8 13  2 56 15.0010000  0  4 21 17 23 11
  21444381.765   -15870204.045 3 -12366378.122 2
  22830959.952    12741738.221 2   9928626.095 1
  21202509.210    -3448911.350 3  -2687458.270 2
  23526868.789    -7897114.128 2  -6153591.290 1
 91  8 13  2 56 30.0010000  0  4 21 17 23 11
  21440598.680   -15890107.297 3 -12381887.144 2
  22838772.850    12782819.026 2   9960637.132 2
  21206951.834    -3425564.887 3  -2669266.234 2
  23518141.831    -7942958.637 2  -6189314.222 1
 91  8 13  2 56 45.0010000  0  4 21 17 23 11
  21436823.396   -15909925.949 3 -12397330.257 2
  22846597.432    12823965.742 2   9992699.486 1
  21211411.543    -3402145.681 3  -2651017.508 2
  23509430.159    -7988728.841 2  -6224979.291 1
 91  8 13  2 57  0.0010000  0  4 21 17 23 11
  21433067.001   -15929659.475 3 -12412707.022 2
  22854445.397    12865178.753 2  10024813.508 1
  21215880.552    -3378653.356 3  -2632711.800 2
  23500736.478    -8034424.008 2  -6260585.899 1
 91  8 13  2 57 15.0010000  0  4 21 17 23 11
  21429329.181   -15949310.407 3 -12428019.433 2
  22862297.864    12906455.375 2  10056977.098 2
  21220360.651    -3355090.415 3  -2614351.078 2
  23492052.691    -8080046.246 2  -6296135.686 1
 91  8 13  2 57 30.0010000  0  4 21 17 23 11
  21425603.063   -15968880.964 3 -12443269.202 2
  22870161.421    12947793.558 2  10089188.657 1
  21224857.834    -3331459.320 3  -2595937.234 3
  23483389.888    -8125597.408 2  -6331630.053 1
 91  8 13  2 57 45.0010000  0  4 21 17 23 11
  21421897.326   -15988370.526 3 -12458455.870 2
  22878048.954    12989194.080 2  10121448.812 1
  21229367.913    -3307759.734 3  -2577470.018 2
  23474734.580    -8171076.451 2  -6367068.253 1
 91  8 13  2 58  0.0010000  0  4 21 17 23 11
  21418202.984   -16007776.206 3 -12473577.179 2
  22885936.200    13030659.724 2  10153759.675 1
  21233895.381    -3283988.906 3  -2558947.297 3
  23466091.862    -8216480.100 2  -6402447.755 1
 91  8 13  2 58 15.0010000  0  4 21 17 23 11
  21414525.734   -16027100.579 3 -12488635.124 2
  22893838.129    13072187.586 3  10186119.045 1
  21238429.741    -3260149.567 3  -2540371.190 2
  23457465.635    -8261810.637 2  -6437770.173 1
 91  8 13  2 58 30.0010000  0  4 21 17 23 11
  21410861.372   -16046342.685 3 -12503628.965 2
  22901749.648    13113778.587 3  10218527.622 1
  21242979.693    -3236241.083 3  -2521741.207 2
  23448853.795    -8307066.677 2  -6473034.635 1
 91  8 13  2 58 45.0010000  0  4 21 17 23 11
  21407219.494   -16065501.989 3 -12518558.292 2
  22909682.456    13155433.245 3  10250985.809 1
  21247540.133    -3212263.124 3  -2503057.093 2
  23440263.245    -8352247.434 2  -6508240.439 1
 91  8 13  2 59  0.0010000  0  4 21 17 23 11
  21403590.206   -16084578.648 3 -12533423.218 2
  22917622.462    13197151.361 3  10283493.415 1
  21252117.369    -3188215.590 3  -2484318.751 2
  23431675.391    -8397352.410 2  -6543387.105 1
 91  8 13  2 59 15.0010000  0  4 21 17 23 11
  21399972.008   -16103574.132 3 -12548224.890 2
  22925575.652    13238931.396 3  10316049.290 1
  21256708.085    -3164100.456 3  -2465527.747 2
  23423104.926    -8442382.718 2  -6578475.634 1
 91  8 13  2 59 30.0010000  0  4 21 17 23 11
  21396372.997   -16122487.731 3 -12562962.755 2
  22933534.242    13280773.982 3  10348653.907 1
  21261310.502    -3139917.267 3  -2446683.704 2
  23414549.442    -8487337.352 2  -6613505.222 1
 91  8 13  2 59 45.0010000  0  4 21 17 23 11
  21392791.078   -16141319.660 3 -12577636.979 2
  22941509.027    13322678.744 3  10381306.960 1
  21265921.608    -3115666.146 3  -2427786.729 2
  23406010.457    -8532216.057 2  -6648475.603 1
 91  8 13  3  0  0.0010000  0  4 21 17 23 11
  21389224.445   -16160067.142 3 -12592245.396 2
  22949498.496    13364648.564 3  10414010.711 1
  21270553.699    -3091344.509 3  -2408834.806 2
  23397482.859    -8577015.701 2  -6683384.403 1
 91  8 13  3  0 15.0010000  0  4 21 17 23 11
  21385669.208   -16178733.312 3 -12606790.464 2
  22957489.762    13406680.305 2  10446762.708 1
  21275193.293    -3066955.493 3  -2389830.374 2
  23388975.049    -8621738.914 2  -6718233.647 1
 91  8 13  3  0 30.0010000  0  4 21 17 23 11
  21382137.956   -16197316.767 3 -12621271.070 2
  22965497.213    13448775.499 2  10479564.149 1
  21279845.765    -3042497.989 3  -2370772.590 2
  23380478.328    -8666383.928 2  -6753021.958 1
 91  8 13  3  0 45.0010000  0  4 21 17 23 11
  21378613.596   -16215817.858 3 -12635687.506 2
  22973521.460    13490933.240 2  10512414.300 1
  21284515.932    -3017972.499 3  -2351661.817 2
  23371995.707    -8710950.706 2  -6787749.301 1
 91  8 13  3  1  0.0010000  0  4 21 17 23 11
  21375109.619   -16234235.169 3 -12650038.655 2
  22981560.095    13533155.239 2  10545314.570 1
  21289194.798    -2993377.727 3  -2332497.056 2
  23363530.764    -8755437.408 2  -6822414.238 1
 91  8 13  3  1 15.0010000  0  4 21 17 23 11
  21371622.437   -16252571.050 3 -12664326.346 2
  22989605.029    13575438.895 2  10578262.854 1
  21293886.847    -2968716.294 3  -2313280.355 2
  23355085.007    -8799846.127 2  -6857018.419 1
 91  8 13  3  1 30.0010000  0  4 21 17 23 11
  21368147.243   -16270822.077 3 -12678547.924 2
  22997665.843    13617787.507 2  10611261.760 1
  21298595.090    -2943984.916 3  -2294009.167 2
  23346643.159    -8844173.063 2  -6891558.883 1
 91  8 13  3  1 45.0010000  0  4 21 17 23 11
  21364689.134   -16288989.788 3 -12692704.562 2
  23005731.168    13660199.661 2  10644310.184 1
  21303315.619    -2919185.277 3  -2274684.759 2
  23338222.286    -8888419.308 2  -6926036.447 1
 91  8 13  3  2  0.0010000  0  4 21 17 23 11
  21361249.617   -16307076.300 3 -12706797.951 2
  23013807.870    13702673.264 2  10677406.491 1
  21308047.245    -2894319.586 3  -2255308.895 2
  23329825.101    -8932586.526 2  -6960452.396 1
 91  8 13  3  2 15.0010000  0  4 21 17 23 11
  21357821.487   -16325082.212 3 -12720828.525 2
  23021901.665    13745207.380 2  10710549.933 1
  21312789.961    -2869388.799 3  -2235882.303 3
  23321428.807    -8976674.941 2  -6994807.033 1
 91  8 13  3  2 30.0010000  0  4 21 17 23 11
  21354412.247   -16343004.279 3 -12734793.762 2
  23030014.053    13787805.236 2  10743743.071 1
  21317547.973    -2844389.716 3  -2216402.515 2
  23313055.311    -9020681.029 2  -7029097.443 1
 91  8 13  3  2 45.0010000  0  4 21 17 23 11
  21351017.996   -16360842.641 3 -12748693.784 2
  23038137.531    13830466.599 2  10776985.663 1
  21322316.166    -2819322.479 3  -2196869.605 2
  23304700.094    -9064604.340 3  -7063323.367 1
 91  8 13  3  3  0.0010000  0  4 21 17 23 11
  21347638.133   -16378600.202 3 -12762530.836 2
  23046264.001    13873188.588 2  10810275.532 1
  21327099.053    -2794190.356 3  -2177286.132 2
  23296354.170    -9108447.502 2  -7097486.839 1
 91  8 13  3  3 15.0010000  0  4 21 17 23 11
  21344277.160   -16396273.609 3 -12776302.322 2
  23054411.761    13915974.578 3  10843615.251 1
  21331892.741    -2768990.146 3  -2157649.602 2
  23288030.730    -9152206.639 2  -7131584.867 1
 91  8 13  3  3 30.0010000  0  4 21 17 23 11
  21340927.879   -16413863.121 3 -12790008.418 2
  23062556.825    13958824.060 2  10877004.450 1
  21336702.309    -2743722.437 3  -2137960.487 2
  23279718.686    -9195881.782 3  -7165617.429 1
 91  8 13  3  3 45.0010000  0  4 21 17 23 11
  21337599.887   -16431370.415 3 -12803650.464 2
  23070735.463    14001735.625 3  10910442.022 1
  21341522.068    -2718388.578 3  -2118219.821 2
  23271421.927    -9239473.980 2  -7199585.381 1
 91  8 13  3  4  0.0010000  0  4 21 17 23 11
  21334282.086   -16448796.465 3 -12817229.215 2
  23078910.506    14044707.803 2  10943926.850 1
  21346358.326    -2692990.049 3  -2098428.758 2
  23263144.957    -9282983.990 2  -7233489.275 1
 91  8 13  3  4 15.0010000  0  4 21 17 23 11
  21330978.969   -16466139.870 3 -12830743.540 2
  23087092.738    14087742.088 2  10977460.070 1
  21351204.469    -2667525.465 3  -2078586.234 2
  23254880.578    -9326409.815 2  -7267327.577 1
 91  8 13  3  4 30.0010000  0  4 21 17 23 11
  21327695.344   -16483401.588 3 -12844194.233 2
  23095288.163    14130837.350 2  11011040.802 1
  21356064.704    -2641996.074 3  -2058693.212 2
  23246629.993    -9369752.121 2  -7301100.754 1
 91  8 13  3  4 45.0010000  0  4 21 17 23 11
  21324426.709   -16500582.016 3 -12857581.572 2
  23103505.776    14173993.252 2  11044668.760 1
  21360929.737    -2616402.446 3  -2038750.123 2
  23238400.086    -9413011.053 3  -7334808.979 1
 91  8 13  3  5  0.0010000  0  4 21 17 23 11
  21321172.758   -16517679.247 3 -12870904.074 2
  23111732.385    14217212.062 2  11078345.749 1
  21365815.153    -2590742.743 3  -2018755.544 2
  23230188.180    -9456184.126 3  -7368450.334 1
 91  8 13  3  5 15.0010000  0  4 21 17 23 11
  21317934.399   -16534695.561 3 -12884163.540 2
  23119965.284    14260490.913 2  11112069.518 1
  21370708.970    -2565019.391 3  -1998711.381 2
  23221981.054    -9499273.252 3  -7402026.258 1
 91  8 13  3  5 30.0010000  0  4 21 17 23 11
  21314713.734   -16551627.410 3 -12897357.188 2
  23128202.380    14303833.614 2  11145843.029 1
  21375616.268    -2539228.924 3  -1978614.907 2
  23213800.017    -9542274.362 3  -7435533.606 1
 91  8 13  3  5 45.0010000  0  4 21 17 23 11
  21311506.550   -16568475.543 3 -12910485.593 2
  23136470.354    14347239.193 2  11179665.546 1
  21380540.362    -2513372.199 3  -1958466.818 2
  23205636.072    -9585188.047 3  -7468972.827 1
 91  8 13  3  6  0.0010000  0  4 21 17 23 11
  21308315.560   -16585241.002 3 -12923549.583 2
  23144750.325    14390706.354 2  11213536.082 1
  21385471.645    -2487450.448 3  -1938268.056 2
  23197486.812    -9628014.842 3  -7502344.339 1
 91  8 13  3  6 15.0010000  0  4 21 17 23 11
  21305141.653   -16601925.425 3 -12936550.431 2
  23153019.495    14434233.664 2  11247453.454 1
  21390414.620    -2461465.643 3  -1918020.172 2
  23189354.644    -9670755.906 3  -7535649.046 1
 91  8 13  3  6 30.0010000  0  4 21 17 23 11
  21301983.644   -16618528.411 3 -12949487.818 2
  23161317.754    14477821.347 2  11281417.892 1
  21395372.593    -2435417.410 3  -1897722.851 2
  23181236.262    -9713410.487 3  -7568886.381 1
 91  8 13  3  6 45.0010000  0  4 21 17 23 11
  21298840.022   -16635050.778 3 -12962362.392 2
  23169623.203    14521468.447 2  11315428.634 1
  21400337.451    -2409306.814 3  -1877376.944 2
  23173134.073    -9755979.031 3  -7602056.678 1
 91  8 13  3  7  0.0010000  0  4 21 17 23 11
  21295708.685   -16651491.364 3 -12975173.238 2
  23177947.838    14565176.174 2  11349486.574 1
  21405321.207    -2383132.715 3  -1856981.542 2
  23165052.267    -9798459.840 2  -7635158.588 1
 91  8 13  3  7 15.0010000  0  4 21 17 23 11
  21292595.941   -16667850.701 3 -12987920.763 2
  23186269.480    14608943.928 2  11383591.330 1
  21410311.254    -2356895.883 3  -1836537.264 2
  23156983.652    -9840853.166 2  -7668192.291 1
 91  8 13  3  7 30.0010000  0  4 21 17 23 11
  21289498.484   -16684128.731 3 -13000604.949 2
  23194617.804    14652771.612 2  11417742.773 1
  21415317.189    -2330596.299 3  -1816044.099 2
  23148934.827    -9883158.584 3  -7701157.563 1
 91  8 13  3  7 45.0010000  0  4 21 17 23 11
  21286415.118   -16700325.566 3 -13013225.849 2
  23202965.517    14696659.138 2  11451940.849 1
  21420337.206    -2304234.161 3  -1795502.180 2
  23140900.685    -9925375.706 2  -7734053.994 1
 91  8 13  3  8  0.0010000  0  4 21 17 23 11
  21283348.547   -16716439.964 3 -13025782.519 2
  23211321.938    14740607.761 2  11486186.529 1
  21425366.830    -2277808.374 3  -1774910.653 2
  23132884.841    -9967502.684 3  -7766880.179 1
 91  8 13  3  8 15.0010000  0  4 21 17 23 11
  21280299.357   -16732473.628 3 -13038276.285 2
  23219706.235    14784615.774 2  11520478.481 1
  21430406.340    -2251320.843 3  -1754271.034 2
  23124887.572   -10009540.903 3  -7799637.232 1
 91  8 13  3  8 30.0010000  0  4 21 17 23 11
  21277263.656   -16748426.160 3 -13050706.823 2
  23228091.126    14828683.352 2  11554816.856 2
  21435456.345    -2224771.448 3  -1733583.207 2
  23116902.902   -10051489.845 2  -7832324.701 1
 91  8 13  3  8 45.0010000  0  4 21 17 23 11
  21274240.249   -16764297.354 3 -13063073.986 2
  23236480.222    14872810.612 2  11589201.737 1
  21440518.942    -2198160.048 3  -1712847.063 2
  23108935.315   -10093348.688 3  -7864941.955 1
 91  8 13  3  9  0.0010000  0  4 21 17 23 11
  21271239.030   -16780086.185 3 -13075376.955 2
  23244900.188    14916998.670 2  11623633.974 1
  21445598.019    -2171485.691 3  -1692061.849 2
  23100986.322   -10135115.971 3  -7897487.876 1
 91  8 13  3  9 15.0010000  0  4 21 17 23 11
  21268251.299   -16795792.239 3 -13087615.442 2
  23253308.470    14961247.525 2  11658113.623 1
  21450688.798    -2144748.428 3  -1671227.639 2
  23093058.907   -10176791.062 3  -7929961.947 1
 91  8 13  3  9 30.0010000  0  4 21 17 23 11
  21265275.854   -16811416.776 3 -13099790.397 2
  23261744.630    15005556.116 2  11692639.791 1
  21455784.366    -2117949.354 3  -1650345.258 2
  23085144.989   -10218374.620 3  -7962364.718 1
 91  8 13  3  9 45.0010000  0  4 21 17 23 11
  21262318.103   -16826959.199 3 -13111901.379 2
  23270190.980    15049924.854 2  11727212.835 1
  21460897.629    -2091088.178 3  -1629414.467 2
  23077245.755   -10259865.771 2  -7994695.451 1
 91  8 13  3 10  0.0010000  0  4 21 17 23 11
  21259375.342   -16842418.157 3 -13123947.313 2
  23278650.828    15094355.327 2  11761833.989 1
  21466018.386    -2064163.488 3  -1608434.192 2
  23069371.109   -10301262.651 3  -8026952.726 1
 91  8 13  3 10 15.0010000  0  4 21 17 23 11
  21256452.064   -16857796.189 3 -13135930.195 2
  23287119.663    15138844.609 2  11796500.957 1
  21471152.930    -2037178.166 3  -1587406.687 2
  23061511.147   -10342567.405 3  -8059138.273 2
 91  8 13  3 10 30.0010000  0  4 21 17 23 11
  21253537.180   -16873091.378 3 -13147848.525 2
  23295589.100    15183394.597 2  11831215.205 1
  21476302.166    -2010130.306 3  -1566330.441 2
  23053667.082   -10383777.786 3  -8091250.201 1
 91  8 13  3 10 45.0010000  0  4 21 17 23 11
  21250644.483   -16888305.163 3 -13159703.406 2
  23304085.219    15228003.872 2  11865975.667 1
  21481460.695    -1983021.391 3  -1545206.618 2
  23045843.695   -10424894.824 3  -8123289.457 1
 91  8 13  3 11  0.0010000  0  4 21 17 23 11
  21247767.379   -16903436.456 3 -13171494.022 2
  23312576.538    15272673.387 2  11900783.124 1
  21486629.720    -1955850.718 3  -1524034.673 2
  23038036.198   -10465916.996 2  -8155254.769 1
 91  8 13  3 11 15.0010000  0  4 21 17 23 11
  21244902.559   -16918485.215 3 -13183220.323 2
  23321094.242    15317403.162 2  11935637.478 1
  21491814.031    -1928618.316 3  -1502814.616 2
  23030251.490   -10506843.852 3  -8187145.800 2
 91  8 13  3 11 30.0010000  0  4 21 17 23 11
  21242051.237   -16933453.350 3 -13194883.810 2
  23329620.637    15362190.966 2  11970537.078 1
  21497007.635    -1901326.402 3  -1481548.200 2
  23022472.470   -10547676.971 3  -8218963.806 1
 91  8 13  3 11 45.0010000  0  4 21 17 23 11
  21239218.491   -16948338.519 3 -13206482.639 2
  23338148.532    15407039.510 2  12005483.952 1
  21502213.523    -1873972.653 3  -1460233.593 2
  23014730.036   -10588413.492 3  -8250706.532 1
 91  8 13  3 12  0.0010000  0  4 21 17 23 11
  21236402.846   -16963140.818 3 -13218016.887 2
  23346693.520    15451948.194 2  12040477.719 1
  21507426.619    -1846557.260 3  -1438870.947 2
  23006995.087   -10629053.066 3  -8282373.701 1
 91  8 13  3 12 15.0010000  0  4 21 17 23 11
  21233602.784   -16977862.180 3 -13229488.078 2
  23355247.800    15496915.451 2  12075517.112 1
  21512657.095    -1819082.229 3  -1417461.842 2
  22999281.724   -10669597.172 3  -8313966.492 1
 91  8 13  3 12 30.0010000  0  4 21 17 23 11
  21230820.408   -16992502.539 3 -13240896.150 2
  23363814.365    15541941.300 2  12110602.210 1
  21517895.667    -1791547.575 3  -1396006.279 2
  22991579.757   -10710045.350 3  -8345484.543 1
 91  8 13  3 12 45.0010000  0  4 21 17 23 11
  21228047.333   -17007062.602 3 -13252241.654 2
  23372394.724    15587024.725 2  12145732.116 1
  21523150.434    -1763954.220 3  -1374504.970 2
  22983903.572   -10750397.857 3  -8376928.052 1
 91  8 13  3 13  0.0010000  0  4 21 17 23 11
  21225293.435   -17021538.563 3 -13263521.622 2
  23380985.283    15632169.528 2  12180909.868 1
  21528411.492    -1736298.514 3  -1352955.069 2
  22976242.376   -10790650.537 3  -8408293.754 1
 91  8 13  3 13 15.0010000  0  4 21 17 23 11
  21222551.832   -17035929.626 3 -13274735.430 2
  23389583.625    15677376.468 2  12216136.058 1
  21533682.138    -1708579.655 3  -1331355.971 2
  22968603.666   -10830802.052 3  -8439580.643 1
 91  8 13  3 13 30.0010000  0  4 21 17 23 11
  21219828.516   -17050241.939 3 -13285887.888 2
  23398203.265    15722639.247 2  12251405.724 1
  21538972.581    -1680804.168 3  -1309712.737 2
  22960982.039   -10870858.240 3  -8470793.250 2
 91  8 13  3 13 45.0010000  0  4 21 17 23 11
  21217119.893   -17064470.973 3 -13296975.439 2
  23406826.194    15767962.320 2  12286722.405 1
  21544267.213    -1652967.502 3  -1288021.838 2
  22953379.904   -10910814.119 3  -8501927.682 1
 91  8 13  3 14  0.0010000  0  4 21 17 23 11
  21214428.659   -17078617.492 3 -13307998.688 2
  23415469.810    15813344.825 2  12322085.375 1
  21549575.342    -1625070.620 3  -1266284.007 2
  22945794.853   -10950670.145 3  -8532984.313 1
 91  8 13  3 14 15.0010000  0  4 21 17 23 11
  21211753.009   -17092683.327 3 -13318959.077 2
  23424113.723    15858785.086 2  12357493.317 1
  21554895.460    -1597115.470 3  -1244500.790 2
  22938229.293   -10990427.734 3  -8563964.226 1
 91  8 13  3 14 30.0010000  0  4 21 17 23 11
  21209091.449   -17106667.749 3 -13329856.026 2
  23432764.538    15904283.607 2  12392946.689 1
  21560227.269    -1569101.437 3  -1222671.681 2
  22930683.522   -11030085.639 3  -8594866.464 1
 91  8 13  3 14 45.0010000  0  4 21 17 23 11
  21206446.685   -17120569.741 3 -13340688.750 2
  23441431.537    15949841.336 2  12428446.193 1
  21565565.073    -1541027.604 3  -1200795.963 2
  22923151.529   -11069642.439 3  -8625689.953 1
 91  8 13  3 15  0.0010000  0  4 21 17 23 11
  21203815.105   -17134391.461 3 -13351458.917 2
  23450121.022    15995456.269 2  12463990.284 1
  21570919.664    -1512896.317 3  -1178875.476 2
  22915645.928   -11109099.831 3  -8656435.965 1
 91  8 13  3 15 15.0010000  0  4 21 17 23 11
  21201204.212   -17148130.643 3 -13362164.773 2
  23458804.808    16041130.601 2  12499580.619 1
  21576286.548    -1484705.386 3  -1156908.519 2
  22908153.817   -11148455.248 3  -8687102.495 1
 91  8 13  3 15 30.0010000  0  4 21 17 23 11
  21198602.612   -17161787.609 3 -13372806.567 2
  23467511.682    16086863.691 2  12535216.838 1
  21581665.420    -1456455.560 3  -1134895.674 2
  22900690.777   -11187708.800 3  -8717689.653 1
 91  8 13  3 15 45.0010000  0  4 21 17 23 11
  21196013.008   -17175365.643 3 -13383386.838 2
  23476221.548    16132652.304 2  12570896.255 1
  21587046.701    -1428150.004 3  -1112839.395 2
  22893230.748   -11226863.090 3  -8748199.485 1
 91  8 13  3 16  0.0010000  0  4 21 17 23 11
  21193450.976   -17188862.350 3 -13393903.755 2
  23484941.910    16178498.840 2  12606620.808 1
  21592448.355    -1399786.464 3  -1090737.933 2
  22885803.988   -11265915.390 3  -8778629.828 2
 91  8 13  3 16 15.0010000  0  4 21 17 23 11
  21190897.948   -17202276.304 3 -13404356.183 2
  23493677.262    16224404.438 2  12642391.393 1
  21597853.316    -1371363.712 3  -1068590.341 2
  22878388.623   -11304863.818 3  -8808979.223 2
 91  8 13  3 16 30.0010000  0  4 21 17 23 11
  21188360.800   -17215608.838 3 -13414745.171 2
  23502427.011    16270367.726 2  12678206.936 1
  21603272.062    -1342883.285 3  -1046397.811 2
  22871000.837   -11343709.377 2  -8839248.500 2
 91  8 13  3 16 45.0010000  0  4 21 17 23 11
  21185837.446   -17228862.096 3 -13425072.376 2
  23511195.335    16316386.526 2  12714065.726 1
  21608703.407    -1314347.291 3  -1024161.967 2
  22863628.635   -11382453.727 3  -8869438.875 2
 91  8 13  3 17  0.0010000  0  4 21 17 23 11
  21183334.186   -17242033.961 3 -13435336.157 2
  23519957.369    16362462.971 2  12749969.482 1
  21614146.741    -1285753.919 3  -1001881.417 2
  22856275.628   -11421094.260 3  -8899548.375 1
 91  8 13  3 17 15.0010000  0  4 21 17 23 11
  21180840.506   -17255124.572 3 -13445536.630 2
  23528734.994    16408596.814 2  12785917.951 1
  21619595.763    -1257103.304 3   -979556.272 2
  22848941.206   -11459630.828 3  -8929576.824 2
 91  8 13  3 17 30.0010000  0  4 21 17 23 11
  21178366.624   -17268134.918 3 -13455674.560 2
  23537525.812    16454786.794 2  12821910.169 1
  21625063.379    -1228396.600 3   -957187.418 2
  22841631.964   -11498063.932 3  -8959524.699 2
 91  8 13  3 17 45.0010000  0  4 21 17 23 11
  21175904.730   -17281065.562 3 -13465750.383 2
  23546335.214    16501032.702 2  12857945.970 1
  21630532.495    -1199634.542 3   -934775.436 2
  22834339.518   -11536393.715 3  -8989392.037 1
 91  8 13  3 18  0.0010000  0  4 21 17 23 11
  21173460.818   -17293913.286 3 -13475761.597 2
  23555131.720    16547337.441 2  12894027.555 1
  21636016.898    -1170813.821 3   -912317.734 2
  22827059.959   -11574616.582 3  -9019176.074 1
 91  8 13  3 18 15.0010000  0  4 21 17 23 11
  21171028.598   -17306681.206 3 -13485710.626 2
  23563960.606    16593697.877 2  12930152.617 1
  21641511.492    -1141937.979 3   -889817.079 2
  22819809.175   -11612735.191 3  -9048878.884 1
 91  8 13  3 18 30.0010000  0  4 21 17 23 11
  21168618.269   -17319368.788 3 -13495597.034 2
  23572783.200    16640114.527 2  12966321.439 1
  21647015.980    -1113006.290 3   -867272.918 2
  22812570.389   -11650748.631 3  -9078499.707 1
 91  8 13  3 18 45.0010000  0  4 21 17 23 11
  21166217.835   -17331976.064 3 -13505420.891 2
  23581634.876    16686587.316 2  13002534.043 1
  21652533.363    -1084018.900 3   -844685.343 2
  22805359.776   -11688656.401 3  -9108038.233 2
 91  8 13  3 19  0.0010000  0  4 21 17 23 11
  21163831.788   -17344503.756 3 -13515182.726 2
  23590491.044    16733115.255 2  13038789.635 1
  21658063.634    -1054976.757 3   -822055.110 2
  22798163.262   -11726458.985 3  -9137494.767 2
 91  8 13  3 19 15.0010000  0  4 21 17 23 11
  21161463.121   -17356951.646 3 -13524882.378 2
  23599363.101    16779698.598 2  13075088.383 1
  21663599.000    -1025879.943 3   -799382.275 2
  22790991.921   -11764155.669 3  -9166868.807 2
 91  8 13  3 19 30.0010000  0  4 21 17 23 11
  21159108.852   -17369318.602 3 -13534518.972 2
  23608223.170    16826338.424 2  13111431.132 1
  21669140.064     -996727.558 3   -776666.142 2
  22783834.382   -11801744.938 3  -9196159.124 1
 91  8 13  3 19 45.0010000  0  4 21 17 23 11
  21156770.470   -17381603.767 3 -13544091.812 2
  23617114.109    16873035.670 2  13147818.654 1
  21674701.518     -967518.607 3   -753905.935 2
  22776703.517   -11839225.452 3  -9225364.691 2
 91  8 13  3 20  0.0010000  0  4 21 17 23 11
  21154447.977   -17393810.230 3 -13553603.330 2
  23626014.950    16919787.059 2  13184248.398 1
  21680272.561     -938256.401 3   -731104.213 2
  22769592.439   -11876599.882 3  -9254487.620 1
 91  8 13  3 20 15.0010000  0  4 21 17 23 11
  21152141.076   -17405934.685 3 -13563050.958 2
  23634918.487    16966595.624 2  13220722.609 1
  21685853.498     -908937.859 3   -708258.605 2
  22762504.746   -11913864.671 3  -9283525.096 2
 91  8 13  3 20 30.0010000  0  4 21 17 23 11
  21149852.165   -17417978.637 3 -13572435.856 2
  23643830.113    17013459.762 2  13257240.201 1
  21691438.929     -879564.609 3   -685370.365 2
  22755428.743   -11951021.005 3  -9312478.065 2
 91  8 13  3 20 45.0010000  0  4 21 17 23 11
  21147573.437   -17429942.957 3 -13581758.699 2
  23652758.839    17060378.838 2  13293800.617 1
  21697039.053     -850137.424 3   -662440.087 2
  22748383.619   -11988069.117 3  -9341346.699 2
 91  8 13  3 21  0.0010000  0  4 21 17 23 11
  21145313.006   -17441824.672 3 -13591017.170 2
  23661699.249    17107355.797 2  13330406.039 1
  21702652.369     -820653.375 3   -639465.514 2
  22741352.892   -12025005.557 3  -9370128.342 1
 91  8 13  3 21 15.0010000  0  4 21 17 23 11
  21143071.159   -17453626.465 3 -13600213.365 2
  23670659.142    17154387.646 2  13367054.222 1
  21708271.374     -791115.436 3   -616448.956 2
  22734345.242   -12061832.587 3  -9398824.712 2
 91  8 13  3 21 30.0010000  0  4 21 17 23 11
  21140837.706   -17465348.778 3 -13609347.635 2
  23679624.436    17201473.758 2  13403744.723 1
  21713906.573     -761524.299 3   -593390.940 2
  22727357.677   -12098550.396 3  -9427435.971 2
 91  8 13  3 21 45.0010000  0  4 21 17 23 11
  21138620.734   -17476991.967 3 -13618420.251 2
  23688594.231    17248613.939 2  13440477.355 1
  21719542.374     -731880.428 3   -570291.816 2
  22720388.104   -12135158.893 3  -9455962.081 2
 91  8 13  3 22  0.0010000  0  4 21 17 23 11
  21136420.262   -17488552.298 3 -13627428.291 2
  23697575.413    17295812.046 2  13477255.123 1
  21725193.758     -702179.986 3   -547148.620 2
  22713444.610   -12171653.872 3  -9484399.687 2
 91  8 13  3 22 15.0010000  0  4 21 17 23 11
  21134237.170   -17500032.657 3 -13636374.014 2
  23706559.292    17343064.841 2  13514075.484 1
  21730856.240     -672426.040 3   -523963.730 2
  22706524.499   -12208037.785 3  -9512750.794 1
 91  8 13  3 22 30.0010000  0  4 21 17 23 11
  21132067.270   -17511430.634 3 -13645255.552 2
  23715561.161    17390374.678 2  13550940.269 1
  21736531.313     -642616.436 3   -500735.482 2
  22699621.176   -12244307.863 3  -9541013.165 2
 91  8 13  3 22 45.0010000  0  4 21 17 23 11
  21129915.667   -17522748.515 3 -13654074.676 2
  23724580.716    17437739.350 2  13587847.804 1
  21742215.974     -612753.565 3   -477465.714 2
  22692740.346   -12280465.907 3  -9569188.243 2
 91  8 13  3 23  0.0010000  0  4 21 17 23 11
  21127772.448   -17533987.215 3 -13662832.097 2
  23733601.170    17485157.697 2  13624797.190 1
  21747907.241     -582838.381 3   -454155.167 2
  22685880.194   -12316512.565 3  -9597276.538 2
 91  8 13  3 23 15.0010000  0  4 21 17 23 11
  21125649.621   -17545146.269 3 -13671527.467 2
  23742630.017    17532630.035 2  13661788.647 1
  21753608.392     -552870.616 3   -430803.664 2
  22679041.323   -12352446.870 3  -9625277.254 2
 91  8 13  3 23 30.0010000  0  4 21 17 23 11
  21123542.978   -17556223.756 3 -13680159.269 2
  23751678.051    17580158.177 2  13698823.590 1
  21759320.337     -522848.450 3   -407409.762 2
  22672219.849   -12388266.569 3  -9653188.706 2
 91  8 13  3 23 45.0010000  0  4 21 17 23 11
  21121449.825   -17567224.741 3 -13688731.462 2
  23760732.690    17627737.239 2  13735898.190 1
  21765041.278     -492776.932 3   -383977.397 2
  22665433.747   -12423976.118 3  -9681014.296 1
 91  8 13  3 24  0.0010000  0  4 21 17 23 11
  21119369.261   -17578151.024 3 -13697245.429 2
  23769793.314    17675365.322 2  13773010.950 1
  21770773.605     -462658.161 3   -360508.231 2
  22658658.735   -12459576.940 3  -9708755.212 2
 91  8 13  3 24 15.0010000  0  4 21 17 23 11
  21117306.096   -17588996.460 3 -13705696.421 2
  23778875.524    17723048.406 2  13810166.575 1
  21776517.928     -432485.921 3   -336997.403 2
  22651900.816   -12495062.713 3  -9736406.404 2
 91  8 13  3 24 30.0010000  0  4 21 17 23 11
  21115260.005   -17599762.021 3 -13714085.164 2
  23787955.038    17770785.307 2  13847364.166 1
  21782270.951     -402261.350 3   -313445.781 2
  22645173.469   -12530433.800 3  -9763968.312 1
 91  8 13  3 24 45.0010000  0  4 21 17 23 11
  21113223.818   -17610446.336 3 -13722410.607 2
  23797043.548    17818577.486 2  13884604.817 1
  21788032.960     -371983.445 3   -289852.603 2
  22638460.824   -12565688.574 3  -9791439.537 2
 91  8 13  3 25  0.0010000  0  4 21 17 23 11
  21111205.919   -17621051.026 3 -13730673.998 2
  23806153.347    17866423.308 2  13921887.274 1
  21793803.966     -341653.632 3   -266218.993 2
  22631780.243   -12600828.157 3  -9818821.013 2
 91  8 13  3 25 15.0010000  0  4 21 17 23 11
  21109206.298   -17631575.981 3 -13738875.250 2
  23815267.936    17914323.052 2  13959211.776 1
  21799584.263     -311271.850 3   -242544.880 2
  22625108.065   -12635851.922 3  -9846112.266 2
 91  8 13  3 25 30.0010000  0  4 21 17 23 11
  21107218.378   -17642021.677 3 -13747014.740 2
  23824386.722    17962275.920 2  13996577.646 1
  21805376.854     -280838.786 3   -218830.801 2
  22618470.962   -12670759.908 3  -9873313.278 2
 91  8 13  3 25 45.0010000  0  4 21 17 23 11
  21105245.744   -17652385.050 3 -13755090.099 3
  23833529.187    18010284.694 2  14033987.075 1
  21811176.940     -250351.764 3   -195074.678 2
  22611847.645   -12705548.858 3  -9900421.537 1
 91  8 13  3 26  0.0010000  0  4 21 17 23 11
  21103288.694   -17662670.023 3 -13763104.354 3
  23842673.459    18058345.652 2  14071437.176 1
  21816987.810     -219814.579 3   -171279.487 2
  22605249.814   -12740222.113 3  -9927439.640 2
 91  8 13  3 26 15.0010000  0  4 21 17 23 11
  21101345.446   -17672874.563 3 -13771055.952 2
  23851836.019    18106460.623 2  14108929.349 1
  21822806.184     -189225.373 3   -147443.748 2
  22598672.364   -12774777.432 3  -9954365.839 2
 91  8 13  3 26 30.0010000  0  4 21 17 23 11
  21099419.274   -17683000.425 3 -13778946.229 2
  23860994.373    18154627.691 2  14146462.138 1
  21828638.649     -158586.036 3   -123568.930 2
  22592119.502   -12809216.152 3  -9981201.181 2
 91  8 13  3 26 45.0010000  0  4 21 17 23 11
  21097508.998   -17693048.988 3 -13786776.275 2
  23870176.119    18202845.552 2  14184034.508 1
  21834473.504     -127898.090 3    -99656.243 2
  22585587.022   -12843539.038 3 -10007946.303 2
 91  8 13  3 27  0.0010000  0  4 21 17 23 11
  21095609.516   -17703015.657 3 -13794542.511 2
  23879351.871    18251118.887 2  14221650.105 1
  21840328.157      -97156.924 3    -75702.082 2
  22579084.224   -12877741.187 3 -10034597.286 2
 91  8 13  3 27 15.0010000  0  4 21 17 23 11
  21093730.415   -17712900.698 3 -13802245.132 2
  23888553.999    18299446.971 2  14259308.324 1
  21846188.202      -66362.732 3    -51706.613 2
  22572596.713   -12911822.363 3 -10061154.035 2
 91  8 13  3 27 30.0010000  0  4 21 17 23 11
  21091862.710   -17722705.434 3 -13809885.185 2
  23897753.431    18347828.402 2  14297008.146 1
  21852054.834      -35517.342 3    -27671.238 2
  22566131.390   -12945783.757 3 -10087617.467 2
 91  8 13  3 27 45.0010000  0  4 21 17 23 11
  21090014.488   -17732430.513 3 -13817463.165 2
  23906978.044    18396262.596 2  14334749.084 1
  21857938.262       -4621.486 3     -3596.547 2
  22559698.149   -12979625.541 3 -10113987.662 2
 91  8 13  3 28  0.0010000  0  4 21 17 23 11
  21088179.161   -17742077.283 3 -13824980.121 2
  23916204.454    18444748.322 2  14372530.171 1
  21863826.489       26323.434 3     20516.374 2
  22553279.593   -13013348.434 3 -10140265.217 2
 91  8 13  3 28 15.0010000  0  4 21 17 23 11
  21086352.219   -17751643.758 3 -13832434.513 2
  23925431.169    18493287.495 2  14410352.917 1
  21869719.506       57319.550 3     44669.193 2
  22546884.419   -13046949.977 3 -10166448.253 2
 91  8 13  3 28 30.0010000  0  4 21 17 23 11
  21084549.873   -17761129.036 3 -13839825.625 2
  23934689.356    18541880.848 2  14448217.828 1
  21875630.515       88367.465 3     68862.366 2
  22540514.723   -13080429.077 3 -10192535.843 2
 91  8 13  3 28 45.0010000  0  4 21 17 23 11
  21082763.407   -17770536.489 3 -13847156.109 2
  23943941.557    18590524.799 2  14486122.193 1
  21881550.518      119463.679 3     93093.185 2
  22534165.418   -13113788.614 3 -10218530.279 1
 91  8 13  3 29  0.0010000  0  4 21 17 23 11
  21080987.734   -17779866.990 3 -13854426.630 2
  23953214.734    18639218.567 2  14524065.336 1
  21887477.118      150607.149 3    117360.835 2
  22527840.403   -13147029.127 3 -10244431.974 2
 91  8 13  3 29 15.0010000  0  4 21 17 23 11
  21079230.654   -17789117.289 3 -13861634.653 3
  23962478.924    18687965.128 2  14562049.683 1
  21893409.704      181801.031 3    141667.755 2
  22521534.567   -13180146.978 3 -10270238.048 2
 91  8 13  3 29 30.0010000  0  4 21 17 23 11
  21077481.663   -17798287.809 3 -13868780.505 2
  23971774.882    18736763.974 2  14600074.737 1
  21899356.694      213044.804 3    166013.548 2
  22515257.514   -13213142.039 3 -10295948.506 1
 91  8 13  3 29 45.0010000  0  4 21 17 23 11
  21075751.857   -17807377.646 3 -13875863.490 2
  23981067.550    18785615.926 2  14638141.162 1
  21905310.866      244339.414 3    190398.943 2
  22508999.944   -13246013.020 3 -10321562.227 2
 91  8 13  3 30  0.0010000  0  4 21 17 23 11
  21074037.347   -17816391.969 3 -13882887.631 2
  23990378.210    18834515.862 2  14676245.090 1
  21911276.441      275679.522 3    214819.817 2
  22502774.152   -13278764.714 3 -10347083.015 2
 91  8 13  3 30 15.0010000  0  4 21 17 23 11
  21072332.426   -17825327.156 3 -13889850.109 2
  23999686.461    18883467.493 2  14714389.160 1
  21917246.806      307068.733 3    239278.940 2
  22496563.052   -13311393.257 3 -10372507.838 2
 91  8 13  3 30 30.0010000  0  4 21 17 23 11
  21070650.295   -17834182.751 3 -13896750.569 2
  24009003.115    18932470.809 2  14752573.551 1
  21923231.864      338507.038 3    263776.318 2
  22490378.337   -13343897.732 3 -10397835.990 2
 91  8 13  3 30 45.0010000  0  4 21 17 23 11
  21068979.847   -17842958.339 3 -13903588.687 2
  24018350.045    18981526.283 2  14790798.591 1
  21929223.519      369994.918 3    288312.333 2
  22484212.503   -13376277.169 3 -10423066.709 2
 91  8 13  3 31  0.0010000  0  4 21 17 23 11
  21067324.694   -17851659.764 3 -13910369.004 2
  24027691.574    19030628.170 2  14829059.759 1
  21935222.362      401526.682 3    312882.529 2
  22478076.649   -13408537.138 3 -10448204.326 2
 91  8 13  3 31 15.0010000  0  4 21 17 23 11
  21065683.631   -17860281.633 3 -13917087.343 2
  24037044.804    19079781.527 2  14867361.065 1
  21941232.898      433107.336 3    337490.825 2
  22471957.887   -13440671.959 3 -10473244.463 2
 91  8 13  3 31 30.0010000  0  4 21 17 23 11
  21064058.152   -17868823.446 3 -13923743.299 2
  24046419.008    19128987.012 2  14905703.028 1
  21947253.337      464737.317 3    362137.549 2
  22465867.901   -13472680.590 3 -10498186.200 2
 91  8 13  3 31 45.0010000  0  4 21 17 23 11
  21062446.171   -17877288.973 3 -13930339.803 2
  24055781.827    19178240.891 2  14944082.675 1
  21953280.956      496412.932 3    386819.830 2
  22459804.003   -13504566.281 3 -10523032.211 2
 91  8 13  3 32  0.0010000  0  4 21 17 23 11
  21060855.174   -17885674.870 3 -13936874.263 2
  24065165.934    19227546.331 2  14982502.514 1
  21959322.082      528137.456 3    411540.233 2
  22453756.891   -13536325.343 3 -10547779.505 1
 91  8 13  3 32 15.0010000  0  4 21 17 23 11
  21059272.866   -17893981.981 3 -13943347.328 2
  24074554.535    19276902.411 2  15020961.709 1
  21965364.097      559909.764 3    436297.881 2
  22447740.056   -13567958.217 3 -10572428.476 2
 91  8 13  3 32 30.0010000  0  4 21 17 23 11
  21057705.252   -17902213.035 3 -13949761.135 2
  24083962.619    19326306.090 2  15059458.085 1
  21971416.007      591727.113 3    461090.612 2
  22441739.703   -13599467.222 3 -10596980.964 2
 91  8 13  3 32 45.0010000  0  4 21 17 23 11
  21056152.331   -17910364.318 3 -13956112.779 2
  24093366.210    19375761.368 2  15097994.642 1
  21977480.804      623592.978 3    485921.145 2
  22435770.839   -13630848.322 3 -10621433.741 2
 91  8 13  3 33  0.0010000  0  4 21 17 23 11
  21054617.096   -17918436.543 3 -13962402.826 2
  24102784.791    19425266.825 2  15136570.276 1
  21983554.606      655506.672 3    510788.957 2
  22429820.262   -13662101.782 3 -10645787.086 2
 91  8 13  3 33 15.0010000  0  4 21 17 23 11
  21053096.248   -17926429.288 3 -13968630.934 2
  24112221.354    19474823.221 2  15175185.670 1
  21989636.190      687468.361 3    535694.154 2
  22423901.759   -13693226.817 3 -10670040.332 2
 91  8 13  3 33 30.0010000  0  4 21 17 23 11
  21051587.991   -17934342.624 3 -13974797.162 2
  24121665.115    19524430.514 2  15213840.706 1
  21995726.778      719478.047 3    560636.745 2
  22418001.544   -13724222.921 3 -10694193.151 2
 91  8 13  3 33 45.0010000  0  4 21 17 23 11
  21050098.921   -17942179.238 3 -13980903.613 2
  24131105.883    19574085.998 2  15252533.319 1
  22001833.246      751533.062 3    585614.674 2
  22412124.406   -13755092.537 3 -10718247.356 2
 91  8 13  3 34  0.0010000  0  4 21 17 23 11
  21048620.939   -17949935.699 3 -13986947.604 2
  24140562.540    19623792.956 2  15291265.978 1
  22007940.317      783636.467 3    610630.318 2
  22406275.756   -13785831.853 3 -10742200.074 2
 91  8 13  3 34 15.0010000  0  5 21 17 23 11 12
  21047156.753   -17957614.160 3 -13992930.821 2
  24150028.184    19673548.957 2  15330036.886 1
  22014057.883      815786.100 3    635681.972 2
  22400448.090   -13816442.793 3 -10766052.756 2
  24696025.796           0.335 2         0.332 1
 91  8 13  3 34 30.0010000  0  5 21 17 23 11 12
  21045713.253   -17965212.289 3 -13998851.442 2
  24159514.515    19723356.516 2  15368847.944 1
  22020183.241      847984.234 3    660771.412 2
  22394657.000   -13846922.423 3 -10789803.077 2
  24691632.040      -23101.158 2    -18000.780 1
 91  8 13  3 34 45.0010000  0  5 21 17 23 11 12
  21044283.548   -17972730.508 3 -14004709.790 2
  24168996.056    19773214.730 2  15407698.443 1
  22026322.995      880230.320 3    685898.205 2
  22388876.406   -13877270.780 3 -10813451.168 2
  24687255.971      -46080.537 2    -35906.935 1
 91  8 13  3 35  0.0010000  0  5 21 17 23 11 12
  21042870.028   -17980170.307 3 -14010507.032 2
  24178498.275    19823122.068 2  15446587.355 1
  22032466.039      912522.764 3    711061.137 2
  22383130.285   -13907489.077 3 -10836997.831 2
  24682907.481      -68938.981 2    -53718.523 1
 91  8 13  3 35 15.0010000  0  5 21 17 23 11 12
  21041469.692   -17987530.657 3 -14016242.359 2
  24187995.399    19873079.688 2  15485515.387 1
  22038617.782      944862.448 3    736260.865 2
  22377403.045   -13937575.741 3 -10860442.000 2
  24678577.279      -91674.989 2    -71434.791 1
 91  8 13  3 35 30.0010000  0  5 21 17 23 11 12
  21040079.852   -17994811.648 3 -14021915.865 2
  24197530.600    19923087.642 2  15524482.613 1
  22044780.318      977249.293 3    761497.357 2
  22371701.291   -13967530.565 3 -10883783.400 2
  24674270.461     -114288.301 2    -89055.643 1
 91  8 13  3 35 45.0010000  0  5 21 17 23 11 12
  21038712.200   -18002015.713 3 -14027529.422 2
  24207044.807    19973142.871 2  15563486.675 1
  22050952.145     1009680.610 3    786768.501 2
  22366027.126   -13997355.602 3 -10907023.689 2
  24670001.414     -136781.003 2   -106582.378 1
 91  8 13  3 36  0.0010000  0  5 21 17 23 11 12
  21037356.239   -18009141.265 3 -14033081.799 2
  24216569.817    20023247.175 2  15602528.868 1
  22057133.562     1042158.015 3    812075.578 2
  22360376.937   -14027048.873 3 -10930161.259 2
  24665740.760     -159151.034 2   -124013.701 1
 91  8 13  3 36 15.0010000  0  5 21 17 23 11 12
  21036015.565   -18016188.607 3 -14038573.228 2
  24226131.698    20073400.387 2  15641609.293 1
  22063318.879     1074680.963 3    837418.131 2
  22354749.233   -14056610.277 3 -10953196.137 2
  24661499.598     -181398.387 2   -141349.200 1
 91  8 13  3 36 30.0010000  0  5 21 17 23 11 12
  21034689.584   -18023158.968 3 -14044004.674 2
  24235682.185    20123600.889 2  15680726.569 1
  22069517.388     1107248.350 3    862795.321 2
  22349152.407   -14086040.549 3 -10976128.793 2
  24657283.616     -203523.643 2   -158589.542 1
 91  8 13  3 36 45.0010000  0  5 21 17 23 11 12
  21033372.896   -18030051.363 3 -14049375.369 3
  24245238.369    20173849.682 2  15719881.476 1
  22075721.595     1139861.200 3    888207.938 2
  22343572.665   -14115338.322 3 -10998958.234 2
  24653103.914     -225525.515 2   -175733.825 1
 91  8 13  3 37  0.0010000  0  5 21 17 23 11 12
  21032078.098   -18036866.841 3 -14054686.124 2
  24254811.341    20224145.440 2  15759073.024 1
  22081936.595     1172518.056 3    913654.833 2
  22338029.508   -14144504.350 3 -11021684.988 2
  24648939.795     -247404.864 2   -192782.684 1
 91  8 13  3 37 15.0010000  0  5 21 17 23 11 12
  21030798.282   -18043604.250 3 -14059936.060 2
  24264393.613    20274489.525 2  15798302.239 1
  22088160.887     1205219.828 3    939136.733 2
  22332502.527   -14173537.132 3 -11044307.922 2
  24644806.554     -269160.012 2   -209734.596 1
 91  8 13  3 37 30.0010000  0  5 21 17 23 11 12
  21029527.758   -18050263.973 3 -14065125.446 2
  24273975.580    20324881.473 2  15837568.632 1
  22094393.573     1237966.346 3    964653.492 2
  22326999.243   -14202436.604 3 -11066826.971 2
  24640688.904     -290791.055 2   -226590.190 1
 91  8 13  3 37 45.0010000  0  5 21 17 23 11 12
  21028278.523   -18056847.043 3 -14070255.116 2
  24283573.435    20375319.799 2  15876871.079 1
  22100635.550     1270756.500 3    990204.250 2
  22321529.524   -14231203.362 3 -11089242.619 2
  24636599.437     -312298.539 2   -243349.056 1
 91  8 13  3 38  0.0010000  0  5 21 17 23 11 12
  21027042.785   -18063354.589 3 -14075325.927 2
  24293187.476    20425803.819 2  15916209.253 1
  22106876.324     1303589.006 3   1015788.019 2
  22316078.704   -14259838.107 3 -11111555.398 2
  24632534.854     -333683.091 2   -260012.312 1
 91  8 13  3 38 15.0010000  0  5 21 17 23 11 12
  21025811.533   -18069786.356 3 -14080337.694 2
  24302796.421    20476333.470 2  15955583.085 1
  22113141.694     1336463.964 3   1041404.862 2
  22310656.957   -14288340.134 3 -11133764.751 2
  24628482.555     -354944.318 2   -276579.549 1
 91  8 13  3 38 30.0010000  0  5 21 17 23 11 12
  21024608.463   -18076137.685 3 -14085286.779 2
  24312429.360    20526913.346 2  15994995.964 1
  22119403.757     1369386.022 3   1067058.403 2
  22305252.895   -14316704.479 3 -11155866.824 2
  24624458.439     -376077.127 2   -293046.584 1
 91  8 13  3 38 45.0010000  0  5 21 17 23 11 12
  21023415.592   -18082411.091 3 -14090175.144 2
  24322059.890    20577540.789 2  16034445.851 1
  22125670.915     1402352.573 3   1092746.623 2
  22299883.611   -14344933.350 3 -11177863.342 2
  24620458.012     -397083.611 2   -309415.276 1
 91  8 13  3 39  0.0010000  0  5 21 17 23 11 12
  21022236.507   -18088607.284 3 -14095003.339 2
  24331704.809    20628214.853 2  16073932.255 1
  22131959.660     1435362.713 3   1118468.796 2
  22294538.609   -14373027.081 3 -11199754.557 2
  24616473.473     -417964.152 2   -325685.892 1
 91  8 13  3 39 15.0010000  0  5 21 17 23 11 12
  21021071.216   -18094725.625 3 -14099770.882 2
  24341353.331    20678936.064 2  16113455.226 1
  22138245.708     1468416.860 3   1144225.272 2
  22289220.298   -14400984.643 3 -11221539.653 2
  24612535.700     -438717.796 2   -341857.607 1
 91  8 13  3 39 30.0010000  0  5 21 17 23 11 12
  21019919.415   -18100767.171 3 -14104478.581 2
  24351014.147    20729703.257 2  16153014.006 1
  22144546.449     1501514.125 3   1170015.328 2
  22283929.557   -14428806.758 3 -11243219.230 2
  24608606.312     -459345.149 2   -357930.783 1
 91  8 13  3 39 45.0010000  0  5 21 17 23 11 12
  21018783.501   -18106730.128 3 -14109125.039 2
  24360681.550    20780518.375 2  16192610.199 1
  22150855.279     1534656.296 3   1195840.377 2
  22278656.503   -14456491.192 3 -11264791.488 2
  24604714.713     -479843.935 2   -373903.768 1
 91  8 13  3 40  0.0010000  0  5 21 17 23 11 12
  21017666.775   -18112616.758 3 -14113712.016 3
  24370362.145    20831379.082 2  16232241.845 1
  22157168.611     1567840.918 3   1221698.513 2
  22273415.836   -14484039.841 3 -11286257.976 2
  24600836.594     -500216.183 2   -389778.207 1
 91  8 13  3 40 15.0010000  0  5 21 17 23 11 12
  21016558.738   -18118429.234 3 -14118241.221 2
  24380048.142    20882282.906 2  16271907.073 1
  22163490.938     1601065.585 3   1247587.868 2
  22268194.949   -14511454.578 3 -11307620.097 2
  24596981.562     -520463.771 2   -405555.544 1
 91  8 13  3 40 30.0010000  0  5 21 17 23 11 12
  21015465.395   -18124165.610 3 -14122711.129 2
  24389751.231    20933231.953 2  16311607.680 1
  22169821.650     1634332.215 3   1273509.919 2
  22263007.340   -14538732.946 3 -11328875.960 2
  24593155.314     -540584.244 2   -421233.812 1
 91  8 13  3 40 45.0010000  0  5 21 17 23 11 12
  21014390.636   -18129826.961 3 -14127122.567 2
  24399451.911    20984225.170 2  16351342.676 1
  22176160.163     1667639.449 3   1299463.605 2
  22257838.620   -14565875.720 3 -11350026.159 2
  24589349.744     -560578.434 2   -436813.631 1
 91  8 13  3 41  0.0010000  0  5 21 17 23 11 12
  21013327.272   -18135410.215 3 -14131473.149 2
  24409168.481    21035265.207 2  16391114.140 1
  22182510.969     1700990.673 3   1325451.563 2
  22252704.975   -14592879.405 3 -11371067.996 2
  24585575.358     -580442.900 2   -452292.466 1
 91  8 13  3 41 15.0010000  0  5 21 17 23 11 12
  21012283.103   -18140913.263 3 -14135761.239 2
  24418887.755    21086354.211 2  16430923.794 1
  22188855.772     1734387.696 3   1351475.191 2
  22247589.017   -14619741.552 3 -11391999.518 2
  24581817.462     -600175.082 2   -467668.220 1
 91  8 13  3 41 30.0010000  0  5 21 17 23 11 12
  21011250.618   -18146339.492 3 -14139989.466 3
  24428622.315    21137488.765 2  16470768.859 1
  22195221.271     1767827.116 3   1377531.867 2
  22242507.836   -14646465.051 3 -11412823.019 2
  24578079.652     -619777.971 2   -482943.178 1
 91  8 13  3 41 45.0010000  0  5 21 17 23 11 12
  21010229.221   -18151689.018 3 -14144157.935 3
  24438350.584    21188668.744 2  16510649.329 1
  22201598.750     1801308.640 3   1403621.366 2
  22237448.835   -14673049.629 3 -11433538.263 2
  24574379.909     -639251.367 2   -498117.222 1
 91  8 13  3 42  0.0010000  0  5 21 17 23 11 12
  21009228.216   -18156962.229 3 -14148266.930 2
  24448102.229    21239893.420 2  16550564.602 1
  22207972.337     1834831.936 3   1429743.414 2
  22232414.421   -14699495.414 3 -11454145.354 2
  24570701.159     -658595.214 2   -513190.339 1
 91  8 13  3 42 15.0010000  0  5 21 17 23 11 12
  21008236.503   -18162158.153 3 -14152315.695 3
  24457865.573    21291163.811 2  16590515.571 1
  22214364.212     1868397.840 3   1455898.664 2
  22227409.384   -14725801.155 3 -11474643.318 2
  24567043.393     -677808.206 2   -528161.494 1
 91  8 13  3 42 30.0010000  0  5 21 17 23 11 12
  21007263.670   -18167276.159 3 -14156303.754 2
  24467627.111    21342480.591 2  16630502.619 1
  22220750.399     1902006.792 3   1482087.451 2
  22222431.631   -14751965.791 3 -11495031.345 2
  24563418.598     -696889.299 2   -543029.854 1
 91  8 13  3 42 45.0010000  0  5 21 17 23 11 12
  21006305.837   -18172317.975 3 -14160232.442 3
  24477408.447    21393841.687 2  16670524.310 1
  22227163.554     1935657.139 3   1508308.495 2
  22217479.355   -14777990.708 3 -11515310.499 2
  24559799.807     -715839.971 2   -557796.593 1
 91  8 13  3 43  0.0010000  0  5 21 17 23 11 12
  21005359.695   -18177284.232 3 -14164102.251 3
  24487179.574    21445246.391 2  16710579.905 1
  22233573.115     1969348.190 3   1534561.252 2
  22212552.871   -14803876.039 3 -11535480.877 2
  24556221.483     -734660.385 2   -572461.824 1
 91  8 13  3 43 15.0010000  0  5 21 17 23 11 12
  21004430.034   -18182172.697 3 -14167911.450 2
  24496966.599    21496696.624 2  16750670.949 1
  22239988.374     2003082.021 3   1560847.350 2
  22207649.761   -14829619.200 3 -11555540.481 2
  24552668.339     -753347.936 2   -587023.565 1
 91  8 13  3 43 30.0010000  0  5 21 17 23 11 12
  21003513.872   -18186983.632 3 -14171660.232 3
  24506774.616    21548192.589 2  16790797.624 1
  22246421.021     2036858.338 3   1587166.544 2
  22202780.836   -14855219.981 3 -11575489.138 2
  24549145.184     -771902.517 2   -601481.682 1
 91  8 13  3 43 45.0010000  0  5 21 17 23 11 12
  21002611.198   -18191726.226 3 -14175355.760 2
  24516572.128    21599724.846 2  16830952.711 1
  22252855.466     2070667.793 3   1613511.573 2
  22197934.387   -14880687.373 3 -11595333.852 2
  24545637.612     -790332.961 2   -615843.030 1
 91  8 13  3 44  0.0010000  0  5 21 17 23 11 12
  21001721.115   -18196392.034 3 -14178991.450 2
  24526391.531    21651301.632 2  16871142.361 1
  22259289.318     2104518.707 3   1639888.875 2
  22193114.323   -14906012.575 3 -11615067.757 2
  24542146.521     -808630.665 2   -630100.927 1
 91  8 13  3 44 15.0010000  0  5 21 17 23 11 12
  21000848.717   -18200984.777 3 -14182570.215 2
  24536203.736    21702919.125 2  16911363.758 1
  22265744.145     2138407.274 3   1666295.583 2
  22188324.840   -14931198.926 3 -11634693.488 2
  24538679.425     -826798.960 2   -644258.014 1
 91  8 13  3 44 30.0010000  0  5 21 17 23 11 12
  20999990.106   -18205504.247 3 -14186091.887 3
  24546044.429    21754577.502 2  16951617.004 1
  22272195.080     2172333.635 3   1692731.701 2
  22183553.645   -14956245.805 3 -11654210.519 2
  24535266.284     -844837.249 2   -658313.852 1
 91  8 13  3 44 45.0010000  0  5 21 17 23 11 12
  20999144.695   -18209948.992 3 -14189555.332 2
  24555886.910    21806278.108 2  16991903.194 1
  22278667.601     2206299.272 3   1719198.426 2
  22178815.728   -14981151.364 3 -11673617.446 2
  24531853.153     -862743.655 2   -672266.850 1
 91  8 13  3 45  0.0010000  0  5 21 17 23 11 12
  20998309.772   -18214322.630 3 -14192963.361 2
  24565730.901    21858017.365 2  17032219.549 1
  22285133.221     2240300.591 3   1745692.960 2
  22174102.991   -15005918.825 3 -11692916.762 2
  24528458.605     -880521.437 2   -686119.621 1
 91  8 13  3 45 15.0010000  0  5 21 17 23 11 12
  20997492.840   -18218624.687 3 -14196315.611 2
  24575585.073    21909795.569 2  17072566.030 1
  22291603.640     2274337.990 3   1772215.608 2
  22169417.835   -15030547.372 3 -11712107.824 2
  24525116.819     -898169.737 2   -699871.582 1
 91  8 13  3 45 30.0010000  0  5 21 17 23 11 12
  20996688.193   -18222853.147 3 -14199610.528 3
  24585439.857    21961614.651 2  17112944.516 1
  22298095.653     2308413.129 3   1798767.658 2
  22164756.960   -15055034.776 3 -11731188.910 2
  24521779.229     -915686.400 2   -713520.906 1
 91  8 13  3 45 45.0010000  0  5 21 17 23 11 12
  20995894.644   -18227010.304 3 -14202849.866 3
  24595311.419    22013472.013 2  17153352.881 1
  22304588.853     2342523.660 3   1825347.289 2
  22160123.063   -15079383.070 3 -11750161.603 2
  24518470.415     -933073.315 2   -727069.055 1
 91  8 13  3 46  0.0010000  0  5 21 17 23 11 12
  20995123.877   -18231076.545 3 -14206018.370 2
  24605189.883    22065387.290 2  17193806.292 1
  22311080.561     2376689.263 3   1851969.824 2
  22155520.350   -15103572.054 3 -11769010.150 2
  24515174.496     -950310.424 2   -740500.582 1
 91  8 13  3 46 15.0010000  0  5 21 17 23 11 12
  20994362.402   -18235065.770 3 -14209126.869 2
  24615072.238    22117346.679 2  17234294.100 1
  22317597.153     2410895.692 3   1878624.185 2
  22150946.718   -15127615.320 3 -11787745.154 2
  24511935.841     -967411.424 2   -753825.997 1
 91  8 13  3 46 30.0010000  0  5 21 17 23 11 12
  20993618.324   -18238981.142 3 -14212177.816 2
  24624965.988    22169346.826 2  17274813.641 1
  22324109.242     2445139.756 3   1905307.863 2
  22146397.368   -15151515.682 3 -11806368.807 2
  24508692.386     -984379.123 2   -767047.633 1
 91  8 13  3 46 45.0010000  0  5 21 17 23 11 12
  20992884.726   -18242823.127 3 -14215171.572 2
  24634869.632    22221386.956 2  17315364.325 1
  22330636.618     2479421.045 3   1932020.554 2
  22141874.402   -15175273.253 3 -11824881.186 2
  24505492.697    -1001213.585 2   -780165.377 1
 91  8 13  3 47  0.0010000  0  5 21 17 23 11 12
  20992173.324   -18246591.519 3 -14218107.981 2
  24644785.570    22273467.247 2  17355946.293 1
  22337159.204     2513739.683 3   1958762.341 2
  22137384.409   -15198887.336 3 -11843281.778 2
  24502321.198    -1017914.283 2   -793178.892 1
 91  8 13  3 47 15.0010000  0  5 21 17 23 11 12
  20991469.408   -18250284.662 3 -14220985.766 2
  24654704.806    22325589.331 2  17396560.796 1
  22343703.080     2548097.318 3   1985534.502 2
  22132916.900   -15222356.219 3 -11861569.189 2
  24499163.485    -1034479.314 2   -806086.701 1
 91  8 13  3 47 30.0010000  0  5 21 17 23 11 12
  20990780.186   -18253901.850 3 -14223804.375 2
  24664632.427    22377753.875 2  17437208.468 1
  22350254.441     2582494.680 3   2012337.624 2
  22128480.269   -15245678.752 3 -11879742.593 2
  24496036.947    -1050907.514 2   -818887.826 1
 91  8 13  3 47 45.0010000  0  5 21 17 23 11 12
  20990107.454   -18257444.345 3 -14226564.768 2
  24674572.646    22429959.663 2  17477888.268 1
  22356802.208     2616930.403 3   2039170.650 2
  22124066.429   -15268855.674 3 -11897802.533 2
  24492946.688    -1067199.742 2   -831583.138 1
 91  8 13  3 48  0.0010000  0  5 21 17 23 11 12
  20989444.311   -18260909.690 3 -14229265.025 3
  24684503.871    22482208.694 2  17518601.696 1
  22363360.165     2651406.488 3   2066035.117 2
  22119685.857   -15291884.376 3 -11915746.952 2
  24489865.119    -1083353.546 2   -844170.507 1
 91  8 13  3 48 15.0010000  0  5 21 17 23 11 12
  20988800.057   -18264301.252 3 -14231907.796 2
  24694453.383    22534497.452 2  17559346.104 1
  22369923.524     2685919.590 3   2092928.433 2
  22115331.373   -15314767.778 3 -11933578.174 2
  24486818.625    -1099371.818 2   -856652.260 1
 91  8 13  3 48 30.0010000  0  5 21 17 23 11 12
  20988169.590   -18267618.058 3 -14234492.303 2
  24704419.682    22586827.116 2  17600122.462 1
  22376506.671     2720470.731 3   2119851.397 2
  22111003.868   -15337504.492 3 -11951295.087 2
  24483802.416    -1115253.105 2   -869027.312 1
 91  8 13  3 48 45.0020000  0  5 21 17 23 11 12
  20987553.818   -18270859.590 3 -14237018.151 3
  24714382.390    22639201.754 2  17640933.755 1
  22383089.812     2755062.947 3   2146806.359 2
  22106707.243   -15360095.099 3 -11968898.152 2
  24480808.992    -1130997.482 2   -881295.606 1
 91  8 13  3 49  0.0020000  0  5 21 17 23 11 12
  20986952.432   -18274028.673 3 -14239487.560 3
  24724359.185    22691611.168 2  17681772.295 1
  22389682.243     2789688.193 3   2173787.063 2
  22102433.999   -15382539.433 3 -11986387.237 2
  24477827.849    -1146605.738 2   -893457.902 1
 91  8 13  3 49 15.0020000  0  5 21 17 23 11 12
  20986362.143   -18277122.928 3 -14241898.667 3
  24734336.871    22744061.268 2  17722642.314 1
  22396275.284     2824351.469 3   2200797.396 2
  22098191.336   -15404836.061 3 -12003761.229 2
  24474883.587    -1162075.966 2   -905512.556 1
 91  8 13  3 49 30.0020000  0  5 21 17 23 11 12
  20985786.844   -18280140.425 3 -14244249.955 2
  24744319.364    22796553.420 2  17763545.216 1
  22402881.212     2859054.422 3   2227838.641 2
  22093977.161   -15426982.824 3 -12021018.440 2
  24471962.708    -1177406.095 2   -917458.185 1
 91  8 13  3 49 45.0020000  0  5 21 17 23 11 12
  20985226.527   -18283082.044 3 -14246542.116 3
  24754318.941    22849087.163 2  17804480.613 1
  22409487.437     2893796.345 3   2254910.249 2
  22089790.854   -15448980.075 3 -12038159.148 2
  24469085.604    -1192596.423 2   -929294.779 1
 91  8 13  3 50  0.0020000  0  5 21 17 23 11 12
  20984681.504   -18285947.304 3 -14248774.765 3
  24764327.513    22901662.932 2  17845448.749 1
  22416110.153     2928577.475 3   2282012.412 2
  22085633.331   -15470827.123 3 -12055182.846 2
  24466208.796    -1207646.203 2   -941021.905 1
 91  8 13  3 50 15.0020000  0  5 21 17 23 11 12
  20984149.674   -18288736.690 3 -14250948.300 3
  24774342.978    22954280.039 2  17886449.056 1
  22422737.065     2963397.320 3   2309144.745 2
  22081506.093   -15492523.922 3 -12072089.448 2
  24463380.255    -1222555.505 2   -952639.494 1
 91  8 13  3 50 30.0020000  0  5 21 17 23 11 12
  20983631.638   -18291450.359 3 -14253062.833 3
  24784361.445    23006938.115 2  17927481.181 1
  22429363.375     2998255.614 3   2336307.025 1
  22077406.426   -15514070.528 3 -12088879.034 2
  24460569.400    -1237324.498 2   -964147.749 1
 91  8 13  3 50 45.0020000  0  5 21 17 23 11 12
  20983133.678   -18294087.301 3 -14255117.570 2
  24794383.803    23059638.050 2  17968546.043 1
  22436002.877     3033153.389 3   2363500.091 2
  22073335.552   -15535465.427 3 -12105550.384 2
  24457789.424    -1251951.710 2   -975545.641 1
 91  8 13  3 51  0.0020000  0  5 21 17 23 11 12
  20982645.316   -18296654.388 3 -14257117.880 3
  24804422.355    23112373.158 2  18009638.401 1
  22442655.275     3068083.613 3   2390718.448 2
  22069288.349   -15556715.134 3 -12122108.610 2
  24455027.735    -1266443.713 2   -986838.051 1
 91  8 13  3 51 15.0020000  0  5 21 17 23 11 12
  20982171.046   -18299147.713 3 -14259060.718 3
  24814462.102    23165147.201 2  18050760.999 1
  22449312.760     3103050.023 3   2417964.979 2
  22065276.230   -15577815.506 3 -12138550.445 2
  24452297.823    -1280796.285 2   -998021.794 1
 91  8 13  3 51 30.0020000  0  5 21 17 23 11 12
  20981710.264   -18301563.491 3 -14260943.139 3
  24824519.840    23217963.562 2  18091916.524 1
  22455966.956     3138056.584 3   2445242.836 2
  22061286.892   -15598762.381 3 -12154872.663 2
  24449589.505    -1295005.343 2  -1009093.876 1
 91  8 13  3 51 45.0020000  0  5 21 17 23 11 12
  20981264.175   -18303906.685 3 -14262768.991 2
  24834576.977    23270817.113 2  18133100.977 1
  22462635.243     3173097.920 3   2472547.782 2
  22057332.629   -15619560.637 3 -12171079.075 2
  24446919.247    -1309075.604 2  -1020057.627 1
 91  8 13  3 52  0.0020000  0  5 21 17 23 11 12
  20980831.872   -18306173.987 3 -14264535.711 3
  24844639.217    23323711.320 2  18174317.254 1
  22469318.510     3208177.551 3   2499882.578 2
  22053401.147   -15640206.327 3 -12187166.618 2
  24444264.885    -1323003.238 2  -1030910.351 1
 91  8 13  3 52 15.0020000  0  5 21 17 23 11 12
  20980414.559   -18308364.932 4 -14266242.932 3
  24854715.540    23376646.535 2  18215565.478 1
  22476001.786     3243295.869 3   2527247.506 2
  22049506.546   -15660698.598 3 -12203134.618 2
  24441633.611    -1336787.564 2  -1041651.345 1
 91  8 13  3 52 30.0020000  0  5 21 17 23 11 12
  20980011.337   -18310480.409 3 -14267891.344 3
  24864798.459    23429621.570 2  18256844.682 1
  22482680.866     3278451.652 3   2554641.619 2
  22045631.429   -15681038.355 3 -12218983.772 2
  24439040.107    -1350429.247 2  -1052281.125 1
 91  8 13  3 52 45.0020000  0  5 21 17 23 11 12
  20979622.808   -18312519.165 3 -14269479.986 3
  24874878.682    23482637.812 2  18298156.043 1
  22489385.423     3313646.109 3   2582065.857 2
  22041791.386   -15701223.817 3 -12234712.687 1
  24436476.879    -1363926.734 2  -1062798.792 1
 91  8 13  3 53  0.0020000  0  5 21 17 23 11 12
  20979253.762   -18314481.081 3 -14271008.736 3
  24884966.400    23535695.271 2  18339499.484 1
  22496091.184     3348879.522 3   2609520.450 2
  22037977.729   -15721254.434 3 -12250320.948 2
  24433940.036    -1377279.507 2  -1073203.416 1
 91  8 13  3 53 15.0020000  0  5 21 17 23 11 12
  20978891.618   -18316369.381 3 -14272480.118 3
  24895085.293    23588790.534 2  18380872.422 1
  22502798.140     3384148.425 3   2637002.712 2
  22034197.340   -15741133.196 3 -12265810.873 2
  24431423.575    -1390490.562 2  -1083497.786 1
 91  8 13  3 53 30.0020000  0  5 21 17 23 11 12
  20978546.854   -18318180.266 3 -14273891.180 3
  24905199.692    23641927.235 2  18422277.632 1
  22509514.685     3419456.650 3   2664515.598 1
  22030447.541   -15760856.012 3 -12281179.293 2
  24428936.501    -1403555.851 2  -1093678.458 1
 91  8 13  3 53 45.0020000  0  5 21 17 23 11 12
  20978218.283   -18319915.472 3 -14275243.284 3
  24915308.987    23695103.670 2  18463713.756 1
  22516246.526     3454802.424 3   2692057.751 2
  22026721.117   -15780424.276 3 -12296427.279 2
  24426472.207    -1416476.592 2  -1103746.532 1
 91  8 13  3 54  0.0020000  0  5 21 17 23 11 12
  20977900.201   -18321574.436 3 -14276535.994 3
  24925432.085    23748320.461 2  18505181.313 1
  22522983.461     3490186.320 3   2719629.623 2
  22023029.776   -15799836.946 3 -12311553.996 2
  24424047.482    -1429251.917 2  -1113701.428 1
 91  8 13  3 54 15.0020000  0  5 21 17 23 11 12
  20977599.507   -18323159.024 3 -14277770.718 2
  24935573.759    23801575.486 2  18546678.727 1
  22529715.904     3525606.321 3   2747229.617 2
  22019360.615   -15819095.722 3 -12326560.818 2
  24421641.350    -1441883.533 2  -1123544.233 1
 91  8 13  3 54 30.0020000  0  5 21 17 23 11 12
  20977310.811   -18324668.479 3 -14278946.933 2
  24945725.336    23854869.168 2  18588206.191 1
  22536466.329     3561063.075 3   2774858.255 2
  22015725.630   -15838199.546 3 -12341446.900 2
  24419263.400    -1454370.399 2  -1133274.173
 91  8 13  3 54 45.0020000  0  5 21 17 23 11 12
  20977040.097   -18326102.146 3 -14280064.099 3
  24955853.521    23908202.067 2  18629764.360 1
  22543223.053     3596557.176 3   2802515.993 2
  22012123.922   -15857147.550 3 -12356211.573 2
  24416916.023    -1466711.640 2  -1142890.701 1
 91  8 13  3 55  0.0020000  0  5 21 17 23 11 12
  20976783.178   -18327462.149 3 -14281123.859 3
  24966013.491    23961572.082 2  18671351.363 1
  22549983.075     3632086.567 3   2830201.215 2
  22008541.105   -15875941.512 3 -12370856.199 2
  24414584.237    -1478909.126 2  -1152395.176 1
 91  8 13  3 55 15.0020000  0  5 21 17 23 11 12
  20976538.543   -18328744.388 4 -14282122.995 2
  24976185.145    24014983.090 2  18712970.342 1
  22556749.092     3667654.911 3   2857916.803 1
  22005001.153   -15894577.004 3 -12385377.359 2
  24412309.113    -1490958.335 2  -1161784.383 1
 91  8 13  3 55 30.0020000  0  5 21 17 23 11 12
  20976305.007   -18329953.113 3 -14283064.786 3
  24986353.509    24068430.844 2  18754617.951 1
  22563520.797     3703258.112 3   2885659.549 2
  22001481.889   -15913058.050 3 -12399778.163 2
  24410036.685    -1502863.306 2  -1171060.811 1
 91  8 13  3 55 45.0020000  0  5 21 17 23 11 12
  20976093.056   -18331087.322 4 -14283948.578 3
  24996535.658    24121916.512 2  18796295.032 1
  22570303.304     3738897.276 3   2913430.333 2
  21997990.808   -15931382.972 3 -12414057.329 2
  24407795.431    -1514622.553 2  -1180223.759 1
 91  8 13  3 56  0.0020000  0  5 21 17 23 11 12
  20975889.194   -18332148.201 3 -14284775.234 3
  25006716.011    24175438.635 2  18838000.578 1
  22577099.003     3774571.130 3   2941228.123 2
  21994537.497   -15949552.820 3 -12428215.640 2
  24405594.958    -1526237.018 2  -1189274.111 1
 91  8 13  3 56 15.0020000  0  5 21 17 23 11 12
  20975703.620   -18333133.039 3 -14285542.634 3
  25016903.256    24228999.561 2  18879736.351 1
  22583889.895     3810282.013 3   2969054.776 2
  21991109.672   -15967564.708 3 -12442250.877 2
  24403404.075    -1537703.978 2  -1198209.252 1
 91  8 13  3 56 30.0020000  0  5 21 17 23 11 12
  20975530.645   -18334043.193 3 -14286251.845 2
  25027112.994    24282598.105 2  18921501.345 1
  22590690.393     3846028.707 3   2996909.336 2
  21987708.825   -15985419.593 3 -12456163.764 2
  24401254.862    -1549024.356 2  -1207030.396 1
 91  8 13  3 56 45.0020000  0  5 21 17 23 11 12
  20975370.556   -18334878.530 4 -14286902.755 2
  25037317.925    24336234.189 2  18963295.750
  22597501.379     3881811.389 3   3024791.940 2
  21984343.053   -16003117.111 3 -12469954.013 2
  24399128.135    -1560197.651 2  -1215736.843
 91  8 13  3 57  0.0020000  0  5 21 17 23 11 12
  20975223.957   -18335641.405 3 -14287497.205 2
  25047525.858    24389905.451 2  19005117.509 1
  22604312.958     3917627.599 3   3052700.674 2
  21981003.370   -16020659.195 3 -12483623.153 2
  24397026.893    -1571225.960 2  -1224330.270 1
 91  8 13  3 57 15.0020000  0  5 21 17 23 11 12
  20975095.044   -18336329.678 3 -14288033.502 3
  25057745.787    24443613.623 2  19046968.026 1
  22611139.536     3953479.213 3   3080636.977 2
  21977695.157   -16038043.454 3 -12497169.315 2
  24394956.826    -1582106.902 2  -1232808.927 1
 91  8 13  3 57 30.0020000  0  5 21 17 23 11 12
  20974978.127   -18336942.427 4 -14288510.962 3
  25067982.800    24497359.837 2  19088848.221
  22617963.705     3989367.295 3   3108601.713 1
  21974417.823   -16055268.694 3 -12510591.563 2
  24392916.136    -1592839.358 2  -1241171.762 1
 91  8 13  3 57 45.0020000  0  5 21 17 23 11 12
  20974874.996   -18337480.562 3 -14288930.286 3
  25078212.615    24551142.929 2  19130756.988 1
  22624802.271     4025290.892 3   3136594.120 1
  21971166.874   -16072335.514 3 -12523890.385 2
  24390896.736    -1603423.970 2  -1249419.571 1
 91  8 13  3 58  0.0020000  0  5 21 17 23 11 12
  20974786.559   -18337943.363 4 -14289290.909 3
  25088459.819    24604963.752 2  19172695.316 1
  22631646.840     4061250.410 3   3164614.523 2
  21967952.203   -16089242.948 3 -12537064.997 2
  24388911.207    -1613859.772 2  -1257551.447 1
 91  8 13  3 58 15.0020000  0  5 21 17 23 11 12
  20974715.205   -18338331.944 4 -14289593.700 3
  25098707.329    24658820.949 2  19214661.922 1
  22638498.589     4097244.780 3   3192662.090 2
  21964768.411   -16105991.773 3 -12550116.011 2
  24386954.461    -1624147.528 2  -1265567.769 1
 91  8 13  3 58 30.0020000  0  5 21 17 23 11 12
  20974654.347   -18338643.609 4 -14289836.559 3
  25108967.725    24712717.172 2  19256659.036 1
  22645352.450     4133276.695 3   3220738.891 2
  21961609.494   -16122579.012 3 -12563041.153 2
  24385029.196    -1634284.224 2  -1273466.526 1
 91  8 13  3 58 45.0020000  0  5 21 17 23 11 12
  20974610.582   -18338879.862 4 -14290020.660 2
  25119222.424    24766650.483 2  19298684.815 1
  22652216.197     4169344.686 3   3248843.806 2
  21958485.356   -16139005.942 3 -12575841.409 2
  24383125.814    -1644271.201 2  -1281248.562
 91  8 13  3 59  0.0020000  0  5 21 17 23 11 12
  20974582.103   -18339040.210 4 -14290145.614 3
  25129492.418    24820621.135 2  19340739.971 1
  22659087.141     4205448.987 3   3276977.026 2
  21955389.102   -16155271.570 3 -12588515.873 2
  24381244.619    -1654107.697 2  -1288913.274 1
 91  8 13  3 59 15.0020000  0  5 21 17 23 11 12
  20974566.206   -18339122.664 4 -14290209.857 3
  25139759.708    24874631.366 2  19382825.822 1
  22665964.682     4241591.580 3   3305140.085 1
  21952324.923   -16171373.820 3 -12601063.088 2
  24379405.087    -1663791.423 2  -1296459.062 1
 91  8 13  3 59 30.0020000  0  5 21 17 23 11 12
  20974561.713   -18339130.772 4 -14290216.183 3
  25150062.377    24928677.468 2  19424939.586 1
  22672852.414     4277768.925 3   3333330.207 2
  21949291.325   -16187315.876 3 -12613485.455 2
  24377610.830    -1673325.771 2  -1303888.429 1
 91  8 13  3 59 45.0020000  0  5 21 17 23 11 12
  20974571.310   -18339064.732 3 -14290164.725 3
  25160344.360    24982759.303 2  19467081.312 1
  22679738.942     4313980.666 3   3361547.145 2
  21946284.704   -16203097.565 3 -12625782.853 2
  24375812.672    -1682710.528 2  -1311201.216 1
 91  8 13  4  0  0.0020000  0  5 21 17 23 11 12
  20974600.984   -18338924.189 4 -14290055.217 3
  25170646.427    25036876.857 2  19509250.886 1
  22686636.865     4350227.171 3   3389791.170 2
  21943313.465   -16218718.298 3 -12637954.848 2
  24374058.288    -1691945.102 2  -1318396.957 1
 91  8 13  4  0 15.0020000  0  5 21 17 23 11 12
  20974641.757   -18338706.946 4 -14289885.940 3
  25180958.389    25091032.046 2  19551449.681 1
  22693545.589     4386510.487 3   3418063.890 2
  21940373.993   -16234175.666 3 -12649999.547 2
  24372324.888    -1701027.137 2  -1325473.777 1
 91  8 13  4  0 30.0020000  0  5 21 17 23 11 12
  20974697.519   -18338413.806 4 -14289657.521 2
  25191268.850    25145224.414 2  19593677.430 1
  22700457.297     4422830.034 3   3446364.822 2
  21937463.314   -16249470.070 3 -12661917.257 2
  24370622.672    -1709957.118 2  -1332432.246 1
 91  8 13  4  0 45.0020000  0  5 21 17 23 11 12
  20974767.669   -18338048.353 4 -14289372.763 2
  25201581.109    25199450.293 2  19635931.363 1
  22707369.913     4459181.969 3   3474691.002 2
  21934584.403   -16264604.825 3 -12673710.562 2
  24368957.921    -1718738.268 2  -1339274.659 1
 91  8 13  4  1  0.0020000  0  5 21 17 23 11 12
  20974850.714   -18337608.603 3 -14289030.110 2
  25211902.066    25253711.198 2  19678212.565 1
  22714294.517     4495568.175 3   3503043.864 2
  21931735.472   -16279577.735 3 -12685377.745 2
  24367314.163    -1727368.443 2  -1345999.489 1
 91  8 13  4  1 15.0020000  0  5 21 17 23 11 12
  20974945.748   -18337093.887 4 -14288629.038 3
  25222238.005    25308007.864 2  19720521.728
  22721228.117     4531989.214 3   3531423.894 2
  21928918.928   -16294387.949 3 -12696918.136 2
  24365705.776    -1735846.671 2  -1352605.914
 91  8 13  4  1 30.0020000  0  5 21 17 23 11 12
  20975059.672   -18336505.110 4 -14288170.259 3
  25232589.238    25362339.309 2  19762857.863 1
  22728167.414     4568444.393 3   3559830.515 2
  21926129.057   -16309035.858 3 -12708332.029 2
  24364108.776    -1744173.558 2  -1359094.309 1
 91  8 13  4  1 45.0020000  0  5 21 17 23 11 12
  20975189.781   -18335842.998 3 -14287654.328 2
  25242930.883    25416704.697 2  19805220.497 1
  22735104.618     4604932.844 3   3588263.064 2
  21923371.268   -16323522.140 3 -12719620.033 2
  24362566.648    -1752349.655 2  -1365465.149 1
 91  8 13  4  2  0.0020000  0  5 21 17 23 11 12
  20975326.486   -18335108.446 3 -14287081.951 2
  25253276.419    25471102.743 2  19847608.506 1
  22742053.504     4641453.502 3   3616720.716 2
  21920647.054   -16337847.484 3 -12730782.637 2
  24361031.709    -1760375.819 2  -1371719.455 1
 91  8 13  4  2 15.0020000  0  5 21 17 23 11 12
  20975479.376   -18334300.188 3 -14286452.147 3
  25263644.745    25525534.832 2  19890023.138 1
  22749017.083     4678007.669 3   3645204.478 2
  21917951.920   -16352010.089 3 -12741818.426 2
  24359526.453    -1768250.332 2  -1377855.436 1
 91  8 13  4  2 30.0020000  0  5 21 17 23 11 12
  20975648.756   -18333415.734 3 -14285762.964 2
  25273999.277    25580003.396 2  19932466.174 1
  22755976.169     4714597.720 3   3673716.193 2
  21915287.359   -16366007.340 3 -12752725.369 2
  24358064.361    -1775970.461 2  -1383871.111 1
 91  8 13  4  2 45.0020000  0  5 21 17 23 11 12
  20975834.034   -18332457.359 4 -14285016.179 2
  25284374.793    25634506.165 2  19974935.817 1
  22762943.343     4751221.725 3   3702254.368 2
  21912654.287   -16379841.017 3 -12763504.865 2
  24356632.256    -1783538.108 2  -1389767.925
 91  8 13  4  3  0.0020000  0  5 21 17 23 11 12
  20976028.002   -18331423.047 3 -14284210.227 2
  25294743.712    25689044.835 2  20017433.516 1
  22769922.513     4787881.092 3   3730820.093 2
  21910053.585   -16393508.985 3 -12774155.222 2
  24355211.538    -1790951.291 2  -1395544.435 1
 91  8 13  4  3 15.0020000  0  5 21 17 23 11 12
  20976240.554   -18330315.545 3 -14283347.245 3
  25305132.420    25743616.372 2  20059956.806 1
  22776899.878     4824573.118 3   3759411.273 1
  21907479.870   -16407013.819 3 -12784678.461 2
  24353830.397    -1798212.493 2  -1401202.481 1
 91  8 13  4  3 30.0020000  0  5 21 17 23 11 12
  20976467.494   -18329134.217 3 -14282426.735 3
  25315524.426    25798221.491 2  20102506.213 1
  22783890.741     4861298.521 3   3788028.460 2
  21904944.519   -16420354.499 3 -12795073.787 2
  24352476.234    -1805320.756 2  -1406741.389 1
 91  8 13  4  3 45.0020000  0  5 21 17 23 11 12
  20976702.235   -18327877.382 3 -14281447.383 3
  25325912.532    25852861.818 2  20145082.998 1
  22790888.793     4898058.783 3   3816672.815 2
  21902440.657   -16433529.150 3 -12805339.744 2
  24351157.442    -1812274.239 2  -1412159.655 1
 91  8 13  4  4  0.0020000  0  5 21 17 23 11 12
  20976956.153   -18326543.311 3 -14280407.855 3
  25336334.823    25907538.674 2  20187688.372 1
  22797892.551     4934855.554 3   3845345.633 1
  21899961.976   -16446535.947 3 -12815474.895 2
  24349865.638    -1819071.157 2  -1417455.943 1
 91  8 13  4  4 15.0020000  0  5 21 17 23 11 12
  20977226.570   -18325133.638 3 -14279309.419 3
  25346734.917    25962250.664 2  20230320.986 1
  22804893.605     4971687.430 3   3874045.775 2
  21897521.066   -16459376.076 3 -12825480.181 2
  24348595.122    -1825712.529 2  -1422631.081 1
 91  8 13  4  4 30.0020000  0  5 21 17 23 11 12
  20977504.177   -18323649.662 3 -14278153.086 3
  25357159.005    26016996.124 2  20272979.718 1
  22811910.241     5008552.946 3   3902772.142 2
  21895105.633   -16472050.727 3 -12835356.525 2
  24347365.973    -1832199.509 2  -1427685.814 1
 91  8 13  4  4 45.0020000  0  5 21 17 23 11 12
  20977805.167   -18322095.195 3 -14276941.824 3
  25367581.287    26071771.162 1  20315661.514 1
  22818932.584     5045448.036 3   3931521.541 2
  21892728.878   -16484563.523 3 -12845106.757 2
  24346158.705    -1838535.903 2  -1432623.199 1
 91  8 13  4  5  0.0020000  0  5 21 17 23 11 12
  20978114.856   -18320470.309 4 -14275675.685 3
  25378006.571    26126575.840 1  20358366.440 1
  22825962.719     5082372.742 3   3960294.030 2
  21890377.007   -16496914.066 3 -12854730.538 2
  24344982.316    -1844721.378 2  -1437443.081 1
 91  8 13  4  5 15.0020000  0  5 21 17 23 11 12
  20978439.229   -18318769.275 4 -14274350.210 3
  25388459.138    26181415.566 1  20401098.740 1
  22832996.744     5119332.601 3   3989093.921 2
  21888057.516   -16509096.477 3 -12864223.324 2
  24343835.314    -1850750.125 2  -1442140.789 1
 91  8 13  4  5 30.0020000  0  5 21 17 23 11 12
  20978774.692   -18316992.293 4 -14272965.549 3
  25398882.319    26236289.851 1  20443857.924 1
  22840028.973     5156327.366 3   4017921.010 2
  21885772.497   -16521110.644 3 -12873585.006 2
  24342711.694    -1856622.106 2  -1446716.313 1
 91  8 13  4  5 45.0020000  0  5 21 17 23 11 12
  20979129.647   -18315142.216 4 -14271523.935 3
  25409337.285    26291196.041 2  20486641.862 1
  22847080.998     5193354.190 3   4046773.052 1
  21883516.254   -16532959.217 3 -12882817.662 2
  24341622.242    -1862339.874 2  -1451171.741 1
 91  8 13  4  6  0.0020000  0  5 21 17 23 11 12
  20979493.598   -18313216.123 4 -14270023.083 3
  25419795.541    26346136.677 1  20529452.813 1
  22854133.312     5230415.860 3   4075652.276 2
  21881297.197   -16544639.076 3 -12891918.851 2
  24340575.369    -1867900.556 2  -1455504.646 1
 91  8 13  4  6 15.0020000  0  5 21 17 23 11 12
  20979874.039   -18311218.859 4 -14268466.777 3
  25430253.203    26401106.838 2  20572286.620 1
  22861190.128     5267507.637 3   4104554.954 2
  21879102.710   -16556154.621 3 -12900891.991 2
  24339545.282    -1873308.411 2  -1459718.553
 91  8 13  4  6 30.0020000  0  5 21 17 23 11 12
  20980270.063   -18309143.821 4 -14266849.859 3
  25440721.955    26456113.079 2  20615148.519 1
  22868255.337     5304636.038 3   4133486.147 2
  21876940.314   -16567499.084 3 -12909731.828 2
  24338546.973    -1878556.765 2  -1463808.173 1
 91  8 13  4  6 45.0020000  0  5 21 17 23 11 12
  20980677.482   -18306995.313 4 -14265175.706 3
  25451190.707    26511151.102 2  20658035.314 1
  22875330.135     5341796.676 3   4162442.486 2
  21874817.181   -16578676.507 3 -12918441.517 2
  24337569.953    -1883649.690 2  -1467776.657 1
 91  8 13  4  7  0.0020000  0  5 21 17 23 11 12
  20981102.586   -18304772.031 4 -14263443.274 3
  25461662.461    26566221.934 2  20700947.613 1
  22882407.935     5378990.990 3   4191425.040 1
  21872720.729   -16589685.365 3 -12927019.853 2
  24336628.601    -1888585.625 2  -1471622.901 1
 91  8 13  4  7 15.0020000  0  5 21 17 23 11 12
  20981535.788   -18302474.090 4 -14261652.668 3
  25472149.798    26621325.510 2  20743885.403 1
  22889493.534     5416218.688 3   4220433.639 1
  21870661.455   -16600525.492 3 -12935466.710 2
  24335716.635    -1893364.448 2  -1475346.646 1
 91  8 13  4  7 30.0020000  0  4 21 23 11 12
  20981989.668   -18300103.754 4 -14259805.650 3
  22896583.026     5453477.659 3   4249466.612 1
  21868627.667   -16611198.895 3 -12943783.654 2
  24334847.832    -1897988.225 2  -1478949.488 1
 91  8 13  4  7 45.0020000  0  4 21 23 11 12
  20982453.748   -18297659.498 4 -14257901.019 3
  22903677.316     5490769.179 3   4278524.923 1
  21866631.344   -16621703.925 3 -12951969.396 2
  24333996.122    -1902455.233 2  -1482430.248 1
 91  8 13  4  8  0.0020000  0  4 21 23 11 12
  20982932.215   -18295141.494 4 -14255938.931 3
  22910789.291     5528093.005 3   4307608.422 2
  21864660.814   -16632040.650 3 -12960023.975 2
  24333176.790    -1906765.557 2  -1485788.973 1
 91  8 13  4  8 15.0020000  0  4 21 23 11 12
  20983426.580   -18292550.464 4 -14253919.957 3
  22917887.778     5565448.291 3   4336716.424 1
  21862725.951   -16642209.648 3 -12967947.867 2
  24332383.538    -1910919.797 2  -1489025.985 1
 91  8 13  4  8 30.0020000  0  4 21 23 11 12
  20983930.525   -18289883.618 3 -14251841.890 3
  22925004.850     5602837.724 3   4365851.024 1
  21860827.062   -16652207.779 3 -12975738.609 2
  24331624.463    -1914914.926 2  -1492139.114 1
 91  8 13  4  8 45.0020000  0  4 21 23 11 12
  20984452.164   -18287144.502 3 -14249707.521 3
  22932117.427     5640257.757 3   4395009.488 2
  21858951.565   -16662038.176 3 -12983398.651 2
  24330908.262    -1918754.224 2  -1495130.712 1
 91  8 13  4  9  0.0020000  0  4 21 23 11 12
  20984985.801   -18284326.957 3 -14247512.039 3
  22939245.894     5677714.641 3   4424196.667 1
  21857117.433   -16671694.638 3 -12990923.165 2
  24330195.054    -1922431.418 2  -1497996.042 1
 91  8 13  4  9 15.0020000  0  4 21 23 11 12
  20985540.709   -18281434.369 3 -14245258.074 3
  22946384.246     5715204.966 3   4453409.900 1
  21855312.086   -16681180.280 3 -12998314.565 2
  24329526.222    -1925949.657 2  -1500737.514 1
 91  8 13  4  9 30.0020000  0  4 21 23 11 12
  20986105.520   -18278469.642 3 -14242947.890 3
  22953523.505     5752725.868 3   4482646.948 1
  21853538.813   -16690497.570 3 -13005574.782 2
  24328881.070    -1929311.606 2  -1503357.194 1
 91  8 13  4  9 45.0020000  0  4 21 23 11 12
  20986682.023   -18275434.964 3 -14240583.206 3
  22960673.557     5790274.960 3   4511905.972 1
  21851797.316   -16699648.583 3 -13012705.441 2
  24328276.682    -1932519.327 2  -1505856.727 1
 91  8 13  4 10  0.0020000  0  4 21 23 11 12
  20987274.711   -18272324.390 3 -14238159.385 3
  22967826.305     5827858.063 3   4541191.490 1
  21850091.793   -16708627.272 3 -13019701.823 2
  24327700.188    -1935566.603 2  -1508231.225 1
 91  8 13  4 10 15.0020000  0  4 21 23 11 12
  20987878.192   -18269142.514 3 -14235680.003 2
  22974978.757     5865470.526 3   4570499.909 1
  21848413.858   -16717438.053 3 -13026567.362 2
  24327137.174    -1938457.993 2  -1510484.142 1
 91  8 13  4 10 30.0020000  0  4 21 23 11 12
  20988501.767   -18265885.902 3 -14233142.368 3
  22982141.993     5903115.967 3   4599833.993 1
  21846765.598   -16726077.193 3 -13033299.156 2
  24326629.922    -1941189.772 2  -1512612.882 1
 91  8 13  4 10 45.0020000  0  4 21 23 11 12
  20989134.023   -18262558.335 3 -14230549.466 3
  22989312.130     5940790.244 3   4629190.547 1
  21845156.915   -16734548.297 3 -13039900.002 2
  24326129.869    -1943765.542 2  -1514619.926 1
 91  8 13  4 11  0.0020000  0  4 21 23 11 12
  20989779.175   -18259155.013 4 -14227897.532 3
  22996491.263     5978498.310 3   4658573.460 2
  21843577.303   -16742846.260 3 -13046365.943 2
  24325674.488    -1946180.187 2  -1516501.472 1
 91  8 13  4 11 15.0020000  0  4 21 23 11 12
  20990444.421   -18255678.186 4 -14225188.320 2
  23003672.185     6016237.823 3   4687980.836 1
  21842031.877   -16750973.303 3 -13052698.721 2
  24325240.990    -1948435.966 2  -1518259.167 1
 91  8 13  4 11 30.0020000  0  4 21 23 11 12
  20991116.254   -18252128.781 3 -14222422.552 2
  23010858.813     6054007.809 3   4717411.984 1
  21840516.422   -16758930.188 3 -13058898.884 2
  24324852.757    -1950533.562 2  -1519893.681 1
 91  8 13  4 11 45.0020000  0  4 21 23 11 12
  20991805.171   -18248504.232 4 -14219598.229 2
  23018051.435     6091810.782 3   4746868.844 1
  21839033.354   -16766713.976 3 -13064964.178 2
  24324477.115    -1952470.286 2  -1521402.787 1
 91  8 13  4 12  0.0020000  0  4 21 23 11 12
  20992512.385   -18244805.127 4 -14216715.809 3
  23025251.552     6129646.022 3   4776350.829 1
  21837584.454   -16774325.145 3 -13070894.953 2
  24324136.853    -1954246.623 2  -1522786.946 1
 91  8 13  4 12 15.0020000  0  4 21 23 11 12
  20993228.594   -18241033.447 4 -14213776.842 3
  23032457.061     6167511.614 3   4805856.495 1
  21836173.630   -16781765.478 3 -13076692.624 2
  24323836.457    -1955864.498 2  -1524047.595 1
 91  8 13  4 12 30.0020000  0  4 21 23 11 12
  20993959.488   -18237185.968 4 -14210778.809 3
  23039669.471     6205410.888 3   4835388.385 2
  21834792.489   -16789031.410 3 -13082354.392 2
  24323552.559    -1957320.417 2  -1525182.065 1
 91  8 13  4 12 45.0020000  0  4 21 23 11 12
  20994706.863   -18233262.932 4 -14207721.889 2
  23046888.469     6243343.347 3   4864946.103 1
  21833437.130   -16796123.204 3 -13087880.461 2
  24323314.817    -1958614.502 2  -1526190.391 1
 91  8 13  4 13  0.0020000  0  4 21 23 11 12
  20995470.136   -18229267.784 4 -14204608.786 3
  23054111.970     6281305.541 3   4894527.052 1
  21832119.237   -16803044.048 3 -13093273.345 2
  24323096.873    -1959749.977 2  -1527075.187 1
 91  8 13  4 13 15.0020000  0  4 21 23 11 12
  20996241.209   -18225197.094 4 -14201436.817 3
  23061336.072     6319300.913 3   4924133.797 1
  21830836.123   -16809790.188 3 -13098530.078 2
  24322902.905    -1960723.061 2  -1527833.419 1
 91  8 13  4 13 30.0020000  0  4 21 23 11 12
  20997033.553   -18221053.158 4 -14198207.782 3
  23068583.549     6357327.228 3   4953764.692 1
  21829586.591   -16816363.838 3 -13103652.414 2
  24322747.912    -1961535.988 2  -1528466.840 1
 91  8 13  4 13 45.0020000  0  5 21 23 11 12 15
  20997831.604   -18216835.271 4 -14194921.120 3
  23075820.241     6395385.062 3   4983420.142 1
  21828370.634   -16822763.835 3 -13108639.421 2
  24322632.191    -1962187.785 2  -1528974.719 1
  25207259.174           0.207 2         0.044 1
 91  8 13  4 14  0.0020000  0  5 21 23 11 12 15
  20998648.536   -18212545.731 4 -14191578.615 3
  23083066.828     6433471.922 3   5013098.214 1
  21827184.054   -16828992.567 3 -13113492.993 2
  24322540.159    -1962680.826 2  -1529358.912 1
  25198191.954      -47650.191 2    -37130.261 1
 91  8 13  4 14 15.0020000  0  5 21 23 11 12 15
  20999481.662   -18208181.353 4 -14188177.804 3
  23090325.098     6471591.187 3   5042801.497 2
  21826033.151   -16835046.558 3 -13118210.406 2
  24322471.501    -1963011.792 2  -1529616.777 1
  25189128.930      -95293.527 2    -74255.114 1
 91  8 13  4 14 30.0020000  0  5 21 23 11 12 15
  21000327.378   -18203743.516 4 -14184719.757 3
  23097582.477     6509741.306 3   5072528.860 2
  21824911.626   -16840927.186 3 -13122792.718 2
  24322437.028    -1963181.943 2  -1529749.336 1
  25180065.008     -142930.944 2   -111375.125 1
 91  8 13  4 14 45.0020000  0  5 21 23 11 12 15
  21001183.887   -18199232.141 4 -14181204.396 3
  23104850.345     6547922.311 3   5102280.257 1
  21823828.177   -16846634.055 3 -13127239.639 2
  24322431.932    -1963190.818 2  -1529756.253 1
  25170998.677     -190561.959 2   -148490.425 1
 91  8 13  4 15  0.0020000  0  5 21 23 11 12 15
  21002055.080   -18194647.787 4 -14177632.161 3
  23112123.308     6586133.686 3   5132055.337 1
  21822772.613   -16852167.614 3 -13131551.517 2
  24322457.715    -1963038.930 2  -1529637.888 1
  25161942.250     -238187.128 2   -185600.711 1
 91  8 13  4 15 15.0020000  0  5 21 23 11 12 15
  21002942.162   -18189987.894 4 -14174001.071 3
  23119401.069     6624377.766 3   5161855.894 1
  21821756.914   -16857525.124 3 -13135726.200 2
  24322525.762    -1962723.632 2  -1529392.201 1
  25152874.724     -285803.905 2   -222704.482 1
 91  8 13  4 15 30.0020000  0  5 21 23 11 12 15
  21003843.640   -18185251.386 4 -14170310.283 3
  23126677.636     6662655.449 3   5191682.654 1
  21820767.295   -16862705.425 3 -13139762.806 2
  24322608.206    -1962243.766 2  -1529018.284 1
  25143823.096     -333411.062 2   -259801.070 1
 91  8 13  4 15 45.0020000  0  5 21 23 11 12 15
  21004758.608   -18180444.502 4 -14166564.661 3
  23133966.487     6700960.855 3   5221531.038 2
  21819812.454   -16867714.519 3 -13143665.988 2
  24322748.514    -1961605.336 2  -1528520.758 1
  25134744.175     -381014.348 2   -296894.486 1
 91  8 13  4 16  0.0020000  0  5 21 23 11 12 15
  21005689.167   -18175563.817 4 -14162761.534 3
  23141267.335     6739297.234 3   5251403.502 1
  21818896.588   -16872548.700 3 -13147432.888 2
  24322889.111    -1960804.736 2  -1527896.873 1
  25125701.237     -428609.786 1   -333981.729 1
 91  8 13  4 16 15.0020000  0  5 21 23 11 12 15
  21006631.714   -18170609.457 4 -14158901.000 3
  23148560.688     6777664.488 3   5281300.059 1
  21818006.208   -16877207.727 3 -13151063.297 2
  24323080.679    -1959841.798 2  -1527146.540 1
  25116655.602     -476197.135 1   -371062.774 1
 91  8 13  4 16 30.0020000  0  4 21 23 11 12
  21007585.648   -18165582.929 4 -14154984.227 3
  23155866.030     6816061.194 3   5311219.540 1
  21817156.601   -16881693.132 3 -13154558.435 2
  24323290.535    -1958718.061 2  -1526270.923 1
 91  8 13  4 16 45.0020000  0  4 21 23 11 12
  21008560.277   -18160481.650 4 -14151009.199 3
  23163181.563     6854489.486 3   5341163.664 2
  21816337.863   -16886002.368 3 -13157916.284 2
  24323537.866    -1957430.874 2  -1525267.888 1
 91  8 13  4 17  0.0020000  0  4 21 23 11 12
  21009540.299   -18155310.209 4 -14146979.495 3
  23170501.894     6892945.065 3   5371129.008 2
  21815547.909   -16890139.604 3 -13161140.112 2
  24323810.377    -1955984.644 2  -1524140.903 1
 91  8 13  4 17 15.0020000  0  4 21 23 11 12
  21010538.608   -18150064.936 4 -14142892.273 3
  23177823.124     6931431.422 3   5401118.377 1
  21814791.232   -16894101.098 3 -13164226.991 2
  24324115.268    -1954375.537 2  -1522887.058 1
 91  8 13  4 17 30.0020000  0  5 21 23 11 12 15
  21011549.508   -18144746.743 3 -14138748.219 3
  23185151.256     6969947.469 3   5431130.879 1
  21814074.430   -16897887.783 3 -13167177.663 2
  24324451.629    -1952604.464 2  -1521507.003 1
  25071382.740      143024.23112    111447.456 1
 91  8 13  4 17 45.0020000  0  5 21 23 11 12 15
  21012576.593   -18139355.357 4 -14134547.144 3
  23192490.469     7008493.512 3   5461166.735 1
  21813385.504   -16901499.248 3 -13169991.803 2
  24324831.773    -1950671.108 2  -1520000.469 1
  25062338.004       95483.126 2     74402.493 1
 91  8 13  4 18  0.0020000  0  5 21 23 11 12 15
  21013615.675   -18133890.220 4 -14130288.595 3
  23199832.386     7047070.108 3   5491226.408 1
  21812735.858   -16904934.565 3 -13172668.693 2
  24325227.492    -1948574.620 2  -1518366.775 1
  25053292.369       47951.765 2     37365.072 1
 91  8 13  4 18 15.0020000  0  5 21 23 11 12 15
  21014669.747   -18128352.368 4 -14125973.380 3
  23207181.798     7085676.179 3   5521309.054 1
  21812111.690   -16908194.713 3 -13175209.083 2
  24325656.497    -1946315.913 2  -1516606.785 1
  25044254.823         429.215 2       334.594 1
 91  8 13  4 18 30.0020000  0  5 21 23 11 12 15
  21015741.207   -18122740.327 3 -14121600.359 3
  23214524.623     7124313.269 3   5551415.854 1
  21811527.091   -16911277.953 3 -13177611.597 2
  24326111.285    -1943893.324 2  -1514719.058 1
  25035210.681      -47082.784 2    -36687.725 1
 91  8 13  4 18 45.0020000  0  5 21 23 11 12 15
  21016823.156   -18117054.532 4 -14117169.876 3
  23221884.226     7162980.921 3   5581546.476 1
  21810975.175   -16914184.650 3 -13179876.556 2
  24326600.248    -1941307.323 2  -1512703.950 1
  25026168.641      -94584.621 2    -73702.113 1
 91  8 13  4 19  0.0020000  0  5 21 23 11 12 15
  21017916.203   -18111296.023 3 -14112682.730 3
  23229250.722     7201677.743 3   5611699.833 1
  21810452.340   -16916915.788 3 -13182004.713 2
  24327125.186    -1938558.920 2  -1510562.359 1
  25017129.899     -142077.141 2   -110709.187 1
 91  8 13  4 19 15.0020000  0  5 21 23 11 12 15
  21019028.130   -18105465.704 4 -14108139.631 3
  23236625.917     7240402.966 3   5641875.321 1
  21809969.676   -16919472.129 3 -13183996.671 2
  24327674.405    -1935648.751 2  -1508294.660 1
  25008096.559     -189561.060 2   -147709.666 1
 91  8 13  4 19 30.0020000  0  5 21 23 11 12 15
  21020148.757   -18099564.071 4 -14103540.952 3
  23243993.617     7279156.076 3   5672072.519 1
  21809513.990   -16921853.950 3 -13185852.646 2
  24328259.293    -1932577.132 2  -1505901.198 1
  24999062.607     -237036.299 2   -184703.337 1
 91  8 13  4 19 45.0020000  0  5 21 23 11 12 15
  21021284.967   -18093587.002 4 -14098883.506 3
  23251371.211     7317941.261 3   5702294.720 1
  21809093.675   -16924056.910 3 -13187569.252 2
  24328875.373    -1929339.872 2  -1503378.711 1
  24990032.861     -284498.673 2   -221686.969 1
 91  8 13  4 20  0.0020000  0  5 21 23 11 12 15
  21022438.872   -18087539.683 4 -14094171.319 3
  23258764.694     7356753.324 3   5732537.866 1
  21808709.343   -16926086.232 3 -13189150.557 2
  24329519.024    -1925942.105 2  -1500730.988 1
  24980998.011     -331952.944 2   -258664.347 1
 91  8 13  4 20 15.0020000  0  5 21 23 11 12 15
  21023602.365   -18081420.861 3 -14089403.402 3
  23266155.472     7395593.340 3   5762802.805 1
  21808356.185   -16927940.386 3 -13190595.331 2
  24330210.646    -1922382.350 2  -1497957.207 1
  24971970.062     -379397.772 2   -295634.259 1
 91  8 13  4 20 30.0020000  0  5 21 23 11 12 15
  21024782.942   -18075229.832 4 -14084579.231 3
  23273554.949     7434462.108 3   5793090.143 1
  21808035.712   -16929618.654 3 -13191903.072 2
  24330910.365    -1918659.953 2  -1495056.610 1
  24962945.708     -426832.298 2   -332596.403 1
 91  8 13  4 20 45.0020000  0  5 21 23 11 12 15
  21025973.125   -18068963.678 3 -14079696.514 3
  23280954.129     7473362.371 3   5823402.021 1
  21807752.408   -16931117.964 3 -13193071.365 2
  24331656.842    -1914771.968 2  -1492026.985 1
  24953924.958     -474253.387 2   -369547.721 1
 91  8 13  4 21  0.0020000  0  5 21 23 11 12 15
  21027178.290   -18062625.628 4 -14074757.768 3
  23288363.500     7512290.840 3   5853735.884 1
  21807500.278   -16932441.441 3 -13194102.657 2
  24332423.116    -1910721.411 2  -1488870.732 1
  24944906.005     -521663.717 2   -406490.804 1
 91  8 13  4 21 15.0020000  0  5 21 23 11 12 15
  21028401.140   -18056210.683 4 -14069759.118 3
  23295777.365     7551252.700 3   5884095.755 1
  21807276.636   -16933583.899 3 -13194992.883 2
  24333227.160    -1906503.238 2  -1485583.703 1
  24935887.941     -569058.141 2   -443421.541 1
 91  8 13  4 21 30.0020000  0  5 21 23 11 12 15
  21029631.790   -18049723.207 4 -14064703.943 3
  23303192.137     7590243.694 3   5914478.324 1
  21807099.159   -16934549.514 3 -13195745.315 2
  24334058.480    -1902121.649 2  -1482169.584 1
  24926869.590     -616440.990 2   -480343.293 1
 91  8 13  4 21 45.0020000  0  5 21 23 11 12 15
  21030883.119   -18043161.458 4 -14059590.900 3
  23310620.093     7629265.287 3   5944884.757 1
  21806947.761   -16935336.418 3 -13196358.488 2
  24334920.381    -1897574.918 2  -1478626.675 1
  24917856.029     -663810.048 2   -517254.232 1
 91  8 13  4 22  0.0020000  0  5 21 23 11 12 15
  21032143.749   -18036526.695 3 -14054420.955 3
  23318056.145     7668316.085 3   5975313.960 1
  21806836.542   -16935945.793 3 -13196833.331 2
  24335824.861    -1892864.123 2  -1474955.903 1
  24908843.969     -711166.174 2   -554155.006 1
 91  8 13  4 22 15.0020000  0  5 21 23 11 12 15
  21033423.862   -18029816.969 4 -14049192.600 3
  23325488.298     7707398.032 3   6005767.402 1
  21806746.307   -16936375.507 3 -13197168.168 2
  24336751.520    -1887987.266 2  -1471155.738 1
  24899828.611     -758507.272 2   -591044.382 1
 91  8 13  4 22 30.0020000  0  5 21 23 11 12 15
  21034713.267   -18023033.845 4 -14043907.048 3
  23332925.249     7746509.655 3   6036244.002 1
  21806700.735   -16936627.062 3 -13197364.202 2
  24337701.562    -1882945.851 2  -1467227.358 1
  24890839.934     -805834.727 2   -627922.699 1
 91  8 13  4 22 45.0020000  0  5 21 23 11 12 15
  21036021.868   -18016177.604 4 -14038564.525 3
  23340380.191     7785650.426 3   6066743.266 1
  21806686.941   -16936700.764 3 -13197421.628 2
  24338695.971    -1877740.192 2  -1463171.013 1
  24881817.081     -853148.621 1   -664790.905 1
 91  8 13  4 23  0.0020000  0  4 21 23 11 12
  21037338.251   -18009251.749 4 -14033167.753 3
  23347830.335     7824816.946 2   6097262.603 1
  21806710.926   -16936599.849 3 -13197342.982 2
  24339719.462    -1872373.476 2  -1458989.092 1
 91  8 13  4 23 15.0020000  0  5 21 23 11 12 15
  21038666.335   -18002254.583 4 -14027715.422 3
  23355288.567     7864010.875 2   6127803.313 1
  21806760.092   -16936322.617 3 -13197126.948 2
  24340770.235    -1866844.016 2  -1454680.433 1
  24863821.736      152569.61212    118885.807 1
 91  8 13  4 23 30.0020000  0  5 21 23 11 12 15
  21040013.902   -17995183.583 4 -14022205.540 3
  23362751.004     7903234.781 3   6158367.375 1
  21806846.131   -16935866.309 3 -13196771.391 2
  24341859.984    -1861149.072 2  -1450242.781 1
  24854818.069      105293.738 2     82047.501 1
 91  8 13  4 23 45.0020000  0  5 21 23 11 12 15
  21041374.958   -17988036.103 4 -14016636.076 3
  23370226.625     7942491.134 3   6188956.699 1
  21806966.947   -16935228.321 3 -13196274.258 2
  24342973.709    -1855286.098 2  -1445674.180 1
  24845827.891       58035.734 2     45223.062 1
 91  8 13  4 24  0.0020000  0  5 21 23 11 12 15
  21042745.315   -17980819.308 4 -14011012.607 3
  23377701.356     7981772.665 3   6219565.686 1
  21807124.645   -16934415.683 3 -13195641.048 2
  24344122.815    -1849262.087 2  -1440980.182 1
  24836839.816       10788.915 2      8407.409 1
 91  8 13  4 24 15.0020000  0  5 21 23 11 12 15
  21044132.747   -17973530.801 4 -14005333.251 3
  23385182.674     8021081.853 3   6250196.221 1
  21807312.915   -16933425.906 3 -13194869.799 2
  24345291.107    -1843074.637 2  -1436158.750 1
  24827849.342      -36444.025 2    -28397.423 1
 91  8 13  4 24 30.0020000  0  5 21 23 11 12 15
  21045533.982   -17966170.707 4 -13999598.095 3
  23392666.994     8060418.458 2   6280848.112 1
  21807534.455   -16932259.035 3 -13193960.547 2
  24346509.158    -1836723.741 2  -1431209.976 1
  24818857.367      -83663.068 2    -65191.446 1
 91  8 13  4 24 45.0020000  0  5 21 23 11 12 15
  21046946.900   -17958733.841 3 -13993803.146 3
  23400169.000     8099787.817 3   6311525.513 1
  21807789.882   -16930909.702 3 -13192909.113 2
  24347746.701    -1830204.154 2  -1426129.750 1
  24809882.772     -130862.590 2   -101970.252 1
 91  8 13  4 25  0.0020000  0  5 21 23 11 12 15
  21048378.411   -17951224.452 4 -13987951.678 3
  23407659.916     8139185.658 2   6342225.108 1
  21808080.079   -16929382.144 3 -13191718.807 2
  24349022.626    -1823520.155 2  -1420921.425 1
  24800904.295     -178046.795 2   -138737.176 1
 91  8 13  4 25 15.0020000  0  5 21 23 11 12 15
  21049820.113   -17943644.420 4 -13982045.155 3
  23415161.922     8178609.667 2   6372945.118 1
  21808402.053   -16927678.257 3 -13190391.106 2
  24350308.132    -1816673.676 2  -1415586.496 1
  24791931.506     -225217.528 2   -175493.585 1
 91  8 13  4 25 30.0020000  0  5 21 23 11 12 15
  21051281.001   -17935989.784 4 -13976080.488 3
  23422664.826     8218064.169 2   6403688.859 1
  21808764.206   -16925793.860 3 -13188922.742 2
  24351648.204    -1809660.565 2  -1410121.754 1
  24782961.414     -272370.360 2   -212236.026 1
 91  8 13  4 25 45.0020000  0  5 21 23 11 12 15
  21052746.384   -17928261.852 4 -13970058.720 3
  23430176.429     8257547.808 2   6434455.338 1
  21809159.934   -16923730.108 3 -13187314.633 2
  24353008.963    -1802481.936 2  -1404527.976 1
  24773993.119     -319506.165 2   -248965.202 1
 91  8 13  4 26  0.0020000  0  5 21 23 11 12 15
  21054230.961   -17920458.655 4 -13963978.309 3
  23437699.419     8297062.414 2   6465245.929 1
  21809585.937   -16921484.970 3 -13185565.171 2
  24354416.489    -1795135.757 2  -1398803.687 1
  24765023.332     -366622.725 2   -285679.397 1
 91  8 13  4 26 15.0020000  0  5 21 23 11 12 15
  21055730.519   -17912585.002 3 -13957842.979 3
  23445218.814     8336603.172 2   6496056.892 1
  21810046.719   -16919063.258 3 -13183678.114 2
  24355849.501    -1787627.039 2  -1392952.663 1
  24756066.135     -413724.815 2   -322382.308 1
 91  8 13  4 26 30.0020000  0  5 21 23 11 12 15
  21057244.474   -17904636.936 3 -13951649.682 3
  23452757.395     8376174.030 2   6526891.318 1
  21810541.380   -16916460.868 3 -13181650.267 2
  24357315.179    -1779951.597 2  -1386971.824 1
  24747105.631     -460808.170 2   -359070.590 1
 91  8 13  4 26 45.0020000  0  5 21 23 11 12 15
  21058768.017   -17896616.561 3 -13945400.044 3
  23460291.474     8415772.883 2   6557747.561 1
  21811073.210   -16913679.791 3 -13179483.197 2
  24358798.553    -1772111.424 2  -1380862.556 1
  24738146.637     -507874.304 2   -395745.507 1
 91  8 13  4 27  0.0020000  0  5 21 23 11 12 15
  21060307.449   -17888521.585 4 -13939092.272 3
  23467828.563     8455401.914 2   6588627.294 1
  21811631.120   -16910717.757 3 -13177175.119 2
  24360323.902    -1764104.183 2  -1374623.137 1
  24729188.236     -554920.887 2   -432405.150 1
 91  8 13  4 27 15.0020000  0  5 21 23 11 12 15
  21061862.779   -17880357.424 4 -13932730.595 3
  23475375.835     8495055.742 2   6619526.389 1
  21812229.209   -16907580.163 3 -13174730.235 2
  24361872.024    -1755935.275 2  -1368257.839 1
  24720234.041     -601953.192 2   -469053.659 1
 91  8 13  4 27 30.0020000  0  5 21 23 11 12 15
  21063428.290   -17872122.279 4 -13926313.599 3
  23482922.513     8534736.013 2   6650446.058 1
  21812864.170   -16904265.059 3 -13172147.040 2
  24363468.126    -1747602.969 2  -1361765.041 1
  24711294.827     -648968.948 2   -505689.307 1
 91  8 13  4 27 45.0020000  0  5 21 23 11 12 15
  21065012.691   -17863812.881 4 -13919838.738 3
  23490477.280     8574446.018 2   6681388.888 1
  21813529.704   -16900769.071 3 -13169422.891 2
  24365088.501    -1739103.947 2  -1355142.369 1
  24702351.119     -695964.661 2   -542309.299 1
 91  8 13  4 28  0.0020000  0  5 21 23 11 12 15
  21066606.088   -17855434.081 4 -13913309.801 3
  23498040.745     8614180.928 2   6712351.155 1
  21814223.428   -16897096.981 3 -13166561.528 2
  24366732.259    -1730442.911 2  -1348393.503 1
  24693411.608     -742944.889 2   -578917.275 1
 91  8 13  4 28 15.0020000  0  5 21 23 11 12 15
  21068212.381   -17846981.815 3 -13906723.619 3
  23505606.008     8653944.853 2   6743336.004 1
  21814958.815   -16893244.498 3 -13163559.604 2
  24368413.195    -1721615.650 2  -1341515.076 1
  24684477.795     -789905.322 2   -615509.803 1
 91  8 13  4 28 30.0020000  0  5 21 23 11 12 15
  21069838.156   -17838458.067 4 -13900081.738 3
  23513175.467     8693735.816 2   6774341.951 1
  21815725.988   -16889213.760 3 -13160418.766 2
  24370121.720    -1712624.304 2  -1334508.841 1
  24675538.580     -836847.845 2   -652088.337 1
 91  8 13  4 28 45.0020000  0  5 21 23 11 12 15
  21071475.624   -17829862.020 4 -13893383.516 3
  23520752.125     8733554.395 2   6805369.405 1
  21816524.336   -16885003.916 3 -13157138.353 2
  24371862.309    -1703468.098 2  -1327374.097 1
  24666612.558     -883771.369 2   -688652.041 1
 91  8 13  4 29  0.0020000  0  5 21 23 11 12 15
  21073122.680   -17821193.899 3 -13886629.136 3
  23528343.170     8773400.350 2   6836418.210 1
  21817360.157   -16880615.001 3 -13153718.407 2
  24373636.185    -1694147.008 2  -1320110.929 1
  24657685.036     -930675.788 2   -725200.940 1
 91  8 13  4 29 15.0020000  0  5 21 23 11 12 15
  21074785.930   -17812454.865 4 -13879819.493 3
  23535933.011     8813272.493 2   6867487.390 1
  21818231.351   -16876048.349 3 -13150159.987 2
  24375438.539    -1684662.479 2  -1312720.400 1
  24648762.617     -977562.033 2   -761735.709 1
 91  8 13  4 29 30.0020000  0  5 21 23 11 12 15
  21076460.872   -17803644.766 4 -13872954.497 2
  23543526.160     8853170.932 2   6898577.067 1
  21819133.126   -16871303.643 3 -13146462.814 2
  24377278.063    -1675014.109 2  -1305202.151 1
  24639850.390    -1024429.416 2   -798255.673 1
 91  8 13  4 29 45.0020000  0  5 21 23 11 12 15
  21078153.499   -17794762.644 3 -13866033.361 3
  23551116.001     8893096.606 2   6929687.961 1
  21820068.178   -16866379.836 3 -13142626.073 2
  24379147.269    -1665200.972 2  -1297555.537 1
  24630922.265    -1071276.936 2   -834760.249 1
 91  8 13  4 30  0.0020000  0  5 21 23 11 12 15
  21079853.918   -17785807.822 3 -13859055.579 3
  23558724.139     8933050.200 2   6960820.618 1
  21821041.604   -16861276.293 3 -13138649.289 2
  24381041.359    -1655222.293 2  -1289779.964 1
  24622013.632    -1118103.632 2   -871248.553 1
 91  8 13  4 30 15.0020000  0  5 21 23 11 12 15
  21081577.127   -17776781.599 4 -13852022.159 3
  23566336.761     8973030.549 2   6991974.170 1
  21822047.111   -16855994.144 3 -13134533.322 2
  24382967.523    -1645079.401 2  -1281876.343 1
  24613110.400    -1164910.374 2   -907721.185 1
 91  8 13  4 30 30.0020000  0  5 21 23 11 12 15
  21083302.134   -17767683.525 3 -13844932.765 3
  23573936.200     9013037.777 2   7023148.616 1
  21823088.593   -16850532.860 3 -13130277.766 2
  24384938.359    -1634771.859 2  -1273844.495 1
  24604216.155    -1211696.720 2   -944178.111 1
 91  8 13  4 30 45.0020000  0  5 21 23 11 12 15
  21085048.124   -17758515.502 3 -13837788.850 3
  23581552.130     9053070.102 2   7054342.639 1
  21824161.546   -16844894.374 3 -13125884.134 2
  24386927.178    -1624301.554 2  -1265685.759 1
  24595313.516    -1258464.109 2   -980620.243 1
 91  8 13  4 31  0.0020000  0  5 21 23 11 12 15
  21086807.603   -17749272.929 3 -13830586.841 3
  23589190.247     9093132.229 2   7085559.842 1
  21825265.979   -16839073.861 3 -13121348.673 2
  24388950.182    -1613663.739 2  -1257396.562 1
  24586418.373    -1305207.482 2  -1017043.717 1
 91  8 13  4 31 15.0020000  0  5 21 23 11 12 15
  21088583.582   -17739949.711 4 -13823322.006 3
  23596820.564     9133230.004 2   7116804.862 2
  21826406.691   -16833065.457 3 -13116666.800 2
  24391011.855    -1602852.393 2  -1248972.092 1
  24577531.928    -1351920.660 2  -1053443.557 1
 91  8 13  4 31 30.0020000  0  5 21 23 11 12 15
  21090370.938   -17730552.862 4 -13815999.783 3
  23604445.481     9173356.493 2   7148072.244 1
  21827586.674   -16826876.244 3 -13111844.034 2
  24393100.507    -1591874.596 2  -1240417.927 1
  24568643.380    -1398610.420 2  -1089825.188 1
 91  8 13  4 31 45.0020000  0  5 21 23 11 12 15
  21092174.793   -17721084.905 4 -13808622.155 3
  23612091.389     9213509.456 2   7179360.261 1
  21828800.232   -16820508.395 3 -13106882.074 2
  24395215.543    -1580732.694 2  -1231735.919 1
  24559766.227    -1445278.892 2  -1126190.286 1
 91  8 13  4 32  0.0020000  0  5 21 23 11 12 15
  21093991.230   -17711542.949 3 -13801186.854 3
  23619741.495     9253691.370 2   7210670.815 1
  21830047.076   -16813959.101 3 -13101778.724 2
  24397361.160    -1569423.944 2  -1222923.887 1
  24550885.471    -1491923.161 2  -1162536.476 1
 91  8 13  4 32 15.0020000  0  5 21 23 11 12 15
  21095818.765   -17701926.008 3 -13793693.149 3
  23627388.896     9293903.256 2   7242004.755 1
  21831328.088   -16807227.424 3 -13096533.264 2
  24399552.943    -1557947.252 2  -1213980.939 1
  24542013.118    -1538541.884 2  -1198862.727 1
 91  8 13  4 32 30.0020000  0  5 21 23 11 12 15
  21097663.689   -17692238.478 3 -13786144.432 3
  23635039.900     9334140.561 2   7273358.518 1
  21832645.370   -16800317.750 3 -13091149.109 2
  24401772.602    -1546307.129 2  -1204910.708 1
  24533148.852    -1585139.369 2  -1235172.445 1
 91  8 13  4 32 45.0020000  0  5 21 23 11 12 15
  21099519.406   -17682476.841 4 -13778537.961 3
  23642709.192     9374406.734 2   7304734.727 1
  21833989.046   -16793226.647 3 -13085623.552 2
  24404021.045    -1534500.054 2  -1195710.297 1
  24524289.088    -1631711.537 2  -1271462.443 1
 91  8 13  4 33  0.0020000  0  5 21 23 11 12 15
  21101388.612   -17672645.636 4 -13770877.282 3
  23650373.389     9414697.442 2   7336130.105 1
  21835371.391   -16785958.436 3 -13079960.022 2
  24406288.378    -1522530.505 2  -1186383.414 1
  24515425.425    -1678262.514 2  -1307735.896 1
 91  8 13  4 33 15.0020000  0  5 21 23 11 12 15
  21103276.403   -17662743.173 4 -13763161.065 3
  23658054.373     9455014.389 2   7367545.874 1
  21836791.507   -16778511.335 3 -13074157.074 2
  24408595.584    -1510396.779 2  -1176928.489
  24506570.451    -1724790.422 2  -1343991.415 1
 91  8 13  4 33 30.0020000  0  5 21 23 11 12 15
  21105174.088   -17652767.034 4 -13755387.451 3
  23665731.753     9495359.928 2   7398983.955 2
  21838243.697   -16770882.852 3 -13068212.808 2
  24410937.264    -1498096.401 2  -1167343.768 1
  24497720.277    -1771292.621 2  -1380226.884 1
 91  8 13  4 33 45.0020000  0  5 21 23 11 12 15
  21107081.371   -17642718.236 4 -13747557.214 3
  23673407.642     9535733.176 2   7430443.615 1
  21839731.869   -16763073.986 3 -13062127.966 2
  24413306.218    -1485630.331 2  -1157629.955 1
  24488873.104    -1817769.824 2  -1416442.875 1
 91  8 13  4 34  0.0020000  0  5 21 23 11 12 15
  21109009.637   -17632599.725 4 -13739672.650 3
  23681098.214     9576131.005 2   7461922.426 1
  21841247.315   -16755087.900 3 -13055905.042 2
  24415716.251    -1473001.708 2  -1147789.432 1
  24480037.622    -1864224.683 2  -1452641.463 1
 91  8 13  4 34 15.0020000  0  5 21 23 11 12 15
  21110948.993   -17622406.342 4 -13731729.758 3
  23688791.492     9616558.459 2   7493424.343 1
  21842803.238   -16746919.415 3 -13049539.998 2
  24418156.262    -1460205.312 2  -1137818.229 1
  24471204.235    -1910651.746 2  -1488818.344 1
 91  8 13  4 34 30.0020000  0  5 21 23 11 12 15
  21112900.643   -17612143.995 4 -13723733.132 3
  23696483.269     9657009.543 2   7524944.659 1
  21844389.445   -16738574.309 3 -13043037.308 2
  24420613.663    -1447247.098 2  -1127720.895 1
  24462370.856    -1957056.770 2  -1524978.085 1
 91  8 13  4 34 45.0020000  0  5 21 23 11 12 15
  21114869.682   -17601810.981 4 -13715681.424 3
  23704184.032     9697486.026 2   7556484.759 1
  21846012.822   -16730050.906 3 -13036395.698 2
  24423119.322    -1434125.271 2  -1117495.977 1
  24453548.262    -2003437.811 2  -1561119.136 1
 91  8 13  4 35  0.0020000  0  5 21 23 11 12 15
  21116852.803   -17591403.064 4 -13707571.361 3
  23711892.596     9737991.939 2   7588047.803 1
  21847668.577   -16721345.131 3 -13029611.974 2
  24425643.575    -1420835.779 2  -1107140.558
  24444729.567    -2049790.354 2  -1597237.996 1
 91  8 13  4 35 15.0020000  0  5 21 23 11 12 15
  21118845.531   -17580923.559 4 -13699405.511 3
  23719610.156     9778524.030 2   7619631.239 1
  21849361.798   -16712460.150 3 -13022688.613 2
  24428201.105    -1407381.903 2  -1096656.991 1
  24435907.871    -2096117.248 2  -1633336.882 1
 91  8 13  4 35 30.0020000  0  5 21 23 11 12 15
  21120851.137   -17570369.480 4 -13691181.558 3
  23727333.413     9819085.356 2   7651237.480 1
  21851086.211   -16703393.007 3 -13015623.308 2
  24430792.218    -1393760.589 2  -1086042.882 1
  24427098.173    -2142415.353 2  -1669413.315 1
 91  8 13  4 35 45.0020000  0  5 21 23 11 12 15
  21122874.437   -17559746.999 4 -13682904.309 3
  23735049.166     9859669.922 2   7682861.801 1
  21852845.088   -16694149.816 3 -13008420.810 2
  24433410.300    -1379978.023 2  -1075303.193 1
  24418296.867    -2188690.515 2  -1705471.837 1
 91  8 13  4 36  0.0020000  0  5 21 23 11 12 15
  21124905.233   -17549054.655 3 -13674572.597 3
  23742786.811     9900278.941 2   7714505.170 1
  21854639.049   -16684729.107 3 -13001079.993 2
  24436072.462    -1366032.832 2  -1064436.781 1
  24409487.465    -2234941.197 2  -1741511.266 1
 91  8 13  4 36 15.0020000  0  5 21 23 11 12 15
  21126956.715   -17538288.082 4 -13666183.069 3
  23750513.366     9940916.678 2   7746170.928 1
  21856466.287   -16675126.681 3 -12993597.595 2
  24438758.303    -1351920.841 2  -1053440.499 1
  24400695.749    -2281162.725 2  -1777528.036 1
 91  8 13  4 36 30.0020000  0  5 21 23 11 12 15
  21129018.982   -17527447.883 4 -13657736.165 3
  23758251.307     9981582.561 2   7777858.625 1
  21858324.997   -16665342.972 3 -12985973.934 2
  24441480.712    -1337642.572 2  -1042314.477 1
  24391909.730    -2327355.298 2  -1813522.258 1
 91  8 13  4 36 45.0020000  0  5 21 23 11 12 15
  21131096.544   -17516534.914 4 -13649232.549 3
  23765994.047    10022275.760 2   7809567.582 1
  21860219.384   -16655378.971 3 -12978209.771 2
  24444234.906    -1323198.931 2  -1031059.673 1
  24383123.711    -2373519.450 2  -1849494.316 1
 91  8 13  4 37  0.0020000  0  5 21 23 11 12 15
  21133186.696   -17505552.926 4 -13640675.156 3
  23773740.382    10062992.514 2   7841294.948 1
  21862152.449   -16645238.376 3 -12970308.009 2
  24447003.793    -1308593.715 2  -1019678.946 1
  24374341.898    -2419658.442 2  -1885446.780 1
 91  8 13  4 37 15.0020000  0  5 21 23 11 12 15
  21135285.844   -17494497.853 4 -13632060.811 3
  23781494.212    10103736.913 2   7873043.785 1
  21864114.290   -16634917.221 3 -12962265.544 2
  24449813.147    -1293822.844 2  -1008169.194 1
  24365572.963    -2465768.006 2  -1921376.345 1
 91  8 13  4 37 30.0020000  0  5 21 23 11 12 15
  21137406.281   -17483370.875 4 -13623390.458 3
  23789256.741    10144507.576 2   7904813.115 1
  21866114.207   -16624416.767 3 -12954083.374 2
  24452655.177    -1278887.592 2   -996531.272 1
  24356800.442    -2511849.134 2  -1957283.641 1
 91  8 13  4 37 45.0020000  0  5 21 23 11 12 15
  21139535.408   -17472175.878 4 -13614667.086 3
  23797014.470    10185300.723 2   7936600.002 1
  21868145.299   -16613740.845 3 -12945764.468 2
  24455528.093    -1263791.770 2   -984768.259 1
  24348037.204    -2557905.527 2  -1993171.825 1
 91  8 13  4 38  0.0020000  0  5 21 23 11 12 15
  21141679.516   -17460907.869 4 -13605886.818 3
  23804782.993    10226121.179 2   7968408.125 1
  21870213.569   -16602884.576 3 -12937305.032 2
  24458426.784    -1248530.525 2   -972876.392 1
  24339274.874    -2603931.914 2  -2029036.514 1
 91  8 13  4 38 15.0020000  0  5 21 23 11 12 15
  21143843.422   -17449567.183 4 -13597049.916 3
  23812553.915    10266968.905 2   8000237.538 1
  21872311.216   -16591847.972 3 -12928705.087 2
  24461372.241    -1233103.944 2   -960855.693 1
  24330521.827    -2649928.017 2  -2064877.656 1
 91  8 13  4 38 30.0020000  0  5 21 23 11 12 15
  21146013.321   -17438153.899 4 -13588156.462 3
  23820338.623    10307843.713 2   8032088.064 1
  21874446.939   -16580631.317 3 -12919964.837 2
  24464333.892    -1217512.235 2   -948706.174 1
  24321782.880    -2695893.884 2  -2100695.192 1
 91  8 13  4 38 45.0020000  0  5 21 23 11 12 15
  21148197.007   -17426672.163 4 -13579209.665 3
  23828112.538    10348741.108 2   8063956.138 1
  21876612.633   -16569238.859 3 -12911087.577 2
  24467330.321    -1201759.703 2   -936431.504 1
  24313035.836    -2741833.266 2  -2136492.118 1
 91  8 13  4 39  0.0020000  0  5 21 23 11 12 15
  21150395.987   -17415120.272 4 -13570208.183 3
  23835906.242    10389662.860 2   8095843.195 1
  21878818.507   -16557668.909 3 -12902072.026 2
  24470359.426    -1185844.718 2   -924030.210 1
  24304297.788    -2787744.239 2  -2172266.849 1
 91  8 13  4 39 15.0020000  0  5 21 23 11 12 15
  21152609.355   -17403494.404 4 -13561149.060 3
  23843701.149    10430613.147 2   8127752.498 1
  21881049.264   -16545917.577 3 -12892915.167 2
  24473414.008    -1169763.391 2   -911499.271 1
  24295567.828    -2833622.606 2  -2208016.245 1
 91  8 13  4 39 30.0020000  0  5 21 23 11 12 15
  21154833.813   -17391797.427 4 -13552034.532 3
  23851500.550    10471588.886 2   8159681.656 1
  21883318.996   -16533987.856 3 -12883619.283 2
  24476508.464    -1153518.772 2   -898841.136 1
  24286847.466    -2879471.120 2  -2243742.438 1
 91  8 13  4 39 45.0020000  0  5 21 23 11 12 15
  21157072.362   -17380028.979 4 -13542864.311 3
  23859296.357    10512590.191 2   8191630.695 1
  21885627.695   -16521879.505 3 -12874184.200 2
  24479634.400    -1137110.652 2   -886055.628 1
  24278125.306    -2925289.157 2  -2279444.803 1
 91  8 13  4 40  0.0020000  0  5 21 23 11 12 15
  21159323.806   -17368191.311 3 -13533640.139 3
  23867105.643    10553615.091 2   8223598.188 1
  21887968.171   -16509594.757 3 -12864611.682 2
  24482783.423    -1120541.340 2   -873144.400 1
  24269410.632    -2971078.549 2  -2315124.816 1
 91  8 13  4 40 15.0020000  0  5 21 23 11 12 15
  21161589.639   -17356281.866 3 -13524360.052 3
  23874922.137    10594665.853 2   8255585.773 1
  21890336.532   -16497131.112 3 -12854899.751 2
  24485968.716    -1103808.390 2   -860105.684 1
  24260704.963    -3016836.592 2  -2350780.473 1
 91  8 13  4 40 30.0020000  0  5 21 23 11 12 15
  21163868.960   -17344298.839 3 -13515022.634 3
  23882735.323    10635744.523 2   8287595.085 1
  21892745.665   -16484486.765 3 -12845047.010 2
  24489195.086    -1086909.780 2   -846937.961 1
  24252001.990    -3062560.953 2  -2386409.762 1
 91  8 13  4 40 45.0020000  0  5 21 23 11 12 15
  21166167.764   -17332245.618 4 -13505630.517 3
  23890554.809    10676847.520 2   8319623.385 1
  21895180.581   -16471665.299 3 -12835056.242 2
  24492436.438    -1069849.172 2   -833643.911 1
  24243306.206    -3108254.908 2  -2422015.452 1
 91  8 13  4 41  0.0020000  0  5 21 23 11 12 15
  21168473.470   -17320119.786 4 -13496181.819 3
  23898382.698    10717977.147 2   8351672.424 1
  21897657.169   -16458664.425 3 -12824925.697 2
  24495718.571    -1052624.445 2   -820222.039 1
  24234621.520    -3153915.894 2  -2457595.424 1
 91  8 13  4 41 15.0020000  0  5 21 23 11 12 15
  21170795.065   -17307920.936 4 -13486676.232 3
  23906211.773    10759134.044 2   8383742.727 1
  21900161.336   -16445483.477 3 -12814654.839 2
  24499027.673    -1035234.852 2   -806671.720 1
  24225941.328    -3199542.981 2  -2493148.996 1
 91  8 13  4 41 30.0020000  0  5 21 23 11 12 15
  21173127.452   -17295652.321 4 -13477116.268 3
  23914043.850    10800314.780 2   8415831.614 1
  21902702.375   -16432126.060 3 -12804246.464 2
  24502360.168    -1017683.898 2   -792995.576 1
  24217258.440    -3245139.289 2  -2528678.576 1
 91  8 13  4 41 45.0020000  0  5 21 23 11 12 15
  21175476.627   -17283313.876 4 -13467501.903 3
  23921890.619    10841519.294 2   8447938.999 1
  21905282.085   -16418592.067 3 -12793700.500 2
  24505732.832     -999971.476 2   -779193.702 1
  24208591.441    -3290704.277 2  -2564183.736 1
 91  8 13  4 42  0.0020000  0  5 21 23 11 12 15
  21177835.992   -17270905.318 4 -13457832.896 3
  23929734.989    10882747.978 2   8480065.256 1
  21907891.782   -16404881.127 3 -12783016.643 2
  24509123.488     -982097.415 2   -765265.831 1
  24199924.144    -3336237.122 2  -2599663.860 1
 91  8 13  4 42 15.0020000  0  5 21 23 11 12 15
  21180208.847   -17258424.894 4 -13448107.891 3
  23937589.551    10924002.663 2   8512211.761 1
  21910531.154   -16390991.707 3 -12772193.732 2
  24512562.106     -964060.095 2   -751210.799 1
  24191271.533    -3381736.202 2  -2635117.711 1
 91  8 13  4 42 30.0020000  0  5 21 23 11 12 15
  21182599.396   -17245871.072 4 -13438325.695 3
  23945441.119    10965284.735 2   8544379.612 1
  21913213.401   -16376922.174 3 -12761230.466 2
  24516025.904     -945857.975 2   -737027.250 1
  24182611.722    -3427199.484 2  -2670543.599 1
 91  8 13  4 42 45.0020000  0  5 21 23 11 12 15
  21185002.831   -17233247.419 4 -13428489.091 3
  23953299.877    11006590.619 2   8576565.989 1
  21915920.819   -16362676.304 3 -12750129.791 2
  24519525.083     -927494.773 2   -722718.251 1
  24173967.513    -3472630.261 2  -2705944.193 1
 91  8 13  4 43  0.0020000  0  5 21 23 11 12 15
  21187422.749   -17220551.806 4 -13418596.401 3
  23961165.231    11047922.477 2   8608772.606 1
  21918668.417   -16348251.913 3 -12738889.991 2
  24523052.741     -908968.384 2   -708282.114 1
  24165331.086    -3518026.178 2  -2741317.635 1
 91  8 13  4 43 15.0020000  0  5 21 23 11 12 15
  21189850.772   -17207780.294 4 -13408644.578 3
  23969036.579    11089284.127 2   8641002.477 1
  21921451.099   -16333645.327 3 -12727508.242 2
  24526613.082     -890274.987 2   -693715.806 1
  24156695.566    -3563382.991 2  -2776660.597 1
 91  8 13  4 43 30.0020000  0  5 21 23 11 12 15
  21192294.675   -17194938.980 4 -13398638.359 3
  23976905.833    11130669.369 2   8673250.735 1
  21924255.052   -16318862.586 3 -12715989.245 2
  24530198.893     -871420.762 2   -679024.199 1
  24148075.037    -3608706.494 2  -2811977.621 1
 91  8 13  4 43 45.0020000  0  5 21 23 11 12 15
  21194752.678   -17182025.888 4 -13388576.220 3
  23984788.280    11172080.412 2   8705519.035 1
  21927103.983   -16303901.692 3 -12704331.402 2
  24533812.597     -852403.726 2   -664205.648 1
  24139457.805    -3653994.461 2  -2847266.959 2
 91  8 13  4 44  0.0020000  0  5 21 23 11 12 15
  21197222.669   -17169040.234 4 -13378457.518 3
  23992686.013    11213517.723 2   8737807.863 1
  21929987.388   -16288762.150 3 -12692534.356 2
  24537460.173     -833223.451 2   -649259.936 1
  24130850.162    -3699245.869 2  -2882527.770 1
 91  8 13  4 44 15.0020000  0  5 21 23 11 12 15
  21199704.649   -17155981.545 4 -13368281.914 3
  24000569.350    11254981.959 2   8770117.643 1
  21932902.865   -16273443.382 3 -12680597.663 2
  24541137.422     -813879.271 2   -634186.554 1
  24122241.316    -3744459.742 2  -2917759.341 1
 91  8 13  4 44 30.0020000  0  5 21 23 11 12 15
  21202207.019   -17142853.155 4 -13358052.009 3
  24008459.291    11296469.645 2   8802445.683 1
  21935850.129   -16257948.970 3 -12668524.093 2
  24544859.047     -794374.711 2   -618988.208 1
  24113642.974    -3789639.154 2  -2952964.093 1
 91  8 13  4 44 45.0020000  0  5 21 23 11 12 15
  21204717.782   -17129652.257 4 -13347765.593 3
  24016366.316    11337983.673 2   8834794.262 1
  21938829.465   -16242276.154 3 -12656311.509 2
  24548596.265     -774707.077 2   -603662.782 1
  24105053.619    -3834781.035 2  -2988139.580 1
 91  8 13  4 45  0.0020000  0  5 21 23 11 12 15
  21207245.926   -17116381.136 4 -13337424.469 3
  24024264.346    11379521.910 2   8867161.678 1
  21941849.278   -16226427.218 3 -12643961.691 2
  24552375.441     -754878.623 2   -588211.993 1
  24096471.759    -3879887.178 2  -3023287.202 1
 91  8 13  4 45 15.0020000  0  5 21 23 11 12 15
  21209782.769   -17103041.392 4 -13327029.860 3
  24032180.663    11421082.615 2   8899546.624 1
  21944900.265   -16210404.065 3 -12631476.118 2
  24556174.414     -734891.201 2   -572637.355 1
  24087894.698    -3924959.189 2  -3058408.251 1
 91  8 13  4 45 30.0020000  0  5 21 23 11 12 15
  21212331.312   -17089631.812 4 -13316580.839 3
  24040089.189    11462666.850 2   8931949.904 1
  21947979.426   -16194205.469 3 -12618853.825 2
  24560004.859     -714743.760 2   -556938.038 1
  24079327.225    -3969995.394 2  -3093501.427 1
 91  8 13  4 45 45.0020000  0  5 21 23 11 12 15
  21214897.532   -17076152.272 4 -13306077.300 3
  24048004.617    11504274.806 2   8964371.755 1
  21951094.874   -16177831.262 3 -12606094.708 2
  24563867.692     -694436.091 2   -541113.878 1
  24070762.458    -4014995.385 2  -3128566.350 1
 91  8 13  4 46  0.0020000  0  5 21 23 11 12 15
  21217480.540   -17062603.196 4 -13295519.574 3
  24055931.125    11545906.049 2   8996811.650 1
  21954247.492   -16161282.006 3 -12593199.177 2
  24567765.294     -673968.814 2   -525165.327 1
  24062199.488    -4059959.525 2  -3163603.348 1
 91  8 13  4 46 15.0020000  0  5 21 23 11 12 15
  21220068.355   -17048981.240 4 -13284905.057 3
  24063857.642    11587563.878 2   9029272.300 1
  21957431.589   -16144554.546 3 -12580164.810 2
  24571687.475     -653338.731 2   -509089.938 1
  24053654.805    -4104883.987 2  -3198609.403 1
 91  8 13  4 46 30.0020000  0  5 21 23 11 12 15
  21222675.347   -17035285.494 4 -13274233.048 3
  24071791.349    11629249.186 2   9061754.309 1
  21960645.963   -16127648.039 3 -12566990.906 2
  24575651.030     -632544.984 2   -492887.005 1
  24045107.121    -4149767.472 2  -3233583.587 1
 91  8 13  4 46 45.0020000  0  5 21 23 11 12 15
  21225293.133   -17021518.537 4 -13263505.551 3
  24079732.245    11670959.196 2   9094255.583 1
  21963898.108   -16110565.305 3 -12553679.680 2
  24579634.670     -611590.409 2   -476558.693 1
  24036582.219    -4194612.358 2  -3268527.608 1
 91  8 13  4 47  0.0020000  0  5 21 23 11 12 15
  21227928.308   -17007682.451 4 -13252724.184 3
  24087669.555    11712691.917 2   9126774.579 1
  21967180.537   -16093308.431 3 -12540232.770 2
  24583660.889     -590477.025 2   -460106.724 1
  24028054.324    -4239420.345 2  -3303442.939 1
 91  8 13  4 47 15.0020000  0  5 21 23 11 12 15
  21230576.082   -16993776.688 4 -13241888.519 3
  24095614.054    11754447.996 2   9159311.791 1
  21970498.941   -16075876.937 3 -12526649.792 2
  24587691.593     -569204.496 2   -443530.712 1
  24019532.126    -4284190.691 2  -3338328.895 1
 91  8 13  4 47 30.0020000  0  5 21 23 11 12 15
  21233232.241   -16979799.620 4 -13230997.302 3
  24103568.745    11796229.064 2   9191868.472 1
  21973851.520   -16058269.321 3 -12512929.588 2
  24591781.060     -547771.244 2   -426829.457 1
  24011025.817    -4328921.451 2  -3373184.080 1
 91  8 13  4 47 45.0020000  0  5 21 23 11 12 15
  21235909.087   -16965752.620 4 -13220051.586 3
  24111519.841    11838033.666 2   9224443.491 1
  21977231.976   -16040487.048 3 -12499073.258 2
  24595889.120     -526178.641 2   -410004.052 1
  24002519.804    -4373613.654 2  -3408009.202 1
 91  8 13  4 48  0.0020000  0  5 21 23 11 12 15
  21238593.427   -16951630.715 4 -13209047.502 3
  24119479.932    11879866.595 2   9257040.532 1
  21980652.315   -16022525.328 3 -12485077.106 2
  24600028.059     -504421.984 2   -393050.751 1
  23994018.887    -4418261.992 2  -3442800.088 1
 91  8 13  4 48 15.0020000  0  5 21 23 11 12 15
  21241296.955   -16937439.487 4 -13197989.399 3
  24127453.216    11921722.379 2   9289655.416 1
  21984098.724   -16004389.891 3 -12470945.601 2
  24604196.070     -482506.881 2   -375974.033 1
  23985535.359    -4462871.588 2  -3477560.829 1
 91  8 13  4 48 30.0020000  0  5 21 23 11 12 15
  21244010.376   -16923175.132 4 -13186874.315 3
  24135418.097    11963604.939 2   9322291.158 1
  21987589.509   -15986077.030 3 -12456675.859 2
  24608394.365     -460429.798 2   -358771.069 1
  23977056.027    -4507438.514 2  -3512288.282 1
 91  8 13  4 48 45.0020000  0  5 21 23 11 12 15
  21246736.092   -16908834.280 4 -13175699.632 3
  24143394.976    12005517.431 2   9354950.211 1
  21991104.271   -15967583.445 3 -12442265.260 2
  24612631.933     -438187.494 2   -341439.400 1
  23968582.699    -4551959.181 2  -3546979.722 1
 91  8 13  4 49  0.0020000  0  5 21 23 11 12 15
  21249483.986   -16894425.054 4 -13164471.671 3
  24151374.855    12047451.781 2   9387626.277 1
  21994652.616   -15948917.418 3 -12427720.304 2
  24616895.274     -415788.174 2   -323985.410 1
  23960117.459    -4596441.234 2  -3581641.064 1
 91  8 13  4 49 15.0020000  0  5 21 23 11 12 15
  21252231.889   -16879949.290 4 -13153191.857 3
  24159360.424    12089406.196 2   9420317.994 1
  21998239.639   -15930080.868 3 -12413042.475 2
  24621188.603     -393233.822 2   -306410.546 1
  23951657.314    -4640886.354 2  -3616273.603
 91  8 13  4 49 30.0020000  0  5 21 23 11 12 15
  21255004.362   -16865401.036 4 -13141855.549 3
  24167345.993    12131386.394 2   9453029.885 1
  22001859.626   -15911067.928 3 -12398227.207 2
  24625513.116     -370518.558 2   -288710.346 1
  23943211.862    -4685288.057 2  -3650872.301 1
 91  8 13  4 49 45.0020000  0  5 21 23 11 12 15
  21257787.044   -16850783.655 4 -13130465.380 3
  24175333.367    12173389.166 2   9485759.277 1
  22005509.600   -15891882.091 3 -12383277.202 2
  24629861.004     -347646.053 2   -270887.544 1
  23934767.004    -4729649.566 2  -3685439.730 1
 91  8 13  4 50  0.0020000  0  5 21 23 11 12 15
  21260581.103   -16836096.632 4 -13119020.933 3
  24183332.730    12215415.014 2   9518506.708 1
  22009194.650   -15872523.034 3 -12368192.215 2
  24634251.164     -324615.744 2   -252941.849 1
  23926331.447    -4773970.163 2  -3719975.275 1
 91  8 13  4 50 15.0020000  0  5 21 23 11 12 15
  21263392.560   -16821333.621 4 -13107517.281 3
  24191338.681    12257470.246 2   9551276.998 1
  22012913.876   -15852984.479 3 -12352967.380 2
  24638665.005     -301421.311 2   -234868.231 1
  23917910.277    -4818243.113 2  -3754473.636 1
 91  8 13  4 50 30.0020000  0  5 21 23 11 12 15
  21266211.512   -16806498.741 4 -13095957.637 3
  24199345.844    12299550.761 2   9584066.986 1
  22016662.785   -15833270.735 3 -12337606.018 2
  24643101.339     -278067.170 2   -216670.228 1
  23909491.201    -4862472.047 2  -3788937.730 1
 91  8 13  4 50 45.0020000  0  5 21 23 11 12 15
  21269047.844   -16791590.000 4 -13084340.438 3
  24207364.987    12341658.552 2   9616878.236 1
  22020448.863   -15813379.854 3 -12322106.634 2
  24647584.134     -254551.475 2   -198346.237 1
  23901087.124    -4906654.763 2  -3823365.829 1
 91  8 13  4 51  0.0020000  0  5 21 23 11 12 15
  21271898.869   -16776612.766 4 -13072669.863 3
  24215370.946    12383788.151 2   9649706.485 1
  22024270.312   -15793317.439 3 -12306473.584 2
  24652087.913     -230879.678 2   -179900.674 1
  23892689.338    -4950796.353 2  -3857761.905 1
 91  8 13  4 51 15.0020000  0  5 21 23 11 12 15
  21274764.588   -16761565.386 4 -13060944.630 3
  24223401.484    12425941.322 2   9682553.099 1
  22028115.755   -15773082.077 3 -12290705.775 2
  24656612.083     -207050.396 2   -161332.410 1
  23884294.849    -4994894.912 2  -3892124.399 1
 91  8 13  4 51 30.0020000  0  5 21 23 11 12 15
  21277637.496   -16746445.957 4 -13049163.253 3
  24231421.840    12468119.826 2   9715419.459 1
  22032002.861   -15752671.995 3 -12274801.810 2
  24661176.719     -183061.901 2   -142640.002 1
  23875908.754    -5038948.356 2  -3926451.746 1
 91  8 13  4 51 45.0020000  0  5 21 23 11 12 15
  21280529.895   -16731255.102 4 -13037326.225 3
  24239458.075    12510322.887 2   9748304.959 1
  22035916.352   -15732088.142 3 -12258762.453 2
  24665775.541     -158914.973 2   -123824.181 1
  23867532.249    -5082957.076 2  -3960744.258 1
 91  8 13  4 52  0.0020000  0  5 21 23 11 12 15
  21283436.081   -16715992.590 4 -13025433.360 3
  24247497.609    12552550.924 2   9781209.948 1
  22039873.014   -15711329.970 3 -12242587.248 2
  24670401.035     -134609.181 2   -104884.629 1
  23859165.044    -5126920.224 2  -3995001.223 1
 91  8 13  4 52 15.0020000  0  5 21 23 11 12 15
  21286352.763   -16700658.539 4 -13013484.733 3
  24255527.850    12594803.782 2   9814134.257 1
  22043852.161   -15690397.968 3 -12226276.599 2
  24675061.011     -110144.994 2    -85821.603 1
  23850811.328    -5170837.586 2  -4029222.535 1
 91  8 13  4 52 30.0020000  0  5 21 23 11 12 15
  21289286.231   -16685254.583 4 -13001481.648 3
  24263581.474    12637079.804 2   9847076.587 1
  22047869.079   -15669293.885 3 -12209831.870 2
  24679744.371      -85524.314 2    -66636.644 1
  23842466.608    -5214710.538 2  -4063409.263 1
 91  8 13  4 52 45.0020000  0  5 21 23 11 12 15
  21292229.594   -16669776.514 4 -12989420.813 3
  24271627.299    12679382.988 2   9880040.105 1
  22051914.476   -15648013.909 3 -12193250.076 2
  24684459.803      -60743.179 2    -47326.630 1
  23834122.184    -5258534.614 2  -4097557.857 1
 91  8 13  4 53  0.0020000  0  5 21 23 11 12 15
  21295187.651   -16654224.688 4 -12977302.505 3
  24279676.726    12721713.059 2   9913024.582 1
  22056002.451   -15626558.402 3 -12176531.491 2
  24689205.216      -35801.969 2    -27891.924 1
  23825791.249    -5302309.720 2  -4131668.299 1
 91  8 13  4 53 15.0020000  0  5 21 23 11 12 15
  21298161.290   -16638601.863 4 -12965128.876 3
  24287737.846    12764067.382 2   9946027.953 1
  22060114.403   -15604930.217 3 -12159678.376 2
  24693975.215      -10703.409 2     -8334.588 1
  23817472.303    -5346038.160 2  -4165742.460 1
 91  8 13  4 53 30.0020000  0  5 21 23 11 12 15
  21301149.317   -16622909.796 4 -12952901.295 3
  24295794.472    12806444.227 2   9979048.845 1
  22064267.127   -15583131.252 3 -12142692.169 2
  24698786.284       14550.482 2     11343.787 1
  23809159.359    -5389721.680 2  -4199781.544 1
 91  8 13  4 53 45.0020000  0  5 21 23 11 12 15
  21304149.943   -16607146.648 4 -12940618.318 3
  24303874.481    12848845.301 2  10012088.667 1
  22068446.236   -15561159.846 3 -12125571.599 2
  24703630.333       39961.424 2     31144.548 1
  23800856.014    -5433358.156 2  -4233783.958 1
 91  8 13  4 54  0.0020000  0  5 21 23 11 12 15
  21307163.159   -16591316.199 4 -12928282.898 3
  24311947.292    12891266.700 2  10045144.283 1
  22072656.817   -15539019.936 3 -12108319.730 2
  24708486.973       65525.488 2     51064.613 1
  23792556.254    -5476950.979 2  -4267752.394 1
 91  8 13  4 54 15.0020000  0  5 21 23 11 12 15
  21310182.666   -16575414.654 4 -12915892.077 3
  24320021.604    12933712.394 2  10078218.835 1
  22076904.278   -15516707.910 3 -12090933.743 2
  24713372.092       91246.119 2     71106.666
  23784268.491    -5520496.057 2  -4301683.623 1
 91  8 13  4 54 30.0020000  0  5 21 23 11 12 15
  21313230.059   -16559440.218 4 -12903444.469 3
  24328107.904    12976184.043 2  10111313.603 1
  22081181.117   -15494222.150 3 -12073412.371 2
  24718304.274      117125.133 2     91272.126 1
  23776004.112    -5563991.322 2  -4335576.005 1
 91  8 13  4 54 45.0020000  0  5 21 23 11 12 15
  21316277.748   -16543393.794 4 -12890940.759 3
  24336192.406    13018680.711 2  10144427.898 1
  22085493.930   -15471563.812 3 -12055756.535 2
  24723256.550      143161.285 2    111560.085 1
  23767731.042    -5607437.441 2  -4369430.102 2
 91  8 13  4 55  0.0020000  0  5 21 23 11 12 15
  21319344.022   -16527275.667 4 -12878381.173 3
  24344284.404    13061202.171 2  10177561.488 1
  22089838.825   -15448733.451 3 -12037966.642 2
  24728245.994      169354.073 2    131970.034 1
  23759476.853    -5650834.288 2  -4403245.804 1
 91  8 13  4 55 15.0020000  0  5 21 23 11 12 15
  21322426.193   -16511087.711 4 -12865767.185 3
  24352372.501    13103746.470 2  10210712.923 1
  22094217.294   -15425732.998 3 -12020044.219 2
  24733254.626      195701.476 2    152500.575 1
  23751222.970    -5694183.419 2  -4437024.379 1
 91  8 13  4 55 30.0020000  0  5 21 23 11 12 15
  21325522.149   -16494827.711 4 -12853097.058 3
  24360475.292    13146315.753 2  10243883.776 1
  22098627.836   -15402560.390 3 -12001987.648 2
  24738300.129      222205.656 2    173153.128 1
  23742981.372    -5737482.178 2  -4470763.646 1
 91  8 13  4 55 45.0020000  0  5 21 23 11 12 15
  21328628.899   -16478498.509 4 -12840372.999 2
  24368584.076    13188907.208 2  10277071.928 1
  22103067.468   -15379218.632 3 -11983799.267 2
  24743378.919      248863.646 2    193925.683 1
  23734753.568    -5780733.024 2  -4504465.616 1
 91  8 13  4 56  0.0020000  0  5 21 23 11 12 15
  21331751.834   -16462100.906 4 -12827595.636 3
  24376691.072    13231520.176 2  10310276.823 1
  22107541.268   -15355708.623 3 -11965479.766 2
  24748476.590      275674.343 2    214817.129 1
  23726531.767    -5823936.548 2  -4538130.674 1
 91  8 13  4 56 15.0020000  0  5 21 23 11 12 15
  21334882.272   -16445629.816 4 -12814761.025 3
  24384808.547    13274159.729 2  10343502.451 1
  22112049.549   -15332025.515 3 -11947025.421 2
  24753602.435      302642.632 2    235831.431 1
  23718321.946    -5867087.471 2  -4571754.743 1
 91  8 13  4 56 30.0020000  0  5 21 23 11 12 15
  21338030.989   -16429088.326 4 -12801871.550 3
  24392930.524    13316822.708 2  10376746.336 1
  22116588.106   -15308172.671 3 -11928438.777 1
  24758766.966      329765.386 2    256965.959 1
  23710116.330    -5910188.488 2  -4605339.934 1
 91  8 13  4 56 45.0020000  0  5 21 23 11 12 15
  21341195.298   -16412475.380 4 -12788926.390 3
  24401046.507    13359509.888 2  10410009.079 1
  22121157.838   -15284149.290 3 -11909719.253 2
  24763958.467      357043.460 2    278221.758 1
  23701929.298    -5953238.127 2  -4638885.065 1
 91  8 13  4 57  0.0020000  0  5 21 23 11 12 15
  21344368.603   -16395789.955 4 -12775924.757 3
  24409179.277    13402222.449 2  10443291.608 1
  22125763.553   -15259954.512 3 -11890866.173 2
  24769184.746      384477.576 2    299598.922 1
  23693744.361    -5996235.261 2  -4672389.283 1
 91  8 13  4 57 15.0020000  0  5 21 23 11 12 15
  21347555.693   -16379034.335 4 -12762868.435 3
  24417313.547    13444958.187 2  10476592.160 1
  22130399.840   -15235590.783 3 -11871881.470 2
  24774431.119      412065.245 2    321095.872 1
  23685572.921    -6039181.741 3  -4705854.103 1
 91  8 13  4 57 30.0020000  0  5 21 23 11 12 15
  21350761.377   -16362208.572 4 -12749757.451 3
  24425442.714    13487716.980 2  10509910.709 1
  22135071.508   -15211058.216 3 -11852765.180 1
  24779711.363      439806.329 2    342712.257 1
  23677408.069    -6082077.401 2  -4739279.284 1
 91  8 13  4 57 45.0020000  0  5 21 23 11 12 15
  21353974.555   -16345311.491 4 -12736590.887 3
  24433581.783    13530500.087 2  10543248.154 1
  22139769.857   -15186355.906 3 -11833516.628 2
  24785016.491      467701.820 2    364449.072 1
  23669248.923    -6124920.571 2  -4772663.520 1
 91  8 13  4 58  0.0020000  0  5 21 23 11 12 15
  21357201.519   -16328341.921 4 -12723367.839 3
  24441729.840    13573308.386 2  10576605.252 1
  22144500.279   -15161483.087 3 -11814135.214 1
  24790355.795      495752.590 2    386306.903 1
  23661113.448    -6167709.789 3  -4806005.776 1
 91  8 13  4 58 15.0020000  0  5 21 23 11 12 15
  21360447.068   -16311302.448 4 -12710090.323 3
  24449885.094    13616139.548 2  10609980.207 1
  22149267.879   -15136442.280 3 -11794622.900 2
  24795725.978      523956.030 2    408283.591 1
  23652972.285    -6210447.217 2  -4839307.667 1
 91  8 13  4 58 30.0020000  0  5 21 23 11 12 15
  21363702.214   -16294192.275 4 -12696757.724 3
  24458041.553    13658994.183 2  10643373.411
  22154063.060   -15111233.007 3 -11774979.301 2
  24801121.637      552312.641 2    430379.675 1
  23644856.904    -6253131.910 2  -4872568.410 1
 91  8 13  4 58 45.0020000  0  5 21 23 11 12 15
  21366967.254   -16277011.746 4 -12683370.289 3
  24466199.504    13701871.947 2  10676784.730 1
  22158892.416   -15085855.710 3 -11755204.785 2
  24806551.185      580821.748 2    452594.559 1
  23636744.821    -6295763.760 3  -4905788.026 1
 91  8 13  4 59  0.0020000  0  5 21 23 11 12 15
  21370252.685   -16259756.846 4 -12669924.914 3
  24474365.848    13744776.969 2  10710217.122 1
  22163753.550   -15060306.674 3 -11735296.463 2
  24811997.512      609487.193 2    474931.296 1
  23628651.323    -6338338.294 2  -4938962.962 1
 91  8 13  4 59 15.0020000  0  5 21 23 11 12 15
  21373552.495   -16242429.096 4 -12656422.778 3
  24482527.402    13787707.521 2  10743669.499 1
  22168649.164   -15034587.668 3 -11715255.684 2
  24817481.618      638307.287 2    497388.568 1
  23620555.731    -6380856.899 3  -4972094.329 1
 91  8 13  4 59 30.0020000  0  5 21 23 11 12 15
  21376863.107   -16225030.895 4 -12642865.739 3
  24490699.740    13830661.071 2  10777139.792 1
  22173573.258   -15008701.390 3 -11695084.545 2
  24822999.595      667279.477 2    519964.312 1
  23612471.525    -6423321.731 3  -5005183.806 1
 91  8 13  4 59 45.0020000  0  5 21 23 11 12 15
  21380186.004   -16207562.383 4 -12629253.909 3
  24498879.277    13873637.747 2  10810628.111 1
  22178534.818   -14982648.098 3 -11674783.292 2
  24828537.360      696403.441 2    542658.335 1
  23604396.315    -6465732.847 2  -5038231.401 1
 91  8 13  5  0  0.0020000  0  5 21 23 11 12 15
  21383522.695   -16190028.969 4 -12615591.507 3
  24507066.308    13916632.284 2  10844130.317 1
  22183521.270   -14956433.359 3 -11654356.226 2
  24834109.608      725673.534 2    565466.162 1
  23596331.897    -6508095.254 2  -5071241.032 1
 91  8 13  5  0 15.0020000  0  5 21 23 11 12 15
  21386874.079   -16172423.888 4 -12601873.265 3
  24515261.733    13959651.270 2  10877651.697 1
  22188540.092   -14930050.689 3 -11633798.304 2
  24839708.824      755096.458 2    588393.184 1
  23588289.066    -6550401.544 2  -5104206.989 2
 91  8 13  5  0 30.0020000  0  5 21 23 11 12 15
  21390239.545   -16154743.358 4 -12588096.226 3
  24523443.372    14002698.259 2  10911194.722 1
  22193593.396   -14903496.518 3 -11613106.751 2
  24845336.833      784675.595 2    611441.838
  23580245.335    -6592647.847 2  -5137126.130 1
 91  8 13  5  0 45.0020000  0  5 21 23 11 12 15
  21393616.110   -16136996.242 4 -12574267.302 3
  24531637.899    14045764.504 2  10944752.879 1
  22198679.977   -14876779.980 3 -11592288.659 2
  24850990.913      814401.818 2    634605.221 1
  23572219.893    -6634842.559 2  -5170005.085 1
 91  8 13  5  1  0.0020000  0  5 21 23 11 12 15
  21397004.366   -16119176.976 4 -12560382.160 3
  24539840.225    14088855.594 2  10978330.355 1
  22203793.231   -14849895.652 3 -11571339.839 2
  24856669.886      844280.618 2    657887.354 1
  23564197.749    -6676979.851 2  -5202839.343 1
 91  8 13  5  1 15.0020000  0  5 21 23 11 12 15
  21400412.403   -16101286.665 4 -12546441.666 3
  24548043.747    14131970.162 2  11011926.068 1
  22208942.773   -14822845.009 3 -11550261.419 2
  24862391.725      874310.547 2    681287.377 1
  23556191.789    -6719060.529 2  -5235629.446 2
 91  8 13  5  1 30.0020000  0  5 21 23 11 12 15
  21403826.136   -16083325.424 4 -12532445.900 2
  24556255.654    14175108.370 2  11045540.328 1
  22214124.982   -14795628.230 3 -11529053.543 2
  24868145.638      904491.428 2    704804.955 1
  23548195.122    -6761084.181 2  -5268375.099 1
 91  8 13  5  1 45.0020000  0  5 21 23 11 12 15
  21407257.861   -16065293.770 4 -12518395.249 3
  24564460.380    14218269.664 2  11079172.470 1
  22219331.481   -14768246.168 3 -11507716.872 2
  24873909.148      934822.552 2    728439.572 1
  23540211.648    -6803051.271 2  -5301076.726 1
 91  8 13  5  2  0.0020000  0  5 21 23 11 12 15
  21410703.974   -16047192.125 4 -12504290.066 3
  24572685.487    14261453.566 2  11112822.331 1
  22224575.149   -14740699.284 3 -11486251.778 2
  24879711.031      965303.254 2    752190.760 1
  23532232.379    -6844961.760 2  -5333734.211 1
 91  8 13  5  2 15.0020000  0  5 21 23 11 12 15
  21414161.787   -16029018.535 4 -12490128.831 3
  24580911.485    14304662.144 2  11146491.313 1
  22229848.797   -14712985.925 3 -11464656.966 2
  24885539.901      995935.281 2    776059.914 1
  23524272.584    -6886813.400 2  -5366345.863 1
 91  8 13  5  2 30.0020000  0  5 21 23 11 12 15
  21417634.581   -16010770.558 4 -12475909.625 3
  24589132.998    14347897.671 2  11180181.322 1
  22235154.222   -14685103.946 3 -11442930.741 2
  24891390.349     1026720.874 2    800048.757 1
  23516318.496    -6928603.358 2  -5398909.424 1
 91  8 13  5  2 45.0030000  0  5 21 23 11 12 15
  21421119.070   -15992452.458 4 -12461635.785 3
  24597358.999    14391157.527 2  11213890.264 1
  22240486.627   -14657057.385 3 -11421076.264 2
  24897288.770     1057656.097 2    824154.068 1
  23508380.883    -6970339.816 2  -5431431.333 1
 91  8 13  5  3  0.0030000  0  5 21 23 11 12 15
  21424620.046   -15974067.320 4 -12447309.702 3
  24605595.197    14434435.322 2  11247613.195 1
  22245861.015   -14628850.718 3 -11399097.059 2
  24903207.866     1088736.088 2    848372.223 1
  23500451.679    -7012017.274 3  -5463907.265 1
 91  8 13  5  3 15.0030000  0  5 21 23 11 12 15
  21428133.909   -15955608.827 4 -12432926.466 3
  24613846.986    14477738.947 2  11281356.257 1
  22251252.775   -14600477.296 3 -11376987.894 2
  24909132.965     1119967.832 2    872708.670 1
  23492522.466    -7053633.252 2  -5496335.258 1
 91  8 13  5  3 30.0030000  0  5 21 23 11 12 15
  21431654.072   -15937081.930 4 -12418489.922 3
  24622081.691    14521063.459 2  11315115.613 1
  22256687.418   -14571942.249 3 -11354752.797 1
  24915110.232     1151346.049 2    897159.288 1
  23484623.834    -7095192.200 3  -5528718.793 2
 91  8 13  5  3 45.0030000  0  5 21 23 11 12 15
  21435197.923   -15918483.115 4 -12403997.339 3
  24630332.878    14564412.440 2  11348894.070 1
  22262147.836   -14543242.312 3 -11332389.213 2
  24921101.581     1182874.145 2    921726.589 1
  23476721.302    -7136690.367 3  -5561055.079 1
 91  8 13  5  4  0.0030000  0  5 21 23 11 12 15
  21438747.463   -15899814.939 4 -12389450.702 3
  24638588.864    14607783.290 2  11382689.597 1
  22267642.133   -14514380.242 3 -11309899.290 2
  24927144.496     1214549.474 2    946408.655 1
  23468834.362    -7178130.066 2  -5593345.722 1
 91  8 13  5  4 15.0030000  0  5 21 23 11 12 15
  21442313.493   -15881077.898 4 -12374850.421 3
  24646848.445    14651175.449 2  11416501.670 1
  22273164.909   -14485356.765 3 -11287283.595 2
  24933198.203     1246371.226 2    971204.901 1
  23460955.223    -7219511.409 2  -5625590.829 1
 91  8 13  5  4 30.0030000  0  5 21 23 11 12 15
  21445893.013   -15862267.952 4 -12360193.313 3
  24655113.121    14694592.983 2  11450333.472 1
  22278719.461   -14456168.030 3 -11264539.127 2
  24939283.094     1278343.221 2    996118.145 1
  23453097.660    -7260829.880 2  -5657787.041 1
 91  8 13  5  4 45.0030000  0  5 21 23 11 12 15
  21449487.226   -15843386.840 4 -12345480.754 3
  24663375.398    14738034.193 2  11484183.736 1
  22284301.297   -14426816.169 3 -11241667.550 2
  24945395.862     1310463.379 2   1021146.859 1
  23445242.200    -7302087.075 2  -5689935.516 1
 91  8 13  5  5  0.0030000  0  5 21 23 11 12 15
  21453092.537   -15824439.353 4 -12330716.487 3
  24671640.083    14781494.145 2  11518048.628 1
  22289918.208   -14397306.156 3 -11218672.745 1
  24951530.215     1342726.897 2   1046287.269 1
  23437412.820    -7343287.155 3  -5722039.413 1
 91  8 13  5  5 15.0030000  0  5 21 23 11 12 15
  21456707.428   -15805421.279 4 -12315897.204 3
  24679922.741    14824976.985 2  11551931.337 1
  22295564.505   -14367634.174 3 -11195551.719 2
  24957699.042     1375137.550 2   1071542.308 1
  23429580.734    -7384425.750 3  -5754095.450 1
 91  8 13  5  5 30.0030000  0  5 21 23 11 12 15
  21460343.311   -15786335.154 4 -12301024.894 3
  24688201.814    14868480.268 2  11585830.012 1
  22301244.970   -14337802.883 3 -11172306.556 2
  24963889.759     1407692.637 2   1096909.932 1
  23421760.655    -7425505.135 2  -5786105.328 1
 91  8 13  5  5 45.0030000  0  5 21 23 11 12 15
  21463988.191   -15767174.590 4 -12286094.589 3
  24696484.176    14912010.313 2  11619749.572 1
  22306949.717   -14307806.150 3 -11148932.483 1
  24970119.749     1440398.235 2   1122394.852 1
  23413961.254    -7466518.474 3  -5818063.751 1
 91  8 13  5  6  0.0030000  0  5 21 23 11 12 15
  21467650.451   -15747941.103 4 -12271107.457 3
  24704766.546    14955565.674 2  11653688.785 1
  22312688.046   -14277645.735 3 -11125430.866 2
  24976371.019     1473252.697 2   1147995.705 1
  23406165.744    -7507467.011 2  -5849971.666 1
 91  8 13  5  6 15.0030000  0  5 21 23 11 12 15
  21471321.715   -15728642.596 4 -12256069.667 3
  24713062.999    14999138.441 2  11687641.609 1
  22318458.449   -14247329.991 3 -11101808.208 1
  24982651.972     1506247.726 2   1173706.104 1
  23398382.834    -7548358.553 2  -5881835.158 1
 91  8 13  5  6 30.0030000  0  5 21 23 11 12 15
  21475010.359   -15709268.098 4 -12240972.657 3
  24721352.263    15042739.539 2  11721616.453 1
  22324257.637   -14216848.206 3 -11078056.169 1
  24988951.806     1539393.988 2   1199534.420 1
  23390616.710    -7589181.466 3  -5913645.255 2
 91  8 13  5  6 45.0030000  0  5 21 23 11 12 15
  21478708.296   -15689821.822 4 -12225819.706 3
  24729659.814    15086364.738 2  11755610.090 1
  22330093.399   -14186204.690 3 -11054178.115 2
  24995288.224     1572687.253 2   1225477.193 1
  23382852.690    -7629939.935 2  -5945405.036 1
 91  8 13  5  7  0.0030000  0  5 21 23 11 12 15
  21482422.732   -15670305.336 4 -12210612.064 3
  24737962.863    15130012.497 2  11789621.319 1
  22335952.240   -14155401.187 3 -11030175.376 2
  25001655.215     1606125.679 2   1251533.132 1
  23375113.544    -7670635.018 3  -5977115.412 1
 91  8 13  5  7 15.0030000  0  5 21 23 11 12 15
  21486147.646   -15650717.532 4 -12195348.841 2
  24746275.807    15173683.909 2  11823651.027 1
  22341845.859   -14124437.069 3 -11006047.506 1
  25008055.484     1639709.991 2   1277702.742 1
  23367388.795    -7711265.317 3  -6008775.417 1
 91  8 13  5  7 30.0030000  0  5 21 23 11 12 15
  21489887.263   -15631057.309 4 -12180029.181 2
  24754584.859    15217379.986 2  11857699.903 1
  22347769.763   -14093311.657 3 -10981793.942 2
  25014467.741     1673440.959 2   1303986.593 1
  23359664.640    -7751829.595 2  -6040383.924 2
 91  8 13  5  7 45.0030000  0  5 21 23 11 12 15
  21493645.455   -15611327.694 4 -12164655.445 3
  24762908.299    15261097.843 2  11891765.749 1
  22353718.839   -14062027.938 3 -10957417.033 2
  25020917.176     1707315.501 2   1330382.364 1
  23351959.077    -7792330.157 3  -6071942.725 1
 91  8 13  5  8  0.0030000  0  5 21 23 11 12 15
  21497413.551   -15591526.072 4 -12149225.621 2
  24771228.737    15304840.079 2  11925850.625 1
  22359702.397   -14030583.649 3 -10932914.977 1
  25027385.806     1741335.938 2   1356891.840 1
  23344259.204    -7832764.164 2  -6103449.751 1
 91  8 13  5  8 15.0030000  0  5 21 23 11 12 15
  21501196.932   -15571654.805 4 -12133741.519 3
  24779557.569    15348604.209 2  11959952.501 1
  22365719.834   -13998981.497 3 -10908289.916 2
  25033877.505     1775499.645 2   1383512.922 1
  23336578.525    -7873133.805 2  -6134906.588 1
 91  8 13  5  8 30.0030000  0  5 21 23 11 12 15
  21504992.608   -15551712.229 4 -12118201.842 2
  24787891.200    15392391.760 2  11994072.668 1
  22371761.256   -13967220.123 3 -10883540.789 1
  25040412.986     1809807.916 2   1410246.674 1
  23328910.428    -7913436.972 3  -6166311.628 2
 91  8 13  5  8 45.0030000  0  5 21 23 11 12 15
  21508799.067   -15531702.312 4 -12102609.699 2
  24796230.824    15436198.832 2  12028208.061 1
  22377834.743   -13935303.810 3 -10858670.936 1
  25046969.740     1844256.576 2   1437089.803 1
  23321251.030    -7953677.439 2  -6197667.794 2
 91  8 13  5  9  0.0030000  0  5 21 23 11 12 15
  21512621.119   -15511620.569 4 -12086961.593 3
  24804580.649    15480029.730 2  12062361.985 1
  22383942.119   -13903228.475 3 -10833677.165 1
  25053551.090     1878849.754 2   1464045.497 1
  23313614.422    -7993850.455 3  -6228971.403 1
 91  8 13  5  9 15.0030000  0  5 21 23 11 12 15
  21516455.769   -15491466.753 4 -12071257.304 2
  24812909.184    15523884.940 2  12096534.839 1
  22390073.777   -13870993.979 3 -10808559.387 2
  25060156.712     1913587.660 2   1491114.019 1
  23305981.706    -8033955.164 3  -6260221.844 2
 91  8 13  5  9 30.0030000  0  5 21 23 11 12 15
  21520302.103   -15471244.135 4 -12055499.413 3
  24821271.590    15567761.307 2  12130724.205 1
  22396235.405   -13838603.763 3 -10783320.263 2
  25066803.116     1948466.728 2   1518292.538 1
  23298358.578    -8073994.535 2  -6291421.269 2
 91  8 13  5  9 45.0030000  0  5 21 23 11 12 15
  21524165.528   -15450948.546 4 -12039684.681 3
  24829618.117    15611662.850 2  12164933.214 1
  22402430.023   -13806053.994 3 -10757956.797 1
  25073467.800     1983490.881 2   1545584.078 1
  23290745.956    -8113964.157 3  -6322566.383 1
 91  8 13  5 10  0.0030000  0  5 21 23 11 12 15
  21528041.545   -15430583.736 4 -12023815.998 3
  24837974.232    15655585.711 2  12199158.814 1
  22408652.509   -13773348.723 3 -10732472.182 2
  25080159.470     2018656.022 2   1572985.545 1
  23283158.208    -8153867.365 2  -6353659.828 1
